<?xml version="1.0" encoding="UTF-8" standalone="no" ?>
<gpx xmlns="http://www.topografix.com/GPX/1/1" xmlns:xsi="http://www.w3.org/2001/XMLSchema-instance" xsi:schemaLocation="http://www.topografix.com/GPX/1/1 http://www.topografix.com/GPX/1/1/gpx.xsd" version="1.1" creator="VisuGPX - https://www.visugpx.com">
  <metadata>
    <name>rallye theoule + californie</name>
  </metadata>
  <trk>
    <name><![CDATA[rallye theoule + californie_1]]></name>
    <trkseg>
      <trkpt lat="43.50411" lon="6.93856">
        <ele>25.312000274658</ele>
        <time>2017-10-22T07:19:45Z</time>
      </trkpt>
      <trkpt lat="43.50411" lon="6.9388">
        <ele>25.312000274658</ele>
        <time>2017-10-22T07:19:51Z</time>
      </trkpt>
      <trkpt lat="43.50416" lon="6.93888">
        <ele>27.312000274658</ele>
        <time>2017-10-22T07:19:54Z</time>
      </trkpt>
      <trkpt lat="43.50433" lon="6.939">
        <ele>28.312000274658</ele>
        <time>2017-10-22T07:20:01Z</time>
      </trkpt>
      <trkpt lat="43.50447" lon="6.93914">
        <ele>28.312000274658</ele>
        <time>2017-10-22T07:20:07Z</time>
      </trkpt>
      <trkpt lat="43.50452" lon="6.93922">
        <ele>29.312000274658</ele>
        <time>2017-10-22T07:20:09Z</time>
      </trkpt>
      <trkpt lat="43.50458" lon="6.93932">
        <ele>29.312000274658</ele>
        <time>2017-10-22T07:20:12Z</time>
      </trkpt>
      <trkpt lat="43.50469" lon="6.93952">
        <ele>30.312000274658</ele>
        <time>2017-10-22T07:20:18Z</time>
      </trkpt>
      <trkpt lat="43.5048" lon="6.9397">
        <ele>29.312000274658</ele>
        <time>2017-10-22T07:20:24Z</time>
      </trkpt>
      <trkpt lat="43.50493" lon="6.93986">
        <ele>32.312000274658</ele>
        <time>2017-10-22T07:20:29Z</time>
      </trkpt>
      <trkpt lat="43.50506" lon="6.94001">
        <ele>30.312000274658</ele>
        <time>2017-10-22T07:20:35Z</time>
      </trkpt>
      <trkpt lat="43.5052" lon="6.94016">
        <ele>29.312000274658</ele>
        <time>2017-10-22T07:20:41Z</time>
      </trkpt>
      <trkpt lat="43.50533" lon="6.94031">
        <ele>33.312000274658</ele>
        <time>2017-10-22T07:20:47Z</time>
      </trkpt>
      <trkpt lat="43.50525" lon="6.94029">
        <ele>37.312000274658</ele>
        <time>2017-10-22T07:20:58Z</time>
      </trkpt>
      <trkpt lat="43.50518" lon="6.94022">
        <ele>39.312000274658</ele>
        <time>2017-10-22T07:21:03Z</time>
      </trkpt>
      <trkpt lat="43.50512" lon="6.94016">
        <ele>40.312000274658</ele>
        <time>2017-10-22T07:21:08Z</time>
      </trkpt>
      <trkpt lat="43.50498" lon="6.94006">
        <ele>42.312000274658</ele>
        <time>2017-10-22T07:21:18Z</time>
      </trkpt>
      <trkpt lat="43.50491" lon="6.94003">
        <ele>43.312000274658</ele>
        <time>2017-10-22T07:21:23Z</time>
      </trkpt>
      <trkpt lat="43.50484" lon="6.93999">
        <ele>44.312000274658</ele>
        <time>2017-10-22T07:21:28Z</time>
      </trkpt>
      <trkpt lat="43.50477" lon="6.93994">
        <ele>45.312000274658</ele>
        <time>2017-10-22T07:21:33Z</time>
      </trkpt>
      <trkpt lat="43.50469" lon="6.93991">
        <ele>46.312000274658</ele>
        <time>2017-10-22T07:21:38Z</time>
      </trkpt>
      <trkpt lat="43.50463" lon="6.93986">
        <ele>47.312000274658</ele>
        <time>2017-10-22T07:21:43Z</time>
      </trkpt>
      <trkpt lat="43.50456" lon="6.93981">
        <ele>49.312000274658</ele>
        <time>2017-10-22T07:21:49Z</time>
      </trkpt>
      <trkpt lat="43.50451" lon="6.93974">
        <ele>49.312000274658</ele>
        <time>2017-10-22T07:21:55Z</time>
      </trkpt>
      <trkpt lat="43.50445" lon="6.93967">
        <ele>49.312000274658</ele>
        <time>2017-10-22T07:22:00Z</time>
      </trkpt>
      <trkpt lat="43.50438" lon="6.93959">
        <ele>50.312000274658</ele>
        <time>2017-10-22T07:22:06Z</time>
      </trkpt>
      <trkpt lat="43.50431" lon="6.93956">
        <ele>50.312000274658</ele>
        <time>2017-10-22T07:22:11Z</time>
      </trkpt>
      <trkpt lat="43.50424" lon="6.93952">
        <ele>53.312000274658</ele>
        <time>2017-10-22T07:22:18Z</time>
      </trkpt>
      <trkpt lat="43.50416" lon="6.93947">
        <ele>53.312000274658</ele>
        <time>2017-10-22T07:22:23Z</time>
      </trkpt>
      <trkpt lat="43.50409" lon="6.93946">
        <ele>53.312000274658</ele>
        <time>2017-10-22T07:22:28Z</time>
      </trkpt>
      <trkpt lat="43.50401" lon="6.93945">
        <ele>54.312000274658</ele>
        <time>2017-10-22T07:22:34Z</time>
      </trkpt>
      <trkpt lat="43.50393" lon="6.93943">
        <ele>55.312000274658</ele>
        <time>2017-10-22T07:22:41Z</time>
      </trkpt>
      <trkpt lat="43.50385" lon="6.93939">
        <ele>56.312000274658</ele>
        <time>2017-10-22T07:22:47Z</time>
      </trkpt>
      <trkpt lat="43.50378" lon="6.93932">
        <ele>59.312000274658</ele>
        <time>2017-10-22T07:22:53Z</time>
      </trkpt>
      <trkpt lat="43.50374" lon="6.93924">
        <ele>60.312000274658</ele>
        <time>2017-10-22T07:22:58Z</time>
      </trkpt>
      <trkpt lat="43.5037" lon="6.93913">
        <ele>60.312000274658</ele>
        <time>2017-10-22T07:23:03Z</time>
      </trkpt>
      <trkpt lat="43.50366" lon="6.93893">
        <ele>61.312000274658</ele>
        <time>2017-10-22T07:23:11Z</time>
      </trkpt>
      <trkpt lat="43.50363" lon="6.93882">
        <ele>61.312000274658</ele>
        <time>2017-10-22T07:23:16Z</time>
      </trkpt>
      <trkpt lat="43.50359" lon="6.93872">
        <ele>62.312000274658</ele>
        <time>2017-10-22T07:23:21Z</time>
      </trkpt>
      <trkpt lat="43.50357" lon="6.93861">
        <ele>64.311996459961</ele>
        <time>2017-10-22T07:23:26Z</time>
      </trkpt>
      <trkpt lat="43.50353" lon="6.93849">
        <ele>64.311996459961</ele>
        <time>2017-10-22T07:23:31Z</time>
      </trkpt>
      <trkpt lat="43.50347" lon="6.93841">
        <ele>65.311996459961</ele>
        <time>2017-10-22T07:23:36Z</time>
      </trkpt>
      <trkpt lat="43.50339" lon="6.93837">
        <ele>66.311996459961</ele>
        <time>2017-10-22T07:23:41Z</time>
      </trkpt>
      <trkpt lat="43.5033" lon="6.93837">
        <ele>68.311996459961</ele>
        <time>2017-10-22T07:23:46Z</time>
      </trkpt>
      <trkpt lat="43.50323" lon="6.93835">
        <ele>67.311996459961</ele>
        <time>2017-10-22T07:23:51Z</time>
      </trkpt>
      <trkpt lat="43.50309" lon="6.93822">
        <ele>67.311996459961</ele>
        <time>2017-10-22T07:23:59Z</time>
      </trkpt>
      <trkpt lat="43.50301" lon="6.93819">
        <ele>68.311996459961</ele>
        <time>2017-10-22T07:24:05Z</time>
      </trkpt>
      <trkpt lat="43.50293" lon="6.93817">
        <ele>70.311996459961</ele>
        <time>2017-10-22T07:24:10Z</time>
      </trkpt>
      <trkpt lat="43.50278" lon="6.93809">
        <ele>71.310997009277</ele>
        <time>2017-10-22T07:24:19Z</time>
      </trkpt>
      <trkpt lat="43.50271" lon="6.93808">
        <ele>71.310997009277</ele>
        <time>2017-10-22T07:24:23Z</time>
      </trkpt>
      <trkpt lat="43.50264" lon="6.9381">
        <ele>74.310997009277</ele>
        <time>2017-10-22T07:24:28Z</time>
      </trkpt>
      <trkpt lat="43.50254" lon="6.93811">
        <ele>73.310997009277</ele>
        <time>2017-10-22T07:24:33Z</time>
      </trkpt>
      <trkpt lat="43.50246" lon="6.93815">
        <ele>72.310997009277</ele>
        <time>2017-10-22T07:24:39Z</time>
      </trkpt>
      <trkpt lat="43.50238" lon="6.93818">
        <ele>72.310997009277</ele>
        <time>2017-10-22T07:24:44Z</time>
      </trkpt>
      <trkpt lat="43.5023" lon="6.93822">
        <ele>73.310997009277</ele>
        <time>2017-10-22T07:24:49Z</time>
      </trkpt>
      <trkpt lat="43.50223" lon="6.93826">
        <ele>75.310997009277</ele>
        <time>2017-10-22T07:24:54Z</time>
      </trkpt>
      <trkpt lat="43.50216" lon="6.93831">
        <ele>76.310997009277</ele>
        <time>2017-10-22T07:24:59Z</time>
      </trkpt>
      <trkpt lat="43.50207" lon="6.93834">
        <ele>75.310997009277</ele>
        <time>2017-10-22T07:25:04Z</time>
      </trkpt>
      <trkpt lat="43.50199" lon="6.93837">
        <ele>76.310997009277</ele>
        <time>2017-10-22T07:25:10Z</time>
      </trkpt>
      <trkpt lat="43.50191" lon="6.93837">
        <ele>78.310997009277</ele>
        <time>2017-10-22T07:25:15Z</time>
      </trkpt>
      <trkpt lat="43.50177" lon="6.93828">
        <ele>81.310997009277</ele>
        <time>2017-10-22T07:25:25Z</time>
      </trkpt>
      <trkpt lat="43.50168" lon="6.9383">
        <ele>81.310997009277</ele>
        <time>2017-10-22T07:25:30Z</time>
      </trkpt>
      <trkpt lat="43.50161" lon="6.93837">
        <ele>81.310997009277</ele>
        <time>2017-10-22T07:25:35Z</time>
      </trkpt>
      <trkpt lat="43.50153" lon="6.93842">
        <ele>81.310997009277</ele>
        <time>2017-10-22T07:25:40Z</time>
      </trkpt>
      <trkpt lat="43.50146" lon="6.93846">
        <ele>82.310997009277</ele>
        <time>2017-10-22T07:25:45Z</time>
      </trkpt>
      <trkpt lat="43.50139" lon="6.93846">
        <ele>84.310997009277</ele>
        <time>2017-10-22T07:25:50Z</time>
      </trkpt>
      <trkpt lat="43.50124" lon="6.93841">
        <ele>85.310997009277</ele>
        <time>2017-10-22T07:25:58Z</time>
      </trkpt>
      <trkpt lat="43.50116" lon="6.93843">
        <ele>86.310997009277</ele>
        <time>2017-10-22T07:26:03Z</time>
      </trkpt>
      <trkpt lat="43.5011" lon="6.9385">
        <ele>86.310997009277</ele>
        <time>2017-10-22T07:26:09Z</time>
      </trkpt>
      <trkpt lat="43.50102" lon="6.93869">
        <ele>87.310997009277</ele>
        <time>2017-10-22T07:26:19Z</time>
      </trkpt>
      <trkpt lat="43.50098" lon="6.93879">
        <ele>89.310997009277</ele>
        <time>2017-10-22T07:26:24Z</time>
      </trkpt>
      <trkpt lat="43.50096" lon="6.93889">
        <ele>92.310997009277</ele>
        <time>2017-10-22T07:26:29Z</time>
      </trkpt>
      <trkpt lat="43.50089" lon="6.9391">
        <ele>92.310997009277</ele>
        <time>2017-10-22T07:26:39Z</time>
      </trkpt>
      <trkpt lat="43.50088" lon="6.93921">
        <ele>92.310997009277</ele>
        <time>2017-10-22T07:26:45Z</time>
      </trkpt>
      <trkpt lat="43.50085" lon="6.93931">
        <ele>93.310997009277</ele>
        <time>2017-10-22T07:26:49Z</time>
      </trkpt>
      <trkpt lat="43.50083" lon="6.93942">
        <ele>93.310997009277</ele>
        <time>2017-10-22T07:26:54Z</time>
      </trkpt>
      <trkpt lat="43.50084" lon="6.93952">
        <ele>95.311996459961</ele>
        <time>2017-10-22T07:27:00Z</time>
      </trkpt>
      <trkpt lat="43.50081" lon="6.93963">
        <ele>95.311996459961</ele>
        <time>2017-10-22T07:27:06Z</time>
      </trkpt>
      <trkpt lat="43.50085" lon="6.93972">
        <ele>96.311996459961</ele>
        <time>2017-10-22T07:27:12Z</time>
      </trkpt>
      <trkpt lat="43.50094" lon="6.93975">
        <ele>99.311996459961</ele>
        <time>2017-10-22T07:27:18Z</time>
      </trkpt>
      <trkpt lat="43.50097" lon="6.93965">
        <ele>101.31199645996</ele>
        <time>2017-10-22T07:27:23Z</time>
      </trkpt>
      <trkpt lat="43.501" lon="6.93944">
        <ele>102.31199645996</ele>
        <time>2017-10-22T07:27:31Z</time>
      </trkpt>
      <trkpt lat="43.50103" lon="6.93933">
        <ele>101.31199645996</ele>
        <time>2017-10-22T07:27:36Z</time>
      </trkpt>
      <trkpt lat="43.50112" lon="6.93913">
        <ele>103.31099700928</ele>
        <time>2017-10-22T07:27:45Z</time>
      </trkpt>
      <trkpt lat="43.50128" lon="6.93914">
        <ele>105.31199645996</ele>
        <time>2017-10-22T07:27:54Z</time>
      </trkpt>
      <trkpt lat="43.50134" lon="6.93922">
        <ele>107.31199645996</ele>
        <time>2017-10-22T07:27:59Z</time>
      </trkpt>
      <trkpt lat="43.5014" lon="6.93931">
        <ele>107.31199645996</ele>
        <time>2017-10-22T07:28:04Z</time>
      </trkpt>
      <trkpt lat="43.50147" lon="6.93937">
        <ele>108.31199645996</ele>
        <time>2017-10-22T07:28:09Z</time>
      </trkpt>
      <trkpt lat="43.50155" lon="6.93937">
        <ele>111.31199645996</ele>
        <time>2017-10-22T07:28:14Z</time>
      </trkpt>
      <trkpt lat="43.50163" lon="6.93939">
        <ele>113.31199645996</ele>
        <time>2017-10-22T07:28:19Z</time>
      </trkpt>
      <trkpt lat="43.50171" lon="6.93942">
        <ele>116.31199645996</ele>
        <time>2017-10-22T07:28:25Z</time>
      </trkpt>
      <trkpt lat="43.50178" lon="6.93944">
        <ele>115.31199645996</ele>
        <time>2017-10-22T07:28:30Z</time>
      </trkpt>
      <trkpt lat="43.50186" lon="6.93946">
        <ele>115.31199645996</ele>
        <time>2017-10-22T07:28:35Z</time>
      </trkpt>
      <trkpt lat="43.50194" lon="6.93949">
        <ele>116.31199645996</ele>
        <time>2017-10-22T07:28:40Z</time>
      </trkpt>
      <trkpt lat="43.50199" lon="6.93956">
        <ele>116.31199645996</ele>
        <time>2017-10-22T07:28:46Z</time>
      </trkpt>
      <trkpt lat="43.50204" lon="6.93964">
        <ele>114.31199645996</ele>
        <time>2017-10-22T07:28:51Z</time>
      </trkpt>
      <trkpt lat="43.50212" lon="6.93969">
        <ele>117.31199645996</ele>
        <time>2017-10-22T07:28:57Z</time>
      </trkpt>
      <trkpt lat="43.50219" lon="6.93973">
        <ele>116.31199645996</ele>
        <time>2017-10-22T07:29:03Z</time>
      </trkpt>
      <trkpt lat="43.50228" lon="6.93973">
        <ele>119.31199645996</ele>
        <time>2017-10-22T07:29:08Z</time>
      </trkpt>
      <trkpt lat="43.50236" lon="6.93972">
        <ele>120.31199645996</ele>
        <time>2017-10-22T07:29:14Z</time>
      </trkpt>
      <trkpt lat="43.50243" lon="6.93971">
        <ele>121.31199645996</ele>
        <time>2017-10-22T07:29:19Z</time>
      </trkpt>
      <trkpt lat="43.50257" lon="6.93982">
        <ele>125.31199645996</ele>
        <time>2017-10-22T07:29:28Z</time>
      </trkpt>
      <trkpt lat="43.5027" lon="6.93995">
        <ele>123.31199645996</ele>
        <time>2017-10-22T07:29:37Z</time>
      </trkpt>
      <trkpt lat="43.50275" lon="6.94001">
        <ele>125.31199645996</ele>
        <time>2017-10-22T07:29:42Z</time>
      </trkpt>
      <trkpt lat="43.50281" lon="6.9401">
        <ele>123.31199645996</ele>
        <time>2017-10-22T07:29:47Z</time>
      </trkpt>
      <trkpt lat="43.50285" lon="6.94019">
        <ele>125.31199645996</ele>
        <time>2017-10-22T07:29:52Z</time>
      </trkpt>
      <trkpt lat="43.50291" lon="6.94028">
        <ele>125.31199645996</ele>
        <time>2017-10-22T07:29:57Z</time>
      </trkpt>
      <trkpt lat="43.50297" lon="6.94035">
        <ele>127.31199645996</ele>
        <time>2017-10-22T07:30:03Z</time>
      </trkpt>
      <trkpt lat="43.50292" lon="6.94044">
        <ele>130.31199645996</ele>
        <time>2017-10-22T07:30:12Z</time>
      </trkpt>
      <trkpt lat="43.50284" lon="6.94047">
        <ele>132.31199645996</ele>
        <time>2017-10-22T07:30:19Z</time>
      </trkpt>
      <trkpt lat="43.50277" lon="6.9405">
        <ele>133.31199645996</ele>
        <time>2017-10-22T07:30:27Z</time>
      </trkpt>
      <trkpt lat="43.50271" lon="6.94055">
        <ele>133.31199645996</ele>
        <time>2017-10-22T07:30:33Z</time>
      </trkpt>
      <trkpt lat="43.50264" lon="6.9406">
        <ele>136.31199645996</ele>
        <time>2017-10-22T07:30:39Z</time>
      </trkpt>
      <trkpt lat="43.50257" lon="6.94064">
        <ele>138.31199645996</ele>
        <time>2017-10-22T07:30:47Z</time>
      </trkpt>
      <trkpt lat="43.50251" lon="6.94072">
        <ele>137.31199645996</ele>
        <time>2017-10-22T07:30:53Z</time>
      </trkpt>
      <trkpt lat="43.50245" lon="6.94079">
        <ele>139.31199645996</ele>
        <time>2017-10-22T07:30:59Z</time>
      </trkpt>
      <trkpt lat="43.50239" lon="6.94085">
        <ele>139.31199645996</ele>
        <time>2017-10-22T07:31:04Z</time>
      </trkpt>
      <trkpt lat="43.50232" lon="6.94088">
        <ele>141.31199645996</ele>
        <time>2017-10-22T07:31:09Z</time>
      </trkpt>
      <trkpt lat="43.50226" lon="6.94096">
        <ele>140.31199645996</ele>
        <time>2017-10-22T07:31:15Z</time>
      </trkpt>
      <trkpt lat="43.50219" lon="6.94099">
        <ele>142.31199645996</ele>
        <time>2017-10-22T07:31:20Z</time>
      </trkpt>
      <trkpt lat="43.5021" lon="6.94099">
        <ele>143.31199645996</ele>
        <time>2017-10-22T07:31:25Z</time>
      </trkpt>
      <trkpt lat="43.50194" lon="6.94102">
        <ele>142.31199645996</ele>
        <time>2017-10-22T07:31:35Z</time>
      </trkpt>
      <trkpt lat="43.50185" lon="6.94101">
        <ele>144.31199645996</ele>
        <time>2017-10-22T07:31:41Z</time>
      </trkpt>
      <trkpt lat="43.50178" lon="6.94099">
        <ele>147.31199645996</ele>
        <time>2017-10-22T07:31:45Z</time>
      </trkpt>
      <trkpt lat="43.50168" lon="6.94095">
        <ele>148.31199645996</ele>
        <time>2017-10-22T07:31:52Z</time>
      </trkpt>
      <trkpt lat="43.50152" lon="6.94101">
        <ele>147.31199645996</ele>
        <time>2017-10-22T07:32:01Z</time>
      </trkpt>
      <trkpt lat="43.50145" lon="6.94105">
        <ele>149.31199645996</ele>
        <time>2017-10-22T07:32:07Z</time>
      </trkpt>
      <trkpt lat="43.50136" lon="6.94106">
        <ele>150.31199645996</ele>
        <time>2017-10-22T07:32:15Z</time>
      </trkpt>
      <trkpt lat="43.50128" lon="6.94108">
        <ele>154.31199645996</ele>
        <time>2017-10-22T07:32:23Z</time>
      </trkpt>
      <trkpt lat="43.50121" lon="6.94111">
        <ele>155.31199645996</ele>
        <time>2017-10-22T07:32:27Z</time>
      </trkpt>
      <trkpt lat="43.50115" lon="6.9412">
        <ele>151.31199645996</ele>
        <time>2017-10-22T07:32:33Z</time>
      </trkpt>
      <trkpt lat="43.50126" lon="6.94134">
        <ele>155.31199645996</ele>
        <time>2017-10-22T07:32:42Z</time>
      </trkpt>
      <trkpt lat="43.50138" lon="6.94147">
        <ele>154.31199645996</ele>
        <time>2017-10-22T07:32:50Z</time>
      </trkpt>
      <trkpt lat="43.50145" lon="6.94154">
        <ele>155.31199645996</ele>
        <time>2017-10-22T07:32:55Z</time>
      </trkpt>
      <trkpt lat="43.50152" lon="6.94162">
        <ele>155.31199645996</ele>
        <time>2017-10-22T07:33:01Z</time>
      </trkpt>
      <trkpt lat="43.50158" lon="6.94167">
        <ele>156.31199645996</ele>
        <time>2017-10-22T07:33:06Z</time>
      </trkpt>
      <trkpt lat="43.50165" lon="6.94174">
        <ele>158.31199645996</ele>
        <time>2017-10-22T07:33:12Z</time>
      </trkpt>
      <trkpt lat="43.50173" lon="6.94179">
        <ele>159.31199645996</ele>
        <time>2017-10-22T07:33:17Z</time>
      </trkpt>
      <trkpt lat="43.50189" lon="6.94184">
        <ele>159.31199645996</ele>
        <time>2017-10-22T07:33:25Z</time>
      </trkpt>
      <trkpt lat="43.50201" lon="6.94196">
        <ele>159.31199645996</ele>
        <time>2017-10-22T07:33:32Z</time>
      </trkpt>
      <trkpt lat="43.50213" lon="6.94217">
        <ele>156.31199645996</ele>
        <time>2017-10-22T07:33:38Z</time>
      </trkpt>
      <trkpt lat="43.50224" lon="6.94237">
        <ele>161.31199645996</ele>
        <time>2017-10-22T07:33:43Z</time>
      </trkpt>
      <trkpt lat="43.50234" lon="6.94259">
        <ele>160.31199645996</ele>
        <time>2017-10-22T07:33:48Z</time>
      </trkpt>
      <trkpt lat="43.50245" lon="6.94277">
        <ele>161.31300354004</ele>
        <time>2017-10-22T07:33:54Z</time>
      </trkpt>
      <trkpt lat="43.50253" lon="6.94296">
        <ele>165.31300354004</ele>
        <time>2017-10-22T07:34:01Z</time>
      </trkpt>
      <trkpt lat="43.5026" lon="6.94317">
        <ele>161.31300354004</ele>
        <time>2017-10-22T07:34:07Z</time>
      </trkpt>
      <trkpt lat="43.50267" lon="6.9434">
        <ele>163.31300354004</ele>
        <time>2017-10-22T07:34:13Z</time>
      </trkpt>
      <trkpt lat="43.50272" lon="6.9436">
        <ele>163.31300354004</ele>
        <time>2017-10-22T07:34:18Z</time>
      </trkpt>
      <trkpt lat="43.5028" lon="6.94383">
        <ele>163.31300354004</ele>
        <time>2017-10-22T07:34:24Z</time>
      </trkpt>
      <trkpt lat="43.50283" lon="6.94407">
        <ele>162.31300354004</ele>
        <time>2017-10-22T07:34:31Z</time>
      </trkpt>
      <trkpt lat="43.5028" lon="6.94431">
        <ele>167.31300354004</ele>
        <time>2017-10-22T07:34:40Z</time>
      </trkpt>
      <trkpt lat="43.50279" lon="6.94442">
        <ele>169.31300354004</ele>
        <time>2017-10-22T07:34:45Z</time>
      </trkpt>
      <trkpt lat="43.50277" lon="6.94452">
        <ele>167.31300354004</ele>
        <time>2017-10-22T07:34:49Z</time>
      </trkpt>
      <trkpt lat="43.50275" lon="6.94473">
        <ele>168.31300354004</ele>
        <time>2017-10-22T07:34:57Z</time>
      </trkpt>
      <trkpt lat="43.50274" lon="6.94485">
        <ele>169.31300354004</ele>
        <time>2017-10-22T07:35:02Z</time>
      </trkpt>
      <trkpt lat="43.5027" lon="6.94505">
        <ele>171.31300354004</ele>
        <time>2017-10-22T07:35:12Z</time>
      </trkpt>
      <trkpt lat="43.50265" lon="6.94513">
        <ele>174.31300354004</ele>
        <time>2017-10-22T07:35:16Z</time>
      </trkpt>
      <trkpt lat="43.50257" lon="6.94513">
        <ele>177.31300354004</ele>
        <time>2017-10-22T07:35:21Z</time>
      </trkpt>
      <trkpt lat="43.50241" lon="6.94511">
        <ele>178.31300354004</ele>
        <time>2017-10-22T07:35:31Z</time>
      </trkpt>
      <trkpt lat="43.50232" lon="6.94511">
        <ele>179.31300354004</ele>
        <time>2017-10-22T07:35:37Z</time>
      </trkpt>
      <trkpt lat="43.50215" lon="6.9451">
        <ele>179.31300354004</ele>
        <time>2017-10-22T07:35:46Z</time>
      </trkpt>
      <trkpt lat="43.50206" lon="6.94512">
        <ele>179.31300354004</ele>
        <time>2017-10-22T07:35:52Z</time>
      </trkpt>
      <trkpt lat="43.502" lon="6.94517">
        <ele>181.31300354004</ele>
        <time>2017-10-22T07:35:57Z</time>
      </trkpt>
      <trkpt lat="43.50192" lon="6.9452">
        <ele>183.31300354004</ele>
        <time>2017-10-22T07:36:03Z</time>
      </trkpt>
      <trkpt lat="43.50185" lon="6.94523">
        <ele>184.31300354004</ele>
        <time>2017-10-22T07:36:09Z</time>
      </trkpt>
      <trkpt lat="43.50178" lon="6.94524">
        <ele>185.31300354004</ele>
        <time>2017-10-22T07:36:14Z</time>
      </trkpt>
      <trkpt lat="43.5017" lon="6.9453">
        <ele>183.31300354004</ele>
        <time>2017-10-22T07:36:20Z</time>
      </trkpt>
      <trkpt lat="43.50165" lon="6.94537">
        <ele>182.31300354004</ele>
        <time>2017-10-22T07:36:25Z</time>
      </trkpt>
      <trkpt lat="43.50158" lon="6.94544">
        <ele>184.31300354004</ele>
        <time>2017-10-22T07:36:31Z</time>
      </trkpt>
      <trkpt lat="43.50155" lon="6.94555">
        <ele>185.31300354004</ele>
        <time>2017-10-22T07:36:36Z</time>
      </trkpt>
      <trkpt lat="43.50147" lon="6.94556">
        <ele>187.31300354004</ele>
        <time>2017-10-22T07:36:42Z</time>
      </trkpt>
      <trkpt lat="43.50141" lon="6.94562">
        <ele>190.31300354004</ele>
        <time>2017-10-22T07:36:48Z</time>
      </trkpt>
      <trkpt lat="43.50136" lon="6.9457">
        <ele>192.31300354004</ele>
        <time>2017-10-22T07:36:54Z</time>
      </trkpt>
      <trkpt lat="43.50137" lon="6.94582">
        <ele>193.31300354004</ele>
        <time>2017-10-22T07:36:59Z</time>
      </trkpt>
      <trkpt lat="43.50134" lon="6.94592">
        <ele>192.31300354004</ele>
        <time>2017-10-22T07:37:04Z</time>
      </trkpt>
      <trkpt lat="43.50129" lon="6.94601">
        <ele>193.31300354004</ele>
        <time>2017-10-22T07:37:10Z</time>
      </trkpt>
      <trkpt lat="43.50124" lon="6.94609">
        <ele>194.31300354004</ele>
        <time>2017-10-22T07:37:16Z</time>
      </trkpt>
      <trkpt lat="43.5012" lon="6.94618">
        <ele>195.31300354004</ele>
        <time>2017-10-22T07:37:21Z</time>
      </trkpt>
      <trkpt lat="43.50116" lon="6.94627">
        <ele>197.31300354004</ele>
        <time>2017-10-22T07:37:27Z</time>
      </trkpt>
      <trkpt lat="43.50112" lon="6.94638">
        <ele>196.31300354004</ele>
        <time>2017-10-22T07:37:32Z</time>
      </trkpt>
      <trkpt lat="43.50107" lon="6.94646">
        <ele>197.31300354004</ele>
        <time>2017-10-22T07:37:38Z</time>
      </trkpt>
      <trkpt lat="43.50104" lon="6.94656">
        <ele>197.31300354004</ele>
        <time>2017-10-22T07:37:43Z</time>
      </trkpt>
      <trkpt lat="43.50101" lon="6.94665">
        <ele>200.31300354004</ele>
        <time>2017-10-22T07:37:49Z</time>
      </trkpt>
      <trkpt lat="43.50099" lon="6.94676">
        <ele>200.31300354004</ele>
        <time>2017-10-22T07:37:54Z</time>
      </trkpt>
      <trkpt lat="43.50095" lon="6.94686">
        <ele>201.31300354004</ele>
        <time>2017-10-22T07:37:59Z</time>
      </trkpt>
      <trkpt lat="43.50091" lon="6.94695">
        <ele>203.31300354004</ele>
        <time>2017-10-22T07:38:04Z</time>
      </trkpt>
      <trkpt lat="43.50087" lon="6.94704">
        <ele>204.31300354004</ele>
        <time>2017-10-22T07:38:09Z</time>
      </trkpt>
      <trkpt lat="43.50082" lon="6.94713">
        <ele>205.31300354004</ele>
        <time>2017-10-22T07:38:14Z</time>
      </trkpt>
      <trkpt lat="43.50078" lon="6.94724">
        <ele>204.31300354004</ele>
        <time>2017-10-22T07:38:19Z</time>
      </trkpt>
      <trkpt lat="43.50071" lon="6.94743">
        <ele>204.31300354004</ele>
        <time>2017-10-22T07:38:28Z</time>
      </trkpt>
      <trkpt lat="43.50067" lon="6.94765">
        <ele>206.31300354004</ele>
        <time>2017-10-22T07:38:36Z</time>
      </trkpt>
      <trkpt lat="43.50065" lon="6.94776">
        <ele>206.31300354004</ele>
        <time>2017-10-22T07:38:42Z</time>
      </trkpt>
      <trkpt lat="43.50061" lon="6.94785">
        <ele>206.31300354004</ele>
        <time>2017-10-22T07:38:47Z</time>
      </trkpt>
      <trkpt lat="43.50054" lon="6.94782">
        <ele>207.31300354004</ele>
        <time>2017-10-22T07:39:15Z</time>
      </trkpt>
      <trkpt lat="43.50053" lon="6.94771">
        <ele>210.31300354004</ele>
        <time>2017-10-22T07:39:27Z</time>
      </trkpt>
      <trkpt lat="43.50049" lon="6.94763">
        <ele>212.31300354004</ele>
        <time>2017-10-22T07:39:39Z</time>
      </trkpt>
      <trkpt lat="43.50049" lon="6.94753">
        <ele>216.31300354004</ele>
        <time>2017-10-22T07:39:52Z</time>
      </trkpt>
      <trkpt lat="43.50046" lon="6.94743">
        <ele>221.31300354004</ele>
        <time>2017-10-22T07:40:18Z</time>
      </trkpt>
      <trkpt lat="43.5004" lon="6.94734">
        <ele>221.31300354004</ele>
        <time>2017-10-22T07:40:43Z</time>
      </trkpt>
      <trkpt lat="43.50035" lon="6.94726">
        <ele>227.31300354004</ele>
        <time>2017-10-22T07:41:01Z</time>
      </trkpt>
      <trkpt lat="43.50029" lon="6.9472">
        <ele>226.31300354004</ele>
        <time>2017-10-22T07:41:12Z</time>
      </trkpt>
      <trkpt lat="43.50029" lon="6.94708">
        <ele>227.31300354004</ele>
        <time>2017-10-22T07:41:18Z</time>
      </trkpt>
      <trkpt lat="43.50023" lon="6.947">
        <ele>228.31300354004</ele>
        <time>2017-10-22T07:41:38Z</time>
      </trkpt>
      <trkpt lat="43.50019" lon="6.94692">
        <ele>226.31300354004</ele>
        <time>2017-10-22T07:41:54Z</time>
      </trkpt>
      <trkpt lat="43.50015" lon="6.94683">
        <ele>229.31300354004</ele>
        <time>2017-10-22T07:42:04Z</time>
      </trkpt>
      <trkpt lat="43.50011" lon="6.94674">
        <ele>191.31300354004</ele>
        <time>2017-10-22T07:42:15Z</time>
      </trkpt>
      <trkpt lat="43.50008" lon="6.94665">
        <ele>237.31300354004</ele>
        <time>2017-10-22T07:42:30Z</time>
      </trkpt>
      <trkpt lat="43.50006" lon="6.94654">
        <ele>242.31300354004</ele>
        <time>2017-10-22T07:42:45Z</time>
      </trkpt>
      <trkpt lat="43.50003" lon="6.94644">
        <ele>246.31300354004</ele>
        <time>2017-10-22T07:43:12Z</time>
      </trkpt>
      <trkpt lat="43.49998" lon="6.94637">
        <ele>246.31300354004</ele>
        <time>2017-10-22T07:43:21Z</time>
      </trkpt>
      <trkpt lat="43.49997" lon="6.94626">
        <ele>246.31300354004</ele>
        <time>2017-10-22T07:43:35Z</time>
      </trkpt>
      <trkpt lat="43.49993" lon="6.94616">
        <ele>246.31300354004</ele>
        <time>2017-10-22T07:43:45Z</time>
      </trkpt>
      <trkpt lat="43.4999" lon="6.94607">
        <ele>248.31300354004</ele>
        <time>2017-10-22T07:43:59Z</time>
      </trkpt>
      <trkpt lat="43.49987" lon="6.94597">
        <ele>249.31300354004</ele>
        <time>2017-10-22T07:44:06Z</time>
      </trkpt>
      <trkpt lat="43.4998" lon="6.94593">
        <ele>252.31300354004</ele>
        <time>2017-10-22T07:44:16Z</time>
      </trkpt>
      <trkpt lat="43.49972" lon="6.9459">
        <ele>253.31300354004</ele>
        <time>2017-10-22T07:44:26Z</time>
      </trkpt>
      <trkpt lat="43.49968" lon="6.94581">
        <ele>250.31300354004</ele>
        <time>2017-10-22T07:44:33Z</time>
      </trkpt>
      <trkpt lat="43.49965" lon="6.9457">
        <ele>252.31300354004</ele>
        <time>2017-10-22T07:44:42Z</time>
      </trkpt>
      <trkpt lat="43.49957" lon="6.94562">
        <ele>253.31300354004</ele>
        <time>2017-10-22T07:44:47Z</time>
      </trkpt>
      <trkpt lat="43.49951" lon="6.94558">
        <ele>256.31298828125</ele>
        <time>2017-10-22T07:45:16Z</time>
      </trkpt>
      <trkpt lat="43.49947" lon="6.94548">
        <ele>257.31298828125</ele>
        <time>2017-10-22T07:46:34Z</time>
      </trkpt>
      <trkpt lat="43.49948" lon="6.94527">
        <ele>253.31300354004</ele>
        <time>2017-10-22T07:46:40Z</time>
      </trkpt>
      <trkpt lat="43.49934" lon="6.94516">
        <ele>252.31300354004</ele>
        <time>2017-10-22T07:46:46Z</time>
      </trkpt>
      <trkpt lat="43.49925" lon="6.94512">
        <ele>251.31300354004</ele>
        <time>2017-10-22T07:46:50Z</time>
      </trkpt>
      <trkpt lat="43.49914" lon="6.94497">
        <ele>249.31199645996</ele>
        <time>2017-10-22T07:46:54Z</time>
      </trkpt>
      <trkpt lat="43.49905" lon="6.94479">
        <ele>250.31199645996</ele>
        <time>2017-10-22T07:46:59Z</time>
      </trkpt>
      <trkpt lat="43.49901" lon="6.94459">
        <ele>249.31199645996</ele>
        <time>2017-10-22T07:47:04Z</time>
      </trkpt>
      <trkpt lat="43.49904" lon="6.94444">
        <ele>246.31199645996</ele>
        <time>2017-10-22T07:47:11Z</time>
      </trkpt>
      <trkpt lat="43.49911" lon="6.94426">
        <ele>244.31199645996</ele>
        <time>2017-10-22T07:47:16Z</time>
      </trkpt>
      <trkpt lat="43.49906" lon="6.94399">
        <ele>243.31199645996</ele>
        <time>2017-10-22T07:47:22Z</time>
      </trkpt>
      <trkpt lat="43.49907" lon="6.94371">
        <ele>239.31199645996</ele>
        <time>2017-10-22T07:47:28Z</time>
      </trkpt>
      <trkpt lat="43.49923" lon="6.94358">
        <ele>238.31199645996</ele>
        <time>2017-10-22T07:47:34Z</time>
      </trkpt>
      <trkpt lat="43.49929" lon="6.94334">
        <ele>233.31199645996</ele>
        <time>2017-10-22T07:47:40Z</time>
      </trkpt>
      <trkpt lat="43.4995" lon="6.94336">
        <ele>224.31199645996</ele>
        <time>2017-10-22T07:47:45Z</time>
      </trkpt>
      <trkpt lat="43.49958" lon="6.94339">
        <ele>223.31199645996</ele>
        <time>2017-10-22T07:47:47Z</time>
      </trkpt>
      <trkpt lat="43.49979" lon="6.94342">
        <ele>220.31199645996</ele>
        <time>2017-10-22T07:47:51Z</time>
      </trkpt>
      <trkpt lat="43.50005" lon="6.9435">
        <ele>218.31199645996</ele>
        <time>2017-10-22T07:47:57Z</time>
      </trkpt>
      <trkpt lat="43.50032" lon="6.94357">
        <ele>211.31199645996</ele>
        <time>2017-10-22T07:48:03Z</time>
      </trkpt>
      <trkpt lat="43.5003" lon="6.94335">
        <ele>207.31199645996</ele>
        <time>2017-10-22T07:48:09Z</time>
      </trkpt>
      <trkpt lat="43.50032" lon="6.94316">
        <ele>204.31199645996</ele>
        <time>2017-10-22T07:48:14Z</time>
      </trkpt>
      <trkpt lat="43.50045" lon="6.94297">
        <ele>202.31199645996</ele>
        <time>2017-10-22T07:48:20Z</time>
      </trkpt>
      <trkpt lat="43.5006" lon="6.94294">
        <ele>199.31199645996</ele>
        <time>2017-10-22T07:48:26Z</time>
      </trkpt>
      <trkpt lat="43.50066" lon="6.94283">
        <ele>196.31199645996</ele>
        <time>2017-10-22T07:48:34Z</time>
      </trkpt>
      <trkpt lat="43.5006" lon="6.94242">
        <ele>186.31199645996</ele>
        <time>2017-10-22T07:48:40Z</time>
      </trkpt>
      <trkpt lat="43.5004" lon="6.94218">
        <ele>186.31199645996</ele>
        <time>2017-10-22T07:48:46Z</time>
      </trkpt>
      <trkpt lat="43.50021" lon="6.94211">
        <ele>186.31199645996</ele>
        <time>2017-10-22T07:48:52Z</time>
      </trkpt>
      <trkpt lat="43.50006" lon="6.94201">
        <ele>187.31199645996</ele>
        <time>2017-10-22T07:48:59Z</time>
      </trkpt>
      <trkpt lat="43.4999" lon="6.94186">
        <ele>186.31199645996</ele>
        <time>2017-10-22T07:49:04Z</time>
      </trkpt>
      <trkpt lat="43.49978" lon="6.94173">
        <ele>188.31199645996</ele>
        <time>2017-10-22T07:49:10Z</time>
      </trkpt>
      <trkpt lat="43.49966" lon="6.94159">
        <ele>189.31199645996</ele>
        <time>2017-10-22T07:49:16Z</time>
      </trkpt>
      <trkpt lat="43.49958" lon="6.94154">
        <ele>189.31199645996</ele>
        <time>2017-10-22T07:49:18Z</time>
      </trkpt>
      <trkpt lat="43.4994" lon="6.94147">
        <ele>185.31199645996</ele>
        <time>2017-10-22T07:49:23Z</time>
      </trkpt>
      <trkpt lat="43.49924" lon="6.94144">
        <ele>186.31199645996</ele>
        <time>2017-10-22T07:49:28Z</time>
      </trkpt>
      <trkpt lat="43.49906" lon="6.94143">
        <ele>186.31199645996</ele>
        <time>2017-10-22T07:49:34Z</time>
      </trkpt>
      <trkpt lat="43.49893" lon="6.94131">
        <ele>184.31199645996</ele>
        <time>2017-10-22T07:49:39Z</time>
      </trkpt>
      <trkpt lat="43.49876" lon="6.94128">
        <ele>182.31199645996</ele>
        <time>2017-10-22T07:49:44Z</time>
      </trkpt>
      <trkpt lat="43.49869" lon="6.94127">
        <ele>183.31199645996</ele>
        <time>2017-10-22T07:49:47Z</time>
      </trkpt>
      <trkpt lat="43.49852" lon="6.94129">
        <ele>184.31199645996</ele>
        <time>2017-10-22T07:49:54Z</time>
      </trkpt>
      <trkpt lat="43.49839" lon="6.9414">
        <ele>183.31199645996</ele>
        <time>2017-10-22T07:50:01Z</time>
      </trkpt>
      <trkpt lat="43.49823" lon="6.9415">
        <ele>184.31199645996</ele>
        <time>2017-10-22T07:50:09Z</time>
      </trkpt>
      <trkpt lat="43.49818" lon="6.94159">
        <ele>187.31199645996</ele>
        <time>2017-10-22T07:50:14Z</time>
      </trkpt>
      <trkpt lat="43.49811" lon="6.94165">
        <ele>187.31199645996</ele>
        <time>2017-10-22T07:50:18Z</time>
      </trkpt>
      <trkpt lat="43.49797" lon="6.94183">
        <ele>186.31199645996</ele>
        <time>2017-10-22T07:50:25Z</time>
      </trkpt>
      <trkpt lat="43.49781" lon="6.94184">
        <ele>189.31199645996</ele>
        <time>2017-10-22T07:50:32Z</time>
      </trkpt>
      <trkpt lat="43.49774" lon="6.94178">
        <ele>191.31199645996</ele>
        <time>2017-10-22T07:50:35Z</time>
      </trkpt>
      <trkpt lat="43.49758" lon="6.94168">
        <ele>186.31199645996</ele>
        <time>2017-10-22T07:50:40Z</time>
      </trkpt>
      <trkpt lat="43.49726" lon="6.94167">
        <ele>183.31100463867</ele>
        <time>2017-10-22T07:50:46Z</time>
      </trkpt>
      <trkpt lat="43.4972" lon="6.94146">
        <ele>177.31100463867</ele>
        <time>2017-10-22T07:50:55Z</time>
      </trkpt>
      <trkpt lat="43.49708" lon="6.9413">
        <ele>175.31100463867</ele>
        <time>2017-10-22T07:51:00Z</time>
      </trkpt>
      <trkpt lat="43.49698" lon="6.94111">
        <ele>172.31100463867</ele>
        <time>2017-10-22T07:51:05Z</time>
      </trkpt>
      <trkpt lat="43.49689" lon="6.94105">
        <ele>171.31100463867</ele>
        <time>2017-10-22T07:51:16Z</time>
      </trkpt>
      <trkpt lat="43.49682" lon="6.94097">
        <ele>168.31100463867</ele>
        <time>2017-10-22T07:51:19Z</time>
      </trkpt>
      <trkpt lat="43.49674" lon="6.94074">
        <ele>165.31100463867</ele>
        <time>2017-10-22T07:51:24Z</time>
      </trkpt>
      <trkpt lat="43.49672" lon="6.94041">
        <ele>163.31100463867</ele>
        <time>2017-10-22T07:51:31Z</time>
      </trkpt>
      <trkpt lat="43.49678" lon="6.94015">
        <ele>159.31100463867</ele>
        <time>2017-10-22T07:51:38Z</time>
      </trkpt>
      <trkpt lat="43.49679" lon="6.93991">
        <ele>156.31100463867</ele>
        <time>2017-10-22T07:51:44Z</time>
      </trkpt>
      <trkpt lat="43.49678" lon="6.9397">
        <ele>152.31100463867</ele>
        <time>2017-10-22T07:51:53Z</time>
      </trkpt>
      <trkpt lat="43.49667" lon="6.93955">
        <ele>146.31100463867</ele>
        <time>2017-10-22T07:51:59Z</time>
      </trkpt>
      <trkpt lat="43.49653" lon="6.93943">
        <ele>143.31100463867</ele>
        <time>2017-10-22T07:52:06Z</time>
      </trkpt>
      <trkpt lat="43.49642" lon="6.93916">
        <ele>140.31100463867</ele>
        <time>2017-10-22T07:52:12Z</time>
      </trkpt>
      <trkpt lat="43.49651" lon="6.93893">
        <ele>135.31100463867</ele>
        <time>2017-10-22T07:52:17Z</time>
      </trkpt>
      <trkpt lat="43.49666" lon="6.93865">
        <ele>131.31100463867</ele>
        <time>2017-10-22T07:52:24Z</time>
      </trkpt>
      <trkpt lat="43.49674" lon="6.93836">
        <ele>127.31099700928</ele>
        <time>2017-10-22T07:52:30Z</time>
      </trkpt>
      <trkpt lat="43.49684" lon="6.93815">
        <ele>124.31099700928</ele>
        <time>2017-10-22T07:52:35Z</time>
      </trkpt>
      <trkpt lat="43.49702" lon="6.93787">
        <ele>121.31099700928</ele>
        <time>2017-10-22T07:52:41Z</time>
      </trkpt>
      <trkpt lat="43.49714" lon="6.93771">
        <ele>117.31099700928</ele>
        <time>2017-10-22T07:52:46Z</time>
      </trkpt>
      <trkpt lat="43.49726" lon="6.93759">
        <ele>114.31099700928</ele>
        <time>2017-10-22T07:52:53Z</time>
      </trkpt>
      <trkpt lat="43.49746" lon="6.93758">
        <ele>107.31099700928</ele>
        <time>2017-10-22T07:52:59Z</time>
      </trkpt>
      <trkpt lat="43.49753" lon="6.93762">
        <ele>108.31099700928</ele>
        <time>2017-10-22T07:53:05Z</time>
      </trkpt>
      <trkpt lat="43.49768" lon="6.93759">
        <ele>104.31099700928</ele>
        <time>2017-10-22T07:53:13Z</time>
      </trkpt>
      <trkpt lat="43.4978" lon="6.9374">
        <ele>96.310997009277</ele>
        <time>2017-10-22T07:53:19Z</time>
      </trkpt>
      <trkpt lat="43.49781" lon="6.93718">
        <ele>92.310997009277</ele>
        <time>2017-10-22T07:53:25Z</time>
      </trkpt>
      <trkpt lat="43.49784" lon="6.93695">
        <ele>90.309997558594</ele>
        <time>2017-10-22T07:53:34Z</time>
      </trkpt>
      <trkpt lat="43.4979" lon="6.93689">
        <ele>80.309997558594</ele>
        <time>2017-10-22T07:53:43Z</time>
      </trkpt>
      <trkpt lat="43.4979" lon="6.93679">
        <ele>82.309997558594</ele>
        <time>2017-10-22T07:53:48Z</time>
      </trkpt>
      <trkpt lat="43.49785" lon="6.93671">
        <ele>82.309997558594</ele>
        <time>2017-10-22T07:53:53Z</time>
      </trkpt>
      <trkpt lat="43.49771" lon="6.93659">
        <ele>79.309997558594</ele>
        <time>2017-10-22T07:54:01Z</time>
      </trkpt>
      <trkpt lat="43.49767" lon="6.93637">
        <ele>71.309997558594</ele>
        <time>2017-10-22T07:54:08Z</time>
      </trkpt>
      <trkpt lat="43.49781" lon="6.93631">
        <ele>64.309997558594</ele>
        <time>2017-10-22T07:54:16Z</time>
      </trkpt>
      <trkpt lat="43.49779" lon="6.93621">
        <ele>62.310001373291</ele>
        <time>2017-10-22T07:54:27Z</time>
      </trkpt>
      <trkpt lat="43.49768" lon="6.93606">
        <ele>63.310001373291</ele>
        <time>2017-10-22T07:54:37Z</time>
      </trkpt>
      <trkpt lat="43.49763" lon="6.93599">
        <ele>62.310001373291</ele>
        <time>2017-10-22T07:54:42Z</time>
      </trkpt>
      <trkpt lat="43.49758" lon="6.93591">
        <ele>59.310001373291</ele>
        <time>2017-10-22T07:55:15Z</time>
      </trkpt>
      <trkpt lat="43.49754" lon="6.93582">
        <ele>61.310001373291</ele>
        <time>2017-10-22T07:55:20Z</time>
      </trkpt>
      <trkpt lat="43.49742" lon="6.93567">
        <ele>63.310001373291</ele>
        <time>2017-10-22T07:55:27Z</time>
      </trkpt>
      <trkpt lat="43.49726" lon="6.93563">
        <ele>64.309997558594</ele>
        <time>2017-10-22T07:55:34Z</time>
      </trkpt>
      <trkpt lat="43.4971" lon="6.9356">
        <ele>63.310001373291</ele>
        <time>2017-10-22T07:55:40Z</time>
      </trkpt>
      <trkpt lat="43.49694" lon="6.93567">
        <ele>62.310001373291</ele>
        <time>2017-10-22T07:55:45Z</time>
      </trkpt>
      <trkpt lat="43.4968" lon="6.93583">
        <ele>62.310001373291</ele>
        <time>2017-10-22T07:55:51Z</time>
      </trkpt>
      <trkpt lat="43.49667" lon="6.93605">
        <ele>61.310001373291</ele>
        <time>2017-10-22T07:55:57Z</time>
      </trkpt>
      <trkpt lat="43.49654" lon="6.93626">
        <ele>62.310001373291</ele>
        <time>2017-10-22T07:56:03Z</time>
      </trkpt>
      <trkpt lat="43.49636" lon="6.93648">
        <ele>64.309997558594</ele>
        <time>2017-10-22T07:56:10Z</time>
      </trkpt>
      <trkpt lat="43.4962" lon="6.93662">
        <ele>64.309997558594</ele>
        <time>2017-10-22T07:56:16Z</time>
      </trkpt>
      <trkpt lat="43.49612" lon="6.93648">
        <ele>63.310001373291</ele>
        <time>2017-10-22T07:56:22Z</time>
      </trkpt>
      <trkpt lat="43.4962" lon="6.93628">
        <ele>64.309997558594</ele>
        <time>2017-10-22T07:56:28Z</time>
      </trkpt>
      <trkpt lat="43.49629" lon="6.93606">
        <ele>66.309997558594</ele>
        <time>2017-10-22T07:56:34Z</time>
      </trkpt>
      <trkpt lat="43.49636" lon="6.93583">
        <ele>66.309997558594</ele>
        <time>2017-10-22T07:56:40Z</time>
      </trkpt>
      <trkpt lat="43.49641" lon="6.93564">
        <ele>70.309997558594</ele>
        <time>2017-10-22T07:56:46Z</time>
      </trkpt>
      <trkpt lat="43.49648" lon="6.93542">
        <ele>71.309997558594</ele>
        <time>2017-10-22T07:56:54Z</time>
      </trkpt>
      <trkpt lat="43.49658" lon="6.9352">
        <ele>71.309997558594</ele>
        <time>2017-10-22T07:57:02Z</time>
      </trkpt>
      <trkpt lat="43.49665" lon="6.93501">
        <ele>73.309997558594</ele>
        <time>2017-10-22T07:57:11Z</time>
      </trkpt>
      <trkpt lat="43.49668" lon="6.93491">
        <ele>72.309997558594</ele>
        <time>2017-10-22T07:57:16Z</time>
      </trkpt>
      <trkpt lat="43.49668" lon="6.9348">
        <ele>74.309997558594</ele>
        <time>2017-10-22T07:57:21Z</time>
      </trkpt>
      <trkpt lat="43.49666" lon="6.93469">
        <ele>74.309997558594</ele>
        <time>2017-10-22T07:57:26Z</time>
      </trkpt>
      <trkpt lat="43.49658" lon="6.9345">
        <ele>53.310001373291</ele>
        <time>2017-10-22T07:57:36Z</time>
      </trkpt>
      <trkpt lat="43.49657" lon="6.9344">
        <ele>74.309997558594</ele>
        <time>2017-10-22T07:57:42Z</time>
      </trkpt>
      <trkpt lat="43.49652" lon="6.93432">
        <ele>74.309997558594</ele>
        <time>2017-10-22T07:57:48Z</time>
      </trkpt>
      <trkpt lat="43.49648" lon="6.93422">
        <ele>76.309997558594</ele>
        <time>2017-10-22T07:57:53Z</time>
      </trkpt>
      <trkpt lat="43.49644" lon="6.93413">
        <ele>76.309997558594</ele>
        <time>2017-10-22T07:57:59Z</time>
      </trkpt>
      <trkpt lat="43.49639" lon="6.93404">
        <ele>80.309997558594</ele>
        <time>2017-10-22T07:58:07Z</time>
      </trkpt>
      <trkpt lat="43.49634" lon="6.93395">
        <ele>81.309997558594</ele>
        <time>2017-10-22T07:58:13Z</time>
      </trkpt>
      <trkpt lat="43.49628" lon="6.93388">
        <ele>83.309997558594</ele>
        <time>2017-10-22T07:58:19Z</time>
      </trkpt>
      <trkpt lat="43.49621" lon="6.93383">
        <ele>84.309997558594</ele>
        <time>2017-10-22T07:58:24Z</time>
      </trkpt>
      <trkpt lat="43.49614" lon="6.93378">
        <ele>85.309997558594</ele>
        <time>2017-10-22T07:58:29Z</time>
      </trkpt>
      <trkpt lat="43.49606" lon="6.93374">
        <ele>86.30899810791</ele>
        <time>2017-10-22T07:58:35Z</time>
      </trkpt>
      <trkpt lat="43.49599" lon="6.9337">
        <ele>86.30899810791</ele>
        <time>2017-10-22T07:58:41Z</time>
      </trkpt>
      <trkpt lat="43.49591" lon="6.93368">
        <ele>87.30899810791</ele>
        <time>2017-10-22T07:58:46Z</time>
      </trkpt>
      <trkpt lat="43.49583" lon="6.93367">
        <ele>88.30899810791</ele>
        <time>2017-10-22T07:58:51Z</time>
      </trkpt>
      <trkpt lat="43.49571" lon="6.93353">
        <ele>89.30899810791</ele>
        <time>2017-10-22T07:59:00Z</time>
      </trkpt>
      <trkpt lat="43.49574" lon="6.93342">
        <ele>90.30899810791</ele>
        <time>2017-10-22T07:59:05Z</time>
      </trkpt>
      <trkpt lat="43.49581" lon="6.93335">
        <ele>90.30899810791</ele>
        <time>2017-10-22T07:59:10Z</time>
      </trkpt>
      <trkpt lat="43.49594" lon="6.93325">
        <ele>90.30899810791</ele>
        <time>2017-10-22T07:59:18Z</time>
      </trkpt>
      <trkpt lat="43.49609" lon="6.93317">
        <ele>92.30899810791</ele>
        <time>2017-10-22T07:59:26Z</time>
      </trkpt>
      <trkpt lat="43.4962" lon="6.93298">
        <ele>94.30899810791</ele>
        <time>2017-10-22T07:59:34Z</time>
      </trkpt>
      <trkpt lat="43.49622" lon="6.93275">
        <ele>94.30899810791</ele>
        <time>2017-10-22T07:59:43Z</time>
      </trkpt>
      <trkpt lat="43.49619" lon="6.93255">
        <ele>96.30899810791</ele>
        <time>2017-10-22T07:59:51Z</time>
      </trkpt>
      <trkpt lat="43.49608" lon="6.9324">
        <ele>97.30899810791</ele>
        <time>2017-10-22T08:00:00Z</time>
      </trkpt>
      <trkpt lat="43.49594" lon="6.93225">
        <ele>96.30899810791</ele>
        <time>2017-10-22T08:00:08Z</time>
      </trkpt>
      <trkpt lat="43.49578" lon="6.93208">
        <ele>96.30899810791</ele>
        <time>2017-10-22T08:00:16Z</time>
      </trkpt>
      <trkpt lat="43.49582" lon="6.93186">
        <ele>98.30899810791</ele>
        <time>2017-10-22T08:00:23Z</time>
      </trkpt>
      <trkpt lat="43.49594" lon="6.93172">
        <ele>100.30899810791</ele>
        <time>2017-10-22T08:00:30Z</time>
      </trkpt>
      <trkpt lat="43.4961" lon="6.93158">
        <ele>101.30899810791</ele>
        <time>2017-10-22T08:00:38Z</time>
      </trkpt>
      <trkpt lat="43.4962" lon="6.93142">
        <ele>101.30899810791</ele>
        <time>2017-10-22T08:00:46Z</time>
      </trkpt>
      <trkpt lat="43.49625" lon="6.93132">
        <ele>102.30899810791</ele>
        <time>2017-10-22T08:00:51Z</time>
      </trkpt>
      <trkpt lat="43.4963" lon="6.93112">
        <ele>103.30899810791</ele>
        <time>2017-10-22T08:00:59Z</time>
      </trkpt>
      <trkpt lat="43.49634" lon="6.9309">
        <ele>103.30899810791</ele>
        <time>2017-10-22T08:01:08Z</time>
      </trkpt>
      <trkpt lat="43.49637" lon="6.93069">
        <ele>104.30899810791</ele>
        <time>2017-10-22T08:01:18Z</time>
      </trkpt>
      <trkpt lat="43.49636" lon="6.93056">
        <ele>105.30899810791</ele>
        <time>2017-10-22T08:01:23Z</time>
      </trkpt>
      <trkpt lat="43.4963" lon="6.93048">
        <ele>106.30899810791</ele>
        <time>2017-10-22T08:01:28Z</time>
      </trkpt>
      <trkpt lat="43.49624" lon="6.93044">
        <ele>108.30899810791</ele>
        <time>2017-10-22T08:01:33Z</time>
      </trkpt>
      <trkpt lat="43.49616" lon="6.9304">
        <ele>108.30899810791</ele>
        <time>2017-10-22T08:01:38Z</time>
      </trkpt>
      <trkpt lat="43.49601" lon="6.93032">
        <ele>110.30899810791</ele>
        <time>2017-10-22T08:01:46Z</time>
      </trkpt>
      <trkpt lat="43.4959" lon="6.93019">
        <ele>108.30899810791</ele>
        <time>2017-10-22T08:01:52Z</time>
      </trkpt>
      <trkpt lat="43.49594" lon="6.92995">
        <ele>110.30899810791</ele>
        <time>2017-10-22T08:02:00Z</time>
      </trkpt>
      <trkpt lat="43.49592" lon="6.92974">
        <ele>111.30899810791</ele>
        <time>2017-10-22T08:02:09Z</time>
      </trkpt>
      <trkpt lat="43.49582" lon="6.92957">
        <ele>110.30899810791</ele>
        <time>2017-10-22T08:02:17Z</time>
      </trkpt>
      <trkpt lat="43.49576" lon="6.92936">
        <ele>111.30799865723</ele>
        <time>2017-10-22T08:02:26Z</time>
      </trkpt>
      <trkpt lat="43.49571" lon="6.92928">
        <ele>110.30799865723</ele>
        <time>2017-10-22T08:02:30Z</time>
      </trkpt>
      <trkpt lat="43.4957" lon="6.92917">
        <ele>111.30799865723</ele>
        <time>2017-10-22T08:02:35Z</time>
      </trkpt>
      <trkpt lat="43.49565" lon="6.92908">
        <ele>113.30799865723</ele>
        <time>2017-10-22T08:02:40Z</time>
      </trkpt>
      <trkpt lat="43.49553" lon="6.92896">
        <ele>113.30799865723</ele>
        <time>2017-10-22T08:02:49Z</time>
      </trkpt>
      <trkpt lat="43.49548" lon="6.92887">
        <ele>114.30799865723</ele>
        <time>2017-10-22T08:02:56Z</time>
      </trkpt>
      <trkpt lat="43.49541" lon="6.92879">
        <ele>115.30799865723</ele>
        <time>2017-10-22T08:03:02Z</time>
      </trkpt>
      <trkpt lat="43.49531" lon="6.92864">
        <ele>116.30799865723</ele>
        <time>2017-10-22T08:03:12Z</time>
      </trkpt>
      <trkpt lat="43.49526" lon="6.92856">
        <ele>119.30799865723</ele>
        <time>2017-10-22T08:03:19Z</time>
      </trkpt>
      <trkpt lat="43.4952" lon="6.9285">
        <ele>118.30799865723</ele>
        <time>2017-10-22T08:03:24Z</time>
      </trkpt>
      <trkpt lat="43.49505" lon="6.9284">
        <ele>117.30799865723</ele>
        <time>2017-10-22T08:03:33Z</time>
      </trkpt>
      <trkpt lat="43.49502" lon="6.9283">
        <ele>119.30799865723</ele>
        <time>2017-10-22T08:03:38Z</time>
      </trkpt>
      <trkpt lat="43.49502" lon="6.92819">
        <ele>122.30799865723</ele>
        <time>2017-10-22T08:03:44Z</time>
      </trkpt>
      <trkpt lat="43.49503" lon="6.92809">
        <ele>124.30799865723</ele>
        <time>2017-10-22T08:03:49Z</time>
      </trkpt>
      <trkpt lat="43.49501" lon="6.92799">
        <ele>127.30799865723</ele>
        <time>2017-10-22T08:03:55Z</time>
      </trkpt>
      <trkpt lat="43.49498" lon="6.92789">
        <ele>128.30799865723</ele>
        <time>2017-10-22T08:04:00Z</time>
      </trkpt>
      <trkpt lat="43.49492" lon="6.92782">
        <ele>129.30799865723</ele>
        <time>2017-10-22T08:04:05Z</time>
      </trkpt>
      <trkpt lat="43.49485" lon="6.92785">
        <ele>127.30799865723</ele>
        <time>2017-10-22T08:04:11Z</time>
      </trkpt>
      <trkpt lat="43.49481" lon="6.92794">
        <ele>126.30799865723</ele>
        <time>2017-10-22T08:04:17Z</time>
      </trkpt>
      <trkpt lat="43.49478" lon="6.92804">
        <ele>127.30799865723</ele>
        <time>2017-10-22T08:04:23Z</time>
      </trkpt>
      <trkpt lat="43.49471" lon="6.92811">
        <ele>127.30799865723</ele>
        <time>2017-10-22T08:04:29Z</time>
      </trkpt>
      <trkpt lat="43.49466" lon="6.92819">
        <ele>129.30799865723</ele>
        <time>2017-10-22T08:04:34Z</time>
      </trkpt>
      <trkpt lat="43.49461" lon="6.92827">
        <ele>129.30799865723</ele>
        <time>2017-10-22T08:04:39Z</time>
      </trkpt>
      <trkpt lat="43.49456" lon="6.92836">
        <ele>129.30799865723</ele>
        <time>2017-10-22T08:04:45Z</time>
      </trkpt>
      <trkpt lat="43.49449" lon="6.92841">
        <ele>130.30799865723</ele>
        <time>2017-10-22T08:04:50Z</time>
      </trkpt>
      <trkpt lat="43.49441" lon="6.9284">
        <ele>130.30799865723</ele>
        <time>2017-10-22T08:04:56Z</time>
      </trkpt>
      <trkpt lat="43.49433" lon="6.9284">
        <ele>130.30799865723</ele>
        <time>2017-10-22T08:05:02Z</time>
      </trkpt>
      <trkpt lat="43.49425" lon="6.92842">
        <ele>130.30799865723</ele>
        <time>2017-10-22T08:05:08Z</time>
      </trkpt>
      <trkpt lat="43.49418" lon="6.92845">
        <ele>131.30799865723</ele>
        <time>2017-10-22T08:05:13Z</time>
      </trkpt>
      <trkpt lat="43.49412" lon="6.92852">
        <ele>135.30799865723</ele>
        <time>2017-10-22T08:05:19Z</time>
      </trkpt>
      <trkpt lat="43.49406" lon="6.9286">
        <ele>136.30799865723</ele>
        <time>2017-10-22T08:05:25Z</time>
      </trkpt>
      <trkpt lat="43.49403" lon="6.9287">
        <ele>137.30799865723</ele>
        <time>2017-10-22T08:05:31Z</time>
      </trkpt>
      <trkpt lat="43.49401" lon="6.92881">
        <ele>139.30799865723</ele>
        <time>2017-10-22T08:05:37Z</time>
      </trkpt>
      <trkpt lat="43.49401" lon="6.92893">
        <ele>139.30799865723</ele>
        <time>2017-10-22T08:05:42Z</time>
      </trkpt>
      <trkpt lat="43.49403" lon="6.92904">
        <ele>139.30799865723</ele>
        <time>2017-10-22T08:05:48Z</time>
      </trkpt>
      <trkpt lat="43.49407" lon="6.92915">
        <ele>140.30799865723</ele>
        <time>2017-10-22T08:05:54Z</time>
      </trkpt>
      <trkpt lat="43.49411" lon="6.92924">
        <ele>141.30799865723</ele>
        <time>2017-10-22T08:06:01Z</time>
      </trkpt>
      <trkpt lat="43.49413" lon="6.92935">
        <ele>142.30799865723</ele>
        <time>2017-10-22T08:06:07Z</time>
      </trkpt>
      <trkpt lat="43.49412" lon="6.92946">
        <ele>143.30799865723</ele>
        <time>2017-10-22T08:06:13Z</time>
      </trkpt>
      <trkpt lat="43.49411" lon="6.92958">
        <ele>141.30799865723</ele>
        <time>2017-10-22T08:06:18Z</time>
      </trkpt>
      <trkpt lat="43.49406" lon="6.92968">
        <ele>143.30799865723</ele>
        <time>2017-10-22T08:06:24Z</time>
      </trkpt>
      <trkpt lat="43.49403" lon="6.92978">
        <ele>144.30799865723</ele>
        <time>2017-10-22T08:06:30Z</time>
      </trkpt>
      <trkpt lat="43.49404" lon="6.92989">
        <ele>146.30799865723</ele>
        <time>2017-10-22T08:06:36Z</time>
      </trkpt>
      <trkpt lat="43.49407" lon="6.92999">
        <ele>148.30799865723</ele>
        <time>2017-10-22T08:06:42Z</time>
      </trkpt>
      <trkpt lat="43.49407" lon="6.9301">
        <ele>149.30799865723</ele>
        <time>2017-10-22T08:06:48Z</time>
      </trkpt>
      <trkpt lat="43.49406" lon="6.9302">
        <ele>149.30799865723</ele>
        <time>2017-10-22T08:06:53Z</time>
      </trkpt>
      <trkpt lat="43.49406" lon="6.93032">
        <ele>151.30799865723</ele>
        <time>2017-10-22T08:06:59Z</time>
      </trkpt>
      <trkpt lat="43.49404" lon="6.93042">
        <ele>151.30799865723</ele>
        <time>2017-10-22T08:07:05Z</time>
      </trkpt>
      <trkpt lat="43.49401" lon="6.93052">
        <ele>151.30799865723</ele>
        <time>2017-10-22T08:07:10Z</time>
      </trkpt>
      <trkpt lat="43.49397" lon="6.93062">
        <ele>151.30799865723</ele>
        <time>2017-10-22T08:07:16Z</time>
      </trkpt>
      <trkpt lat="43.49393" lon="6.93072">
        <ele>152.30799865723</ele>
        <time>2017-10-22T08:07:22Z</time>
      </trkpt>
      <trkpt lat="43.49388" lon="6.9308">
        <ele>153.30799865723</ele>
        <time>2017-10-22T08:07:28Z</time>
      </trkpt>
      <trkpt lat="43.49383" lon="6.93088">
        <ele>154.30900573731</ele>
        <time>2017-10-22T08:07:34Z</time>
      </trkpt>
      <trkpt lat="43.49377" lon="6.93097">
        <ele>155.30900573731</ele>
        <time>2017-10-22T08:07:40Z</time>
      </trkpt>
      <trkpt lat="43.49372" lon="6.93106">
        <ele>155.30900573731</ele>
        <time>2017-10-22T08:07:46Z</time>
      </trkpt>
      <trkpt lat="43.49368" lon="6.93114">
        <ele>155.30900573731</ele>
        <time>2017-10-22T08:07:51Z</time>
      </trkpt>
      <trkpt lat="43.49364" lon="6.93123">
        <ele>156.30900573731</ele>
        <time>2017-10-22T08:07:56Z</time>
      </trkpt>
      <trkpt lat="43.4936" lon="6.93132">
        <ele>157.30900573731</ele>
        <time>2017-10-22T08:08:02Z</time>
      </trkpt>
      <trkpt lat="43.49357" lon="6.93142">
        <ele>157.30900573731</ele>
        <time>2017-10-22T08:08:07Z</time>
      </trkpt>
      <trkpt lat="43.49355" lon="6.93153">
        <ele>158.30900573731</ele>
        <time>2017-10-22T08:08:12Z</time>
      </trkpt>
      <trkpt lat="43.49354" lon="6.93165">
        <ele>159.30900573731</ele>
        <time>2017-10-22T08:08:18Z</time>
      </trkpt>
      <trkpt lat="43.49356" lon="6.93174">
        <ele>160.30900573731</ele>
        <time>2017-10-22T08:08:24Z</time>
      </trkpt>
      <trkpt lat="43.49359" lon="6.93183">
        <ele>161.30900573731</ele>
        <time>2017-10-22T08:08:29Z</time>
      </trkpt>
      <trkpt lat="43.49362" lon="6.93192">
        <ele>162.30900573731</ele>
        <time>2017-10-22T08:08:35Z</time>
      </trkpt>
      <trkpt lat="43.49367" lon="6.93202">
        <ele>162.30900573731</ele>
        <time>2017-10-22T08:08:41Z</time>
      </trkpt>
      <trkpt lat="43.49373" lon="6.93196">
        <ele>163.30900573731</ele>
        <time>2017-10-22T08:08:49Z</time>
      </trkpt>
      <trkpt lat="43.49371" lon="6.93184">
        <ele>161.30900573731</ele>
        <time>2017-10-22T08:08:57Z</time>
      </trkpt>
      <trkpt lat="43.4937" lon="6.93173">
        <ele>162.30900573731</ele>
        <time>2017-10-22T08:09:03Z</time>
      </trkpt>
      <trkpt lat="43.49373" lon="6.93163">
        <ele>164.30900573731</ele>
        <time>2017-10-22T08:09:09Z</time>
      </trkpt>
      <trkpt lat="43.49377" lon="6.93154">
        <ele>163.30900573731</ele>
        <time>2017-10-22T08:09:14Z</time>
      </trkpt>
      <trkpt lat="43.49382" lon="6.93145">
        <ele>165.30900573731</ele>
        <time>2017-10-22T08:09:19Z</time>
      </trkpt>
      <trkpt lat="43.49388" lon="6.93138">
        <ele>166.30900573731</ele>
        <time>2017-10-22T08:09:24Z</time>
      </trkpt>
      <trkpt lat="43.49394" lon="6.93132">
        <ele>168.30900573731</ele>
        <time>2017-10-22T08:09:30Z</time>
      </trkpt>
      <trkpt lat="43.49401" lon="6.93128">
        <ele>168.30900573731</ele>
        <time>2017-10-22T08:09:36Z</time>
      </trkpt>
      <trkpt lat="43.49408" lon="6.93124">
        <ele>169.30900573731</ele>
        <time>2017-10-22T08:09:42Z</time>
      </trkpt>
      <trkpt lat="43.49415" lon="6.9312">
        <ele>169.30900573731</ele>
        <time>2017-10-22T08:09:47Z</time>
      </trkpt>
      <trkpt lat="43.49423" lon="6.93116">
        <ele>168.30900573731</ele>
        <time>2017-10-22T08:09:52Z</time>
      </trkpt>
      <trkpt lat="43.4943" lon="6.93112">
        <ele>168.30900573731</ele>
        <time>2017-10-22T08:09:58Z</time>
      </trkpt>
      <trkpt lat="43.49438" lon="6.93115">
        <ele>168.30900573731</ele>
        <time>2017-10-22T08:10:04Z</time>
      </trkpt>
      <trkpt lat="43.49441" lon="6.93124">
        <ele>168.30900573731</ele>
        <time>2017-10-22T08:10:09Z</time>
      </trkpt>
      <trkpt lat="43.49441" lon="6.93136">
        <ele>167.30900573731</ele>
        <time>2017-10-22T08:10:22Z</time>
      </trkpt>
      <trkpt lat="43.4944" lon="6.93161">
        <ele>168.30900573731</ele>
        <time>2017-10-22T08:10:28Z</time>
      </trkpt>
      <trkpt lat="43.49432" lon="6.93181">
        <ele>166.30900573731</ele>
        <time>2017-10-22T08:10:34Z</time>
      </trkpt>
      <trkpt lat="43.49418" lon="6.93207">
        <ele>165.30900573731</ele>
        <time>2017-10-22T08:10:40Z</time>
      </trkpt>
      <trkpt lat="43.49409" lon="6.93226">
        <ele>166.30900573731</ele>
        <time>2017-10-22T08:10:45Z</time>
      </trkpt>
      <trkpt lat="43.49402" lon="6.93249">
        <ele>167.30900573731</ele>
        <time>2017-10-22T08:10:53Z</time>
      </trkpt>
      <trkpt lat="43.49401" lon="6.93259">
        <ele>169.30900573731</ele>
        <time>2017-10-22T08:10:58Z</time>
      </trkpt>
      <trkpt lat="43.49399" lon="6.93269">
        <ele>171.30900573731</ele>
        <time>2017-10-22T08:11:03Z</time>
      </trkpt>
      <trkpt lat="43.49399" lon="6.93279">
        <ele>171.30900573731</ele>
        <time>2017-10-22T08:11:08Z</time>
      </trkpt>
      <trkpt lat="43.49398" lon="6.93289">
        <ele>174.30900573731</ele>
        <time>2017-10-22T08:11:14Z</time>
      </trkpt>
      <trkpt lat="43.49398" lon="6.93301">
        <ele>176.30900573731</ele>
        <time>2017-10-22T08:11:20Z</time>
      </trkpt>
      <trkpt lat="43.49399" lon="6.93311">
        <ele>176.30900573731</ele>
        <time>2017-10-22T08:11:26Z</time>
      </trkpt>
      <trkpt lat="43.49399" lon="6.93323">
        <ele>174.30900573731</ele>
        <time>2017-10-22T08:11:30Z</time>
      </trkpt>
      <trkpt lat="43.49392" lon="6.93323">
        <ele>177.30900573731</ele>
        <time>2017-10-22T08:11:36Z</time>
      </trkpt>
      <trkpt lat="43.49378" lon="6.93312">
        <ele>176.30900573731</ele>
        <time>2017-10-22T08:11:46Z</time>
      </trkpt>
      <trkpt lat="43.49371" lon="6.93308">
        <ele>177.30900573731</ele>
        <time>2017-10-22T08:11:52Z</time>
      </trkpt>
      <trkpt lat="43.49362" lon="6.93307">
        <ele>179.30900573731</ele>
        <time>2017-10-22T08:11:58Z</time>
      </trkpt>
      <trkpt lat="43.49355" lon="6.93304">
        <ele>179.30900573731</ele>
        <time>2017-10-22T08:12:04Z</time>
      </trkpt>
      <trkpt lat="43.49348" lon="6.93307">
        <ele>181.30900573731</ele>
        <time>2017-10-22T08:12:11Z</time>
      </trkpt>
      <trkpt lat="43.49341" lon="6.93314">
        <ele>183.30900573731</ele>
        <time>2017-10-22T08:12:17Z</time>
      </trkpt>
      <trkpt lat="43.49335" lon="6.93322">
        <ele>182.30900573731</ele>
        <time>2017-10-22T08:12:22Z</time>
      </trkpt>
      <trkpt lat="43.49335" lon="6.93334">
        <ele>184.30900573731</ele>
        <time>2017-10-22T08:12:27Z</time>
      </trkpt>
      <trkpt lat="43.49338" lon="6.93344">
        <ele>186.30900573731</ele>
        <time>2017-10-22T08:12:32Z</time>
      </trkpt>
      <trkpt lat="43.49344" lon="6.9335">
        <ele>188.30900573731</ele>
        <time>2017-10-22T08:12:38Z</time>
      </trkpt>
      <trkpt lat="43.49348" lon="6.93359">
        <ele>190.30900573731</ele>
        <time>2017-10-22T08:12:44Z</time>
      </trkpt>
      <trkpt lat="43.4935" lon="6.93368">
        <ele>192.30900573731</ele>
        <time>2017-10-22T08:12:49Z</time>
      </trkpt>
      <trkpt lat="43.49347" lon="6.9338">
        <ele>192.30900573731</ele>
        <time>2017-10-22T08:12:54Z</time>
      </trkpt>
      <trkpt lat="43.49344" lon="6.93405">
        <ele>191.30900573731</ele>
        <time>2017-10-22T08:13:01Z</time>
      </trkpt>
      <trkpt lat="43.49334" lon="6.93417">
        <ele>193.30900573731</ele>
        <time>2017-10-22T08:14:29Z</time>
      </trkpt>
      <trkpt lat="43.49335" lon="6.93397">
        <ele>193.30900573731</ele>
        <time>2017-10-22T08:14:37Z</time>
      </trkpt>
      <trkpt lat="43.49332" lon="6.93384">
        <ele>193.30900573731</ele>
        <time>2017-10-22T08:14:42Z</time>
      </trkpt>
      <trkpt lat="43.49331" lon="6.9336">
        <ele>191.30900573731</ele>
        <time>2017-10-22T08:14:47Z</time>
      </trkpt>
      <trkpt lat="43.49335" lon="6.93336">
        <ele>188.30900573731</ele>
        <time>2017-10-22T08:14:53Z</time>
      </trkpt>
      <trkpt lat="43.49337" lon="6.93313">
        <ele>184.30900573731</ele>
        <time>2017-10-22T08:14:59Z</time>
      </trkpt>
      <trkpt lat="43.49351" lon="6.93295">
        <ele>183.30900573731</ele>
        <time>2017-10-22T08:15:05Z</time>
      </trkpt>
      <trkpt lat="43.49358" lon="6.93275">
        <ele>178.30900573731</ele>
        <time>2017-10-22T08:15:12Z</time>
      </trkpt>
      <trkpt lat="43.49367" lon="6.93257">
        <ele>173.30900573731</ele>
        <time>2017-10-22T08:15:19Z</time>
      </trkpt>
      <trkpt lat="43.49361" lon="6.93242">
        <ele>168.30900573731</ele>
        <time>2017-10-22T08:15:26Z</time>
      </trkpt>
      <trkpt lat="43.49344" lon="6.93243">
        <ele>166.30900573731</ele>
        <time>2017-10-22T08:15:31Z</time>
      </trkpt>
      <trkpt lat="43.49321" lon="6.93255">
        <ele>164.30900573731</ele>
        <time>2017-10-22T08:15:37Z</time>
      </trkpt>
      <trkpt lat="43.49304" lon="6.93266">
        <ele>161.30900573731</ele>
        <time>2017-10-22T08:15:43Z</time>
      </trkpt>
      <trkpt lat="43.49301" lon="6.93256">
        <ele>157.30900573731</ele>
        <time>2017-10-22T08:15:50Z</time>
      </trkpt>
      <trkpt lat="43.49285" lon="6.93259">
        <ele>154.30900573731</ele>
        <time>2017-10-22T08:15:57Z</time>
      </trkpt>
      <trkpt lat="43.49268" lon="6.93265">
        <ele>147.30900573731</ele>
        <time>2017-10-22T08:16:04Z</time>
      </trkpt>
      <trkpt lat="43.4926" lon="6.93266">
        <ele>144.30900573731</ele>
        <time>2017-10-22T08:16:18Z</time>
      </trkpt>
      <trkpt lat="43.49254" lon="6.93259">
        <ele>141.30900573731</ele>
        <time>2017-10-22T08:16:23Z</time>
      </trkpt>
      <trkpt lat="43.49249" lon="6.93267">
        <ele>140.30900573731</ele>
        <time>2017-10-22T08:16:39Z</time>
      </trkpt>
      <trkpt lat="43.49248" lon="6.93254">
        <ele>137.30900573731</ele>
        <time>2017-10-22T08:16:44Z</time>
      </trkpt>
      <trkpt lat="43.49241" lon="6.93242">
        <ele>127.30899810791</ele>
        <time>2017-10-22T08:16:57Z</time>
      </trkpt>
      <trkpt lat="43.49232" lon="6.93244">
        <ele>124.30899810791</ele>
        <time>2017-10-22T08:17:03Z</time>
      </trkpt>
      <trkpt lat="43.49225" lon="6.93246">
        <ele>121.30899810791</ele>
        <time>2017-10-22T08:17:18Z</time>
      </trkpt>
      <trkpt lat="43.49216" lon="6.93245">
        <ele>121.30899810791</ele>
        <time>2017-10-22T08:17:25Z</time>
      </trkpt>
      <trkpt lat="43.4921" lon="6.93251">
        <ele>119.30899810791</ele>
        <time>2017-10-22T08:17:31Z</time>
      </trkpt>
      <trkpt lat="43.49208" lon="6.93263">
        <ele>118.30899810791</ele>
        <time>2017-10-22T08:17:40Z</time>
      </trkpt>
      <trkpt lat="43.492" lon="6.93265">
        <ele>115.30899810791</ele>
        <time>2017-10-22T08:17:47Z</time>
      </trkpt>
      <trkpt lat="43.49194" lon="6.93258">
        <ele>110.30899810791</ele>
        <time>2017-10-22T08:17:53Z</time>
      </trkpt>
      <trkpt lat="43.49183" lon="6.93239">
        <ele>106.30899810791</ele>
        <time>2017-10-22T08:17:59Z</time>
      </trkpt>
      <trkpt lat="43.49177" lon="6.93219">
        <ele>103.30799865723</ele>
        <time>2017-10-22T08:18:06Z</time>
      </trkpt>
      <trkpt lat="43.49164" lon="6.93203">
        <ele>96.307998657227</ele>
        <time>2017-10-22T08:18:15Z</time>
      </trkpt>
      <trkpt lat="43.49149" lon="6.93193">
        <ele>93.307998657227</ele>
        <time>2017-10-22T08:18:22Z</time>
      </trkpt>
      <trkpt lat="43.49138" lon="6.93172">
        <ele>89.307998657227</ele>
        <time>2017-10-22T08:18:28Z</time>
      </trkpt>
      <trkpt lat="43.4913" lon="6.93166">
        <ele>88.307998657227</ele>
        <time>2017-10-22T08:18:30Z</time>
      </trkpt>
      <trkpt lat="43.49114" lon="6.93158">
        <ele>89.307998657227</ele>
        <time>2017-10-22T08:18:35Z</time>
      </trkpt>
      <trkpt lat="43.49098" lon="6.93163">
        <ele>87.307998657227</ele>
        <time>2017-10-22T08:18:42Z</time>
      </trkpt>
      <trkpt lat="43.49084" lon="6.93158">
        <ele>83.307998657227</ele>
        <time>2017-10-22T08:19:01Z</time>
      </trkpt>
      <trkpt lat="43.49067" lon="6.93139">
        <ele>79.307998657227</ele>
        <time>2017-10-22T08:19:06Z</time>
      </trkpt>
      <trkpt lat="43.49053" lon="6.93137">
        <ele>75.307998657227</ele>
        <time>2017-10-22T08:19:12Z</time>
      </trkpt>
      <trkpt lat="43.49039" lon="6.93145">
        <ele>75.307998657227</ele>
        <time>2017-10-22T08:19:19Z</time>
      </trkpt>
      <trkpt lat="43.4903" lon="6.93147">
        <ele>73.307998657227</ele>
        <time>2017-10-22T08:19:24Z</time>
      </trkpt>
      <trkpt lat="43.49018" lon="6.9316">
        <ele>71.307998657227</ele>
        <time>2017-10-22T08:19:32Z</time>
      </trkpt>
      <trkpt lat="43.4901" lon="6.93159">
        <ele>69.307998657227</ele>
        <time>2017-10-22T08:19:37Z</time>
      </trkpt>
      <trkpt lat="43.49017" lon="6.93181">
        <ele>68.307998657227</ele>
        <time>2017-10-22T08:19:44Z</time>
      </trkpt>
      <trkpt lat="43.49034" lon="6.93188">
        <ele>67.307998657227</ele>
        <time>2017-10-22T08:19:50Z</time>
      </trkpt>
      <trkpt lat="43.49047" lon="6.93199">
        <ele>69.307998657227</ele>
        <time>2017-10-22T08:19:57Z</time>
      </trkpt>
      <trkpt lat="43.49051" lon="6.93229">
        <ele>68.307998657227</ele>
        <time>2017-10-22T08:20:04Z</time>
      </trkpt>
      <trkpt lat="43.49035" lon="6.93213">
        <ele>64.307998657227</ele>
        <time>2017-10-22T08:20:11Z</time>
      </trkpt>
      <trkpt lat="43.49017" lon="6.93215">
        <ele>62.307998657227</ele>
        <time>2017-10-22T08:20:18Z</time>
      </trkpt>
      <trkpt lat="43.49" lon="6.93217">
        <ele>63.307998657227</ele>
        <time>2017-10-22T08:20:25Z</time>
      </trkpt>
      <trkpt lat="43.48985" lon="6.93226">
        <ele>63.307998657227</ele>
        <time>2017-10-22T08:20:34Z</time>
      </trkpt>
      <trkpt lat="43.48992" lon="6.9323">
        <ele>60.307998657227</ele>
        <time>2017-10-22T08:20:39Z</time>
      </trkpt>
      <trkpt lat="43.48993" lon="6.9324">
        <ele>55.307998657227</ele>
        <time>2017-10-22T08:20:48Z</time>
      </trkpt>
      <trkpt lat="43.48985" lon="6.93237">
        <ele>54.307998657227</ele>
        <time>2017-10-22T08:20:52Z</time>
      </trkpt>
      <trkpt lat="43.48973" lon="6.93224">
        <ele>54.307998657227</ele>
        <time>2017-10-22T08:21:01Z</time>
      </trkpt>
      <trkpt lat="43.48968" lon="6.93215">
        <ele>56.307998657227</ele>
        <time>2017-10-22T08:21:06Z</time>
      </trkpt>
      <trkpt lat="43.48958" lon="6.93199">
        <ele>56.307998657227</ele>
        <time>2017-10-22T08:21:14Z</time>
      </trkpt>
      <trkpt lat="43.48959" lon="6.93189">
        <ele>58.307998657227</ele>
        <time>2017-10-22T08:21:20Z</time>
      </trkpt>
      <trkpt lat="43.48963" lon="6.9318">
        <ele>58.307998657227</ele>
        <time>2017-10-22T08:22:13Z</time>
      </trkpt>
      <trkpt lat="43.48968" lon="6.93172">
        <ele>59.307998657227</ele>
        <time>2017-10-22T08:22:18Z</time>
      </trkpt>
      <trkpt lat="43.48974" lon="6.93166">
        <ele>61.307998657227</ele>
        <time>2017-10-22T08:22:23Z</time>
      </trkpt>
      <trkpt lat="43.4898" lon="6.93158">
        <ele>62.307998657227</ele>
        <time>2017-10-22T08:22:28Z</time>
      </trkpt>
      <trkpt lat="43.48986" lon="6.93149">
        <ele>66.307998657227</ele>
        <time>2017-10-22T08:22:35Z</time>
      </trkpt>
      <trkpt lat="43.4899" lon="6.9314">
        <ele>65.307998657227</ele>
        <time>2017-10-22T08:22:40Z</time>
      </trkpt>
      <trkpt lat="43.48993" lon="6.9313">
        <ele>66.307998657227</ele>
        <time>2017-10-22T08:22:45Z</time>
      </trkpt>
      <trkpt lat="43.48998" lon="6.9312">
        <ele>68.307998657227</ele>
        <time>2017-10-22T08:22:50Z</time>
      </trkpt>
      <trkpt lat="43.49013" lon="6.93111">
        <ele>70.307998657227</ele>
        <time>2017-10-22T08:22:59Z</time>
      </trkpt>
      <trkpt lat="43.49027" lon="6.93103">
        <ele>69.307998657227</ele>
        <time>2017-10-22T08:23:08Z</time>
      </trkpt>
      <trkpt lat="43.49035" lon="6.93099">
        <ele>68.307998657227</ele>
        <time>2017-10-22T08:23:13Z</time>
      </trkpt>
      <trkpt lat="43.49043" lon="6.93099">
        <ele>67.307998657227</ele>
        <time>2017-10-22T08:23:18Z</time>
      </trkpt>
      <trkpt lat="43.4905" lon="6.93096">
        <ele>69.307998657227</ele>
        <time>2017-10-22T08:23:23Z</time>
      </trkpt>
      <trkpt lat="43.49057" lon="6.93091">
        <ele>71.307998657227</ele>
        <time>2017-10-22T08:23:28Z</time>
      </trkpt>
      <trkpt lat="43.49064" lon="6.93087">
        <ele>71.307998657227</ele>
        <time>2017-10-22T08:23:34Z</time>
      </trkpt>
      <trkpt lat="43.49072" lon="6.93082">
        <ele>73.307998657227</ele>
        <time>2017-10-22T08:23:40Z</time>
      </trkpt>
      <trkpt lat="43.4908" lon="6.93078">
        <ele>74.307998657227</ele>
        <time>2017-10-22T08:23:45Z</time>
      </trkpt>
      <trkpt lat="43.49087" lon="6.9308">
        <ele>74.307998657227</ele>
        <time>2017-10-22T08:23:50Z</time>
      </trkpt>
      <trkpt lat="43.49094" lon="6.93085">
        <ele>73.307998657227</ele>
        <time>2017-10-22T08:23:55Z</time>
      </trkpt>
      <trkpt lat="43.49101" lon="6.93089">
        <ele>73.307998657227</ele>
        <time>2017-10-22T08:24:00Z</time>
      </trkpt>
      <trkpt lat="43.49107" lon="6.93094">
        <ele>72.307998657227</ele>
        <time>2017-10-22T08:24:05Z</time>
      </trkpt>
      <trkpt lat="43.49115" lon="6.93098">
        <ele>73.307998657227</ele>
        <time>2017-10-22T08:24:10Z</time>
      </trkpt>
      <trkpt lat="43.49123" lon="6.93103">
        <ele>73.307998657227</ele>
        <time>2017-10-22T08:24:15Z</time>
      </trkpt>
      <trkpt lat="43.49131" lon="6.93106">
        <ele>74.307998657227</ele>
        <time>2017-10-22T08:24:21Z</time>
      </trkpt>
      <trkpt lat="43.49138" lon="6.93109">
        <ele>72.307998657227</ele>
        <time>2017-10-22T08:24:26Z</time>
      </trkpt>
      <trkpt lat="43.49147" lon="6.93113">
        <ele>71.307998657227</ele>
        <time>2017-10-22T08:24:31Z</time>
      </trkpt>
      <trkpt lat="43.49155" lon="6.93116">
        <ele>71.307998657227</ele>
        <time>2017-10-22T08:24:36Z</time>
      </trkpt>
      <trkpt lat="43.49161" lon="6.93122">
        <ele>73.307998657227</ele>
        <time>2017-10-22T08:24:42Z</time>
      </trkpt>
      <trkpt lat="43.49176" lon="6.93124">
        <ele>72.307998657227</ele>
        <time>2017-10-22T08:24:51Z</time>
      </trkpt>
      <trkpt lat="43.49185" lon="6.93127">
        <ele>74.307998657227</ele>
        <time>2017-10-22T08:24:56Z</time>
      </trkpt>
      <trkpt lat="43.492" lon="6.93129">
        <ele>77.307998657227</ele>
        <time>2017-10-22T08:25:05Z</time>
      </trkpt>
      <trkpt lat="43.49209" lon="6.93125">
        <ele>78.307998657227</ele>
        <time>2017-10-22T08:25:10Z</time>
      </trkpt>
      <trkpt lat="43.49217" lon="6.9312">
        <ele>80.307998657227</ele>
        <time>2017-10-22T08:25:15Z</time>
      </trkpt>
      <trkpt lat="43.49222" lon="6.93111">
        <ele>82.307998657227</ele>
        <time>2017-10-22T08:25:22Z</time>
      </trkpt>
      <trkpt lat="43.49221" lon="6.93099">
        <ele>84.307998657227</ele>
        <time>2017-10-22T08:25:27Z</time>
      </trkpt>
      <trkpt lat="43.49219" lon="6.93089">
        <ele>82.307998657227</ele>
        <time>2017-10-22T08:25:32Z</time>
      </trkpt>
      <trkpt lat="43.49221" lon="6.93067">
        <ele>85.307998657227</ele>
        <time>2017-10-22T08:25:41Z</time>
      </trkpt>
      <trkpt lat="43.49224" lon="6.93055">
        <ele>86.307998657227</ele>
        <time>2017-10-22T08:25:46Z</time>
      </trkpt>
      <trkpt lat="43.49231" lon="6.93048">
        <ele>86.307998657227</ele>
        <time>2017-10-22T08:25:51Z</time>
      </trkpt>
      <trkpt lat="43.49239" lon="6.93043">
        <ele>88.307998657227</ele>
        <time>2017-10-22T08:25:57Z</time>
      </trkpt>
      <trkpt lat="43.49247" lon="6.9304">
        <ele>89.307998657227</ele>
        <time>2017-10-22T08:26:02Z</time>
      </trkpt>
      <trkpt lat="43.49255" lon="6.93038">
        <ele>89.307998657227</ele>
        <time>2017-10-22T08:26:08Z</time>
      </trkpt>
      <trkpt lat="43.49261" lon="6.93034">
        <ele>91.307998657227</ele>
        <time>2017-10-22T08:26:13Z</time>
      </trkpt>
      <trkpt lat="43.49269" lon="6.9303">
        <ele>91.307998657227</ele>
        <time>2017-10-22T08:26:19Z</time>
      </trkpt>
      <trkpt lat="43.49276" lon="6.93025">
        <ele>91.307998657227</ele>
        <time>2017-10-22T08:26:24Z</time>
      </trkpt>
      <trkpt lat="43.49279" lon="6.93014">
        <ele>92.307998657227</ele>
        <time>2017-10-22T08:26:29Z</time>
      </trkpt>
      <trkpt lat="43.49278" lon="6.93004">
        <ele>93.307998657227</ele>
        <time>2017-10-22T08:26:34Z</time>
      </trkpt>
      <trkpt lat="43.49276" lon="6.92992">
        <ele>94.307998657227</ele>
        <time>2017-10-22T08:26:39Z</time>
      </trkpt>
      <trkpt lat="43.49276" lon="6.92981">
        <ele>94.307998657227</ele>
        <time>2017-10-22T08:26:44Z</time>
      </trkpt>
      <trkpt lat="43.49278" lon="6.9297">
        <ele>95.307998657227</ele>
        <time>2017-10-22T08:26:49Z</time>
      </trkpt>
      <trkpt lat="43.49287" lon="6.92952">
        <ele>95.307998657227</ele>
        <time>2017-10-22T08:26:57Z</time>
      </trkpt>
      <trkpt lat="43.49292" lon="6.92943">
        <ele>95.307998657227</ele>
        <time>2017-10-22T08:27:02Z</time>
      </trkpt>
      <trkpt lat="43.49299" lon="6.92937">
        <ele>97.307998657227</ele>
        <time>2017-10-22T08:27:07Z</time>
      </trkpt>
      <trkpt lat="43.49305" lon="6.92931">
        <ele>97.307998657227</ele>
        <time>2017-10-22T08:27:12Z</time>
      </trkpt>
      <trkpt lat="43.49313" lon="6.92926">
        <ele>98.307998657227</ele>
        <time>2017-10-22T08:27:19Z</time>
      </trkpt>
      <trkpt lat="43.4932" lon="6.92923">
        <ele>100.30799865723</ele>
        <time>2017-10-22T08:27:26Z</time>
      </trkpt>
      <trkpt lat="43.49326" lon="6.92916">
        <ele>100.30799865723</ele>
        <time>2017-10-22T08:27:32Z</time>
      </trkpt>
      <trkpt lat="43.49334" lon="6.92912">
        <ele>101.30799865723</ele>
        <time>2017-10-22T08:27:38Z</time>
      </trkpt>
      <trkpt lat="43.49339" lon="6.92873">
        <ele>105.30799865723</ele>
        <time>2017-10-22T08:28:00Z</time>
      </trkpt>
      <trkpt lat="43.49341" lon="6.92862">
        <ele>105.30799865723</ele>
        <time>2017-10-22T08:28:06Z</time>
      </trkpt>
      <trkpt lat="43.49345" lon="6.92852">
        <ele>105.30799865723</ele>
        <time>2017-10-22T08:28:14Z</time>
      </trkpt>
      <trkpt lat="43.49347" lon="6.92841">
        <ele>107.30799865723</ele>
        <time>2017-10-22T08:28:21Z</time>
      </trkpt>
      <trkpt lat="43.49352" lon="6.92833">
        <ele>108.30799865723</ele>
        <time>2017-10-22T08:28:28Z</time>
      </trkpt>
      <trkpt lat="43.49356" lon="6.92824">
        <ele>107.30799865723</ele>
        <time>2017-10-22T08:28:33Z</time>
      </trkpt>
      <trkpt lat="43.49362" lon="6.92813">
        <ele>108.30799865723</ele>
        <time>2017-10-22T08:28:39Z</time>
      </trkpt>
      <trkpt lat="43.49369" lon="6.92805">
        <ele>110.30799865723</ele>
        <time>2017-10-22T08:28:45Z</time>
      </trkpt>
      <trkpt lat="43.49376" lon="6.92798">
        <ele>108.30799865723</ele>
        <time>2017-10-22T08:28:50Z</time>
      </trkpt>
      <trkpt lat="43.49384" lon="6.92793">
        <ele>109.30799865723</ele>
        <time>2017-10-22T08:28:56Z</time>
      </trkpt>
      <trkpt lat="43.49392" lon="6.92789">
        <ele>110.30799865723</ele>
        <time>2017-10-22T08:29:04Z</time>
      </trkpt>
      <trkpt lat="43.494" lon="6.92787">
        <ele>112.30799865723</ele>
        <time>2017-10-22T08:29:11Z</time>
      </trkpt>
      <trkpt lat="43.49409" lon="6.92784">
        <ele>111.30799865723</ele>
        <time>2017-10-22T08:29:17Z</time>
      </trkpt>
      <trkpt lat="43.49417" lon="6.92781">
        <ele>114.30799865723</ele>
        <time>2017-10-22T08:29:23Z</time>
      </trkpt>
      <trkpt lat="43.49424" lon="6.92781">
        <ele>114.30799865723</ele>
        <time>2017-10-22T08:29:28Z</time>
      </trkpt>
      <trkpt lat="43.49431" lon="6.92784">
        <ele>113.30799865723</ele>
        <time>2017-10-22T08:29:34Z</time>
      </trkpt>
      <trkpt lat="43.49438" lon="6.9279">
        <ele>114.30799865723</ele>
        <time>2017-10-22T08:29:40Z</time>
      </trkpt>
      <trkpt lat="43.49445" lon="6.92795">
        <ele>114.30799865723</ele>
        <time>2017-10-22T08:29:46Z</time>
      </trkpt>
      <trkpt lat="43.49453" lon="6.92795">
        <ele>115.30799865723</ele>
        <time>2017-10-22T08:29:51Z</time>
      </trkpt>
      <trkpt lat="43.49459" lon="6.92789">
        <ele>117.30799865723</ele>
        <time>2017-10-22T08:29:57Z</time>
      </trkpt>
      <trkpt lat="43.49466" lon="6.92782">
        <ele>118.30799865723</ele>
        <time>2017-10-22T08:30:02Z</time>
      </trkpt>
      <trkpt lat="43.49472" lon="6.92776">
        <ele>120.30799865723</ele>
        <time>2017-10-22T08:30:07Z</time>
      </trkpt>
      <trkpt lat="43.4948" lon="6.92772">
        <ele>120.30799865723</ele>
        <time>2017-10-22T08:30:12Z</time>
      </trkpt>
      <trkpt lat="43.49487" lon="6.92769">
        <ele>119.30799865723</ele>
        <time>2017-10-22T08:30:18Z</time>
      </trkpt>
      <trkpt lat="43.49489" lon="6.92779">
        <ele>121.30799865723</ele>
        <time>2017-10-22T08:30:25Z</time>
      </trkpt>
      <trkpt lat="43.49486" lon="6.9279">
        <ele>122.30799865723</ele>
        <time>2017-10-22T08:30:31Z</time>
      </trkpt>
      <trkpt lat="43.49481" lon="6.92798">
        <ele>122.30799865723</ele>
        <time>2017-10-22T08:30:36Z</time>
      </trkpt>
      <trkpt lat="43.49473" lon="6.92814">
        <ele>123.30799865723</ele>
        <time>2017-10-22T08:30:46Z</time>
      </trkpt>
      <trkpt lat="43.49466" lon="6.92819">
        <ele>124.30799865723</ele>
        <time>2017-10-22T08:30:52Z</time>
      </trkpt>
      <trkpt lat="43.49461" lon="6.92827">
        <ele>125.30799865723</ele>
        <time>2017-10-22T08:30:59Z</time>
      </trkpt>
      <trkpt lat="43.49456" lon="6.92836">
        <ele>125.30799865723</ele>
        <time>2017-10-22T08:31:05Z</time>
      </trkpt>
      <trkpt lat="43.49448" lon="6.9284">
        <ele>126.30799865723</ele>
        <time>2017-10-22T08:31:11Z</time>
      </trkpt>
      <trkpt lat="43.49441" lon="6.92838">
        <ele>126.30799865723</ele>
        <time>2017-10-22T08:31:17Z</time>
      </trkpt>
      <trkpt lat="43.49426" lon="6.9284">
        <ele>126.30799865723</ele>
        <time>2017-10-22T08:31:27Z</time>
      </trkpt>
      <trkpt lat="43.49419" lon="6.92843">
        <ele>125.30799865723</ele>
        <time>2017-10-22T08:31:32Z</time>
      </trkpt>
      <trkpt lat="43.49412" lon="6.9285">
        <ele>126.30799865723</ele>
        <time>2017-10-22T08:31:39Z</time>
      </trkpt>
      <trkpt lat="43.49407" lon="6.92858">
        <ele>127.30799865723</ele>
        <time>2017-10-22T08:31:45Z</time>
      </trkpt>
      <trkpt lat="43.49403" lon="6.92868">
        <ele>130.30799865723</ele>
        <time>2017-10-22T08:31:52Z</time>
      </trkpt>
      <trkpt lat="43.49403" lon="6.9288">
        <ele>130.30799865723</ele>
        <time>2017-10-22T08:31:57Z</time>
      </trkpt>
      <trkpt lat="43.49404" lon="6.92891">
        <ele>132.30799865723</ele>
        <time>2017-10-22T08:32:02Z</time>
      </trkpt>
      <trkpt lat="43.49407" lon="6.92903">
        <ele>133.30799865723</ele>
        <time>2017-10-22T08:32:08Z</time>
      </trkpt>
      <trkpt lat="43.49411" lon="6.92913">
        <ele>134.30799865723</ele>
        <time>2017-10-22T08:32:13Z</time>
      </trkpt>
      <trkpt lat="43.49414" lon="6.92924">
        <ele>134.30799865723</ele>
        <time>2017-10-22T08:32:20Z</time>
      </trkpt>
      <trkpt lat="43.49413" lon="6.92935">
        <ele>137.30799865723</ele>
        <time>2017-10-22T08:32:26Z</time>
      </trkpt>
      <trkpt lat="43.49411" lon="6.92945">
        <ele>136.30799865723</ele>
        <time>2017-10-22T08:32:31Z</time>
      </trkpt>
      <trkpt lat="43.49407" lon="6.92955">
        <ele>137.30799865723</ele>
        <time>2017-10-22T08:32:36Z</time>
      </trkpt>
      <trkpt lat="43.49405" lon="6.92976">
        <ele>136.30799865723</ele>
        <time>2017-10-22T08:32:45Z</time>
      </trkpt>
      <trkpt lat="43.49408" lon="6.92997">
        <ele>139.30799865723</ele>
        <time>2017-10-22T08:32:54Z</time>
      </trkpt>
      <trkpt lat="43.4941" lon="6.93007">
        <ele>139.30799865723</ele>
        <time>2017-10-22T08:32:58Z</time>
      </trkpt>
      <trkpt lat="43.49409" lon="6.93017">
        <ele>140.30799865723</ele>
        <time>2017-10-22T08:33:04Z</time>
      </trkpt>
      <trkpt lat="43.49407" lon="6.93029">
        <ele>140.30799865723</ele>
        <time>2017-10-22T08:33:09Z</time>
      </trkpt>
      <trkpt lat="43.49404" lon="6.93038">
        <ele>142.30799865723</ele>
        <time>2017-10-22T08:33:14Z</time>
      </trkpt>
      <trkpt lat="43.49399" lon="6.93058">
        <ele>142.30799865723</ele>
        <time>2017-10-22T08:33:22Z</time>
      </trkpt>
      <trkpt lat="43.49395" lon="6.93068">
        <ele>145.30799865723</ele>
        <time>2017-10-22T08:33:27Z</time>
      </trkpt>
      <trkpt lat="43.4939" lon="6.93076">
        <ele>146.30799865723</ele>
        <time>2017-10-22T08:33:32Z</time>
      </trkpt>
      <trkpt lat="43.4938" lon="6.93093">
        <ele>151.30900573731</ele>
        <time>2017-10-22T08:33:40Z</time>
      </trkpt>
      <trkpt lat="43.49376" lon="6.93105">
        <ele>152.30900573731</ele>
        <time>2017-10-22T08:33:45Z</time>
      </trkpt>
      <trkpt lat="43.49371" lon="6.93115">
        <ele>153.30900573731</ele>
        <time>2017-10-22T08:33:50Z</time>
      </trkpt>
      <trkpt lat="43.49367" lon="6.93123">
        <ele>154.30900573731</ele>
        <time>2017-10-22T08:33:55Z</time>
      </trkpt>
      <trkpt lat="43.49362" lon="6.93132">
        <ele>156.30900573731</ele>
        <time>2017-10-22T08:34:01Z</time>
      </trkpt>
      <trkpt lat="43.4936" lon="6.93142">
        <ele>157.30900573731</ele>
        <time>2017-10-22T08:34:05Z</time>
      </trkpt>
      <trkpt lat="43.49356" lon="6.93162">
        <ele>159.30900573731</ele>
        <time>2017-10-22T08:34:14Z</time>
      </trkpt>
      <trkpt lat="43.49358" lon="6.93173">
        <ele>160.30900573731</ele>
        <time>2017-10-22T08:34:20Z</time>
      </trkpt>
      <trkpt lat="43.49362" lon="6.93184">
        <ele>158.30900573731</ele>
        <time>2017-10-22T08:34:26Z</time>
      </trkpt>
      <trkpt lat="43.49366" lon="6.93193">
        <ele>158.30900573731</ele>
        <time>2017-10-22T08:34:32Z</time>
      </trkpt>
      <trkpt lat="43.49372" lon="6.93199">
        <ele>157.30900573731</ele>
        <time>2017-10-22T08:34:38Z</time>
      </trkpt>
      <trkpt lat="43.49374" lon="6.93188">
        <ele>161.30900573731</ele>
        <time>2017-10-22T08:34:46Z</time>
      </trkpt>
      <trkpt lat="43.49371" lon="6.93177">
        <ele>163.30900573731</ele>
        <time>2017-10-22T08:34:52Z</time>
      </trkpt>
      <trkpt lat="43.49372" lon="6.93167">
        <ele>164.30900573731</ele>
        <time>2017-10-22T08:34:57Z</time>
      </trkpt>
      <trkpt lat="43.49376" lon="6.93158">
        <ele>163.30900573731</ele>
        <time>2017-10-22T08:35:02Z</time>
      </trkpt>
      <trkpt lat="43.49381" lon="6.93147">
        <ele>163.30900573731</ele>
        <time>2017-10-22T08:35:08Z</time>
      </trkpt>
      <trkpt lat="43.49385" lon="6.93137">
        <ele>163.30900573731</ele>
        <time>2017-10-22T08:35:13Z</time>
      </trkpt>
      <trkpt lat="43.49392" lon="6.93132">
        <ele>162.30900573731</ele>
        <time>2017-10-22T08:35:19Z</time>
      </trkpt>
      <trkpt lat="43.494" lon="6.93127">
        <ele>164.30900573731</ele>
        <time>2017-10-22T08:35:25Z</time>
      </trkpt>
      <trkpt lat="43.49407" lon="6.93124">
        <ele>166.30900573731</ele>
        <time>2017-10-22T08:35:31Z</time>
      </trkpt>
      <trkpt lat="43.49415" lon="6.93121">
        <ele>167.30900573731</ele>
        <time>2017-10-22T08:35:36Z</time>
      </trkpt>
      <trkpt lat="43.49423" lon="6.93118">
        <ele>169.30900573731</ele>
        <time>2017-10-22T08:35:42Z</time>
      </trkpt>
      <trkpt lat="43.49431" lon="6.93117">
        <ele>172.30900573731</ele>
        <time>2017-10-22T08:35:48Z</time>
      </trkpt>
      <trkpt lat="43.49442" lon="6.93136">
        <ele>174.30900573731</ele>
        <time>2017-10-22T08:35:56Z</time>
      </trkpt>
      <trkpt lat="43.49439" lon="6.93169">
        <ele>170.30900573731</ele>
        <time>2017-10-22T08:36:03Z</time>
      </trkpt>
      <trkpt lat="43.49423" lon="6.93197">
        <ele>169.30900573731</ele>
        <time>2017-10-22T08:36:09Z</time>
      </trkpt>
      <trkpt lat="43.49411" lon="6.93212">
        <ele>171.30900573731</ele>
        <time>2017-10-22T08:36:13Z</time>
      </trkpt>
      <trkpt lat="43.49402" lon="6.9323">
        <ele>174.30900573731</ele>
        <time>2017-10-22T08:36:19Z</time>
      </trkpt>
      <trkpt lat="43.49402" lon="6.93253">
        <ele>171.30900573731</ele>
        <time>2017-10-22T08:36:26Z</time>
      </trkpt>
      <trkpt lat="43.494" lon="6.93265">
        <ele>172.30900573731</ele>
        <time>2017-10-22T08:36:31Z</time>
      </trkpt>
      <trkpt lat="43.49399" lon="6.93278">
        <ele>174.30900573731</ele>
        <time>2017-10-22T08:36:36Z</time>
      </trkpt>
      <trkpt lat="43.49401" lon="6.93289">
        <ele>175.30900573731</ele>
        <time>2017-10-22T08:36:40Z</time>
      </trkpt>
      <trkpt lat="43.49403" lon="6.9331">
        <ele>174.30900573731</ele>
        <time>2017-10-22T08:36:48Z</time>
      </trkpt>
      <trkpt lat="43.49398" lon="6.93318">
        <ele>176.30900573731</ele>
        <time>2017-10-22T08:36:53Z</time>
      </trkpt>
      <trkpt lat="43.4939" lon="6.93316">
        <ele>175.30900573731</ele>
        <time>2017-10-22T08:36:58Z</time>
      </trkpt>
      <trkpt lat="43.49384" lon="6.93308">
        <ele>175.30900573731</ele>
        <time>2017-10-22T08:37:03Z</time>
      </trkpt>
      <trkpt lat="43.49377" lon="6.93303">
        <ele>175.30900573731</ele>
        <time>2017-10-22T08:37:08Z</time>
      </trkpt>
      <trkpt lat="43.49369" lon="6.933">
        <ele>174.30900573731</ele>
        <time>2017-10-22T08:37:13Z</time>
      </trkpt>
      <trkpt lat="43.4936" lon="6.93301">
        <ele>176.30900573731</ele>
        <time>2017-10-22T08:37:20Z</time>
      </trkpt>
      <trkpt lat="43.49352" lon="6.93307">
        <ele>177.30900573731</ele>
        <time>2017-10-22T08:37:26Z</time>
      </trkpt>
      <trkpt lat="43.49345" lon="6.93313">
        <ele>178.30900573731</ele>
        <time>2017-10-22T08:37:31Z</time>
      </trkpt>
      <trkpt lat="43.4934" lon="6.93322">
        <ele>177.30900573731</ele>
        <time>2017-10-22T08:37:36Z</time>
      </trkpt>
      <trkpt lat="43.49341" lon="6.93333">
        <ele>181.30900573731</ele>
        <time>2017-10-22T08:37:43Z</time>
      </trkpt>
      <trkpt lat="43.49345" lon="6.93344">
        <ele>182.30900573731</ele>
        <time>2017-10-22T08:37:49Z</time>
      </trkpt>
      <trkpt lat="43.4935" lon="6.93352">
        <ele>182.30900573731</ele>
        <time>2017-10-22T08:37:54Z</time>
      </trkpt>
      <trkpt lat="43.49355" lon="6.93361">
        <ele>184.30900573731</ele>
        <time>2017-10-22T08:38:00Z</time>
      </trkpt>
      <trkpt lat="43.49354" lon="6.93371">
        <ele>185.30900573731</ele>
        <time>2017-10-22T08:38:05Z</time>
      </trkpt>
      <trkpt lat="43.49351" lon="6.93382">
        <ele>186.30900573731</ele>
        <time>2017-10-22T08:38:10Z</time>
      </trkpt>
      <trkpt lat="43.49346" lon="6.93407">
        <ele>184.30900573731</ele>
        <time>2017-10-22T08:38:16Z</time>
      </trkpt>
      <trkpt lat="43.49346" lon="6.93417">
        <ele>183.30900573731</ele>
        <time>2017-10-22T08:38:18Z</time>
      </trkpt>
      <trkpt lat="43.49346" lon="6.93428">
        <ele>183.30900573731</ele>
        <time>2017-10-22T08:38:20Z</time>
      </trkpt>
      <trkpt lat="43.49343" lon="6.93452">
        <ele>181.30900573731</ele>
        <time>2017-10-22T08:38:27Z</time>
      </trkpt>
      <trkpt lat="43.49336" lon="6.93471">
        <ele>181.30900573731</ele>
        <time>2017-10-22T08:38:33Z</time>
      </trkpt>
      <trkpt lat="43.49337" lon="6.93483">
        <ele>179.30900573731</ele>
        <time>2017-10-22T08:38:37Z</time>
      </trkpt>
      <trkpt lat="43.49339" lon="6.9351">
        <ele>177.30900573731</ele>
        <time>2017-10-22T08:38:43Z</time>
      </trkpt>
      <trkpt lat="43.49348" lon="6.93554">
        <ele>174.30900573731</ele>
        <time>2017-10-22T08:38:48Z</time>
      </trkpt>
      <trkpt lat="43.49337" lon="6.93618">
        <ele>179.30999755859</ele>
        <time>2017-10-22T08:38:54Z</time>
      </trkpt>
      <trkpt lat="43.49327" lon="6.9365">
        <ele>182.30999755859</ele>
        <time>2017-10-22T08:39:00Z</time>
      </trkpt>
      <trkpt lat="43.49323" lon="6.9366">
        <ele>185.30999755859</ele>
        <time>2017-10-22T08:39:03Z</time>
      </trkpt>
      <trkpt lat="43.49321" lon="6.93674">
        <ele>185.30999755859</ele>
        <time>2017-10-22T08:39:06Z</time>
      </trkpt>
      <trkpt lat="43.4932" lon="6.93684">
        <ele>185.30999755859</ele>
        <time>2017-10-22T08:39:09Z</time>
      </trkpt>
      <trkpt lat="43.49316" lon="6.9371">
        <ele>187.30999755859</ele>
        <time>2017-10-22T08:39:15Z</time>
      </trkpt>
      <trkpt lat="43.49311" lon="6.9373">
        <ele>186.30999755859</ele>
        <time>2017-10-22T08:39:21Z</time>
      </trkpt>
      <trkpt lat="43.49309" lon="6.93752">
        <ele>182.30999755859</ele>
        <time>2017-10-22T08:39:27Z</time>
      </trkpt>
      <trkpt lat="43.4931" lon="6.93779">
        <ele>183.30999755859</ele>
        <time>2017-10-22T08:39:33Z</time>
      </trkpt>
      <trkpt lat="43.49309" lon="6.93803">
        <ele>176.30999755859</ele>
        <time>2017-10-22T08:39:39Z</time>
      </trkpt>
      <trkpt lat="43.49308" lon="6.93825">
        <ele>177.30999755859</ele>
        <time>2017-10-22T08:39:44Z</time>
      </trkpt>
      <trkpt lat="43.49306" lon="6.93851">
        <ele>176.30999755859</ele>
        <time>2017-10-22T08:39:50Z</time>
      </trkpt>
      <trkpt lat="43.49311" lon="6.93882">
        <ele>176.30999755859</ele>
        <time>2017-10-22T08:39:56Z</time>
      </trkpt>
      <trkpt lat="43.49318" lon="6.93907">
        <ele>176.30999755859</ele>
        <time>2017-10-22T08:40:01Z</time>
      </trkpt>
      <trkpt lat="43.4932" lon="6.93917">
        <ele>176.30999755859</ele>
        <time>2017-10-22T08:40:03Z</time>
      </trkpt>
      <trkpt lat="43.49323" lon="6.93931">
        <ele>175.30999755859</ele>
        <time>2017-10-22T08:40:05Z</time>
      </trkpt>
      <trkpt lat="43.49328" lon="6.93957">
        <ele>173.30999755859</ele>
        <time>2017-10-22T08:40:09Z</time>
      </trkpt>
      <trkpt lat="43.4933" lon="6.93987">
        <ele>172.30999755859</ele>
        <time>2017-10-22T08:40:13Z</time>
      </trkpt>
      <trkpt lat="43.49336" lon="6.94028">
        <ele>169.31100463867</ele>
        <time>2017-10-22T08:40:18Z</time>
      </trkpt>
      <trkpt lat="43.49339" lon="6.94076">
        <ele>166.31100463867</ele>
        <time>2017-10-22T08:40:23Z</time>
      </trkpt>
      <trkpt lat="43.49339" lon="6.94089">
        <ele>166.31100463867</ele>
        <time>2017-10-22T08:40:25Z</time>
      </trkpt>
      <trkpt lat="43.4934" lon="6.94128">
        <ele>169.31100463867</ele>
        <time>2017-10-22T08:40:31Z</time>
      </trkpt>
      <trkpt lat="43.49344" lon="6.94169">
        <ele>166.31100463867</ele>
        <time>2017-10-22T08:40:37Z</time>
      </trkpt>
      <trkpt lat="43.49348" lon="6.94212">
        <ele>176.31100463867</ele>
        <time>2017-10-22T08:40:43Z</time>
      </trkpt>
      <trkpt lat="43.49353" lon="6.94251">
        <ele>169.31100463867</ele>
        <time>2017-10-22T08:40:49Z</time>
      </trkpt>
      <trkpt lat="43.49386" lon="6.94252">
        <ele>163.31100463867</ele>
        <time>2017-10-22T08:40:55Z</time>
      </trkpt>
      <trkpt lat="43.49423" lon="6.94251">
        <ele>162.31100463867</ele>
        <time>2017-10-22T08:41:01Z</time>
      </trkpt>
      <trkpt lat="43.49442" lon="6.94254">
        <ele>164.31100463867</ele>
        <time>2017-10-22T08:41:07Z</time>
      </trkpt>
      <trkpt lat="43.49461" lon="6.94253">
        <ele>165.31100463867</ele>
        <time>2017-10-22T08:41:15Z</time>
      </trkpt>
      <trkpt lat="43.49475" lon="6.94258">
        <ele>168.31100463867</ele>
        <time>2017-10-22T08:41:21Z</time>
      </trkpt>
      <trkpt lat="43.49494" lon="6.94262">
        <ele>172.31100463867</ele>
        <time>2017-10-22T08:41:27Z</time>
      </trkpt>
      <trkpt lat="43.49511" lon="6.94262">
        <ele>172.31100463867</ele>
        <time>2017-10-22T08:41:32Z</time>
      </trkpt>
      <trkpt lat="43.49518" lon="6.9426">
        <ele>171.31100463867</ele>
        <time>2017-10-22T08:41:34Z</time>
      </trkpt>
      <trkpt lat="43.49534" lon="6.94258">
        <ele>171.31100463867</ele>
        <time>2017-10-22T08:41:38Z</time>
      </trkpt>
      <trkpt lat="43.49553" lon="6.94278">
        <ele>169.31100463867</ele>
        <time>2017-10-22T08:41:44Z</time>
      </trkpt>
      <trkpt lat="43.49566" lon="6.94267">
        <ele>169.31100463867</ele>
        <time>2017-10-22T08:41:51Z</time>
      </trkpt>
      <trkpt lat="43.49571" lon="6.94259">
        <ele>169.31100463867</ele>
        <time>2017-10-22T08:41:56Z</time>
      </trkpt>
      <trkpt lat="43.49578" lon="6.94263">
        <ele>174.31100463867</ele>
        <time>2017-10-22T08:42:02Z</time>
      </trkpt>
      <trkpt lat="43.49586" lon="6.94264">
        <ele>176.31100463867</ele>
        <time>2017-10-22T08:42:08Z</time>
      </trkpt>
      <trkpt lat="43.49592" lon="6.94259">
        <ele>176.31100463867</ele>
        <time>2017-10-22T08:42:13Z</time>
      </trkpt>
      <trkpt lat="43.49599" lon="6.94253">
        <ele>176.31100463867</ele>
        <time>2017-10-22T08:42:18Z</time>
      </trkpt>
      <trkpt lat="43.49606" lon="6.94249">
        <ele>176.31100463867</ele>
        <time>2017-10-22T08:42:23Z</time>
      </trkpt>
      <trkpt lat="43.49613" lon="6.94245">
        <ele>178.31100463867</ele>
        <time>2017-10-22T08:42:28Z</time>
      </trkpt>
      <trkpt lat="43.4962" lon="6.9424">
        <ele>177.31100463867</ele>
        <time>2017-10-22T08:42:33Z</time>
      </trkpt>
      <trkpt lat="43.49627" lon="6.94235">
        <ele>177.31100463867</ele>
        <time>2017-10-22T08:42:39Z</time>
      </trkpt>
      <trkpt lat="43.49639" lon="6.94223">
        <ele>177.31100463867</ele>
        <time>2017-10-22T08:42:47Z</time>
      </trkpt>
      <trkpt lat="43.49653" lon="6.94211">
        <ele>178.31100463867</ele>
        <time>2017-10-22T08:42:55Z</time>
      </trkpt>
      <trkpt lat="43.49659" lon="6.94205">
        <ele>180.31100463867</ele>
        <time>2017-10-22T08:43:00Z</time>
      </trkpt>
      <trkpt lat="43.49665" lon="6.94199">
        <ele>184.31100463867</ele>
        <time>2017-10-22T08:43:06Z</time>
      </trkpt>
      <trkpt lat="43.49672" lon="6.94193">
        <ele>184.31100463867</ele>
        <time>2017-10-22T08:43:11Z</time>
      </trkpt>
      <trkpt lat="43.49679" lon="6.94187">
        <ele>184.31100463867</ele>
        <time>2017-10-22T08:43:17Z</time>
      </trkpt>
      <trkpt lat="43.49685" lon="6.94182">
        <ele>187.31100463867</ele>
        <time>2017-10-22T08:43:23Z</time>
      </trkpt>
      <trkpt lat="43.49692" lon="6.94178">
        <ele>187.31100463867</ele>
        <time>2017-10-22T08:43:28Z</time>
      </trkpt>
      <trkpt lat="43.49707" lon="6.94173">
        <ele>184.31100463867</ele>
        <time>2017-10-22T08:43:36Z</time>
      </trkpt>
      <trkpt lat="43.49715" lon="6.94173">
        <ele>186.31100463867</ele>
        <time>2017-10-22T08:43:43Z</time>
      </trkpt>
      <trkpt lat="43.49731" lon="6.94168">
        <ele>186.31100463867</ele>
        <time>2017-10-22T08:43:53Z</time>
      </trkpt>
      <trkpt lat="43.4974" lon="6.94165">
        <ele>187.31100463867</ele>
        <time>2017-10-22T08:43:57Z</time>
      </trkpt>
      <trkpt lat="43.49748" lon="6.94166">
        <ele>187.31100463867</ele>
        <time>2017-10-22T08:44:02Z</time>
      </trkpt>
      <trkpt lat="43.49755" lon="6.94165">
        <ele>188.31100463867</ele>
        <time>2017-10-22T08:44:07Z</time>
      </trkpt>
      <trkpt lat="43.49764" lon="6.94165">
        <ele>190.31199645996</ele>
        <time>2017-10-22T08:44:14Z</time>
      </trkpt>
      <trkpt lat="43.49779" lon="6.94165">
        <ele>188.31199645996</ele>
        <time>2017-10-22T08:44:23Z</time>
      </trkpt>
      <trkpt lat="43.49787" lon="6.94163">
        <ele>189.31199645996</ele>
        <time>2017-10-22T08:44:28Z</time>
      </trkpt>
      <trkpt lat="43.49803" lon="6.94156">
        <ele>190.31199645996</ele>
        <time>2017-10-22T08:44:37Z</time>
      </trkpt>
      <trkpt lat="43.4981" lon="6.94152">
        <ele>191.31199645996</ele>
        <time>2017-10-22T08:44:42Z</time>
      </trkpt>
      <trkpt lat="43.49818" lon="6.94148">
        <ele>190.31199645996</ele>
        <time>2017-10-22T08:44:47Z</time>
      </trkpt>
      <trkpt lat="43.49827" lon="6.94147">
        <ele>192.31199645996</ele>
        <time>2017-10-22T08:44:53Z</time>
      </trkpt>
      <trkpt lat="43.49825" lon="6.94162">
        <ele>187.31199645996</ele>
        <time>2017-10-22T08:45:09Z</time>
      </trkpt>
      <trkpt lat="43.49817" lon="6.94166">
        <ele>188.31199645996</ele>
        <time>2017-10-22T08:45:14Z</time>
      </trkpt>
      <trkpt lat="43.49813" lon="6.94175">
        <ele>189.31199645996</ele>
        <time>2017-10-22T08:45:19Z</time>
      </trkpt>
      <trkpt lat="43.49805" lon="6.94181">
        <ele>189.31199645996</ele>
        <time>2017-10-22T08:45:25Z</time>
      </trkpt>
      <trkpt lat="43.498" lon="6.9419">
        <ele>188.31199645996</ele>
        <time>2017-10-22T08:45:30Z</time>
      </trkpt>
      <trkpt lat="43.49794" lon="6.94195">
        <ele>189.31199645996</ele>
        <time>2017-10-22T08:45:36Z</time>
      </trkpt>
      <trkpt lat="43.49789" lon="6.94205">
        <ele>188.31199645996</ele>
        <time>2017-10-22T08:45:42Z</time>
      </trkpt>
      <trkpt lat="43.49784" lon="6.94213">
        <ele>188.31199645996</ele>
        <time>2017-10-22T08:45:47Z</time>
      </trkpt>
      <trkpt lat="43.49779" lon="6.94222">
        <ele>188.31199645996</ele>
        <time>2017-10-22T08:45:52Z</time>
      </trkpt>
      <trkpt lat="43.49772" lon="6.94227">
        <ele>190.31199645996</ele>
        <time>2017-10-22T08:45:57Z</time>
      </trkpt>
      <trkpt lat="43.49769" lon="6.94238">
        <ele>191.31199645996</ele>
        <time>2017-10-22T08:46:02Z</time>
      </trkpt>
      <trkpt lat="43.49766" lon="6.94249">
        <ele>191.31199645996</ele>
        <time>2017-10-22T08:46:08Z</time>
      </trkpt>
      <trkpt lat="43.49764" lon="6.94261">
        <ele>192.31199645996</ele>
        <time>2017-10-22T08:46:13Z</time>
      </trkpt>
      <trkpt lat="43.49763" lon="6.94284">
        <ele>189.31199645996</ele>
        <time>2017-10-22T08:46:20Z</time>
      </trkpt>
      <trkpt lat="43.49765" lon="6.94296">
        <ele>187.31199645996</ele>
        <time>2017-10-22T08:46:22Z</time>
      </trkpt>
      <trkpt lat="43.49754" lon="6.94307">
        <ele>192.31199645996</ele>
        <time>2017-10-22T08:46:41Z</time>
      </trkpt>
      <trkpt lat="43.49761" lon="6.94313">
        <ele>196.31199645996</ele>
        <time>2017-10-22T08:52:36Z</time>
      </trkpt>
      <trkpt lat="43.49768" lon="6.94318">
        <ele>198.31199645996</ele>
        <time>2017-10-22T08:52:47Z</time>
      </trkpt>
      <trkpt lat="43.49776" lon="6.94338">
        <ele>201.31199645996</ele>
        <time>2017-10-22T08:52:55Z</time>
      </trkpt>
      <trkpt lat="43.49779" lon="6.94348">
        <ele>203.31199645996</ele>
        <time>2017-10-22T08:53:00Z</time>
      </trkpt>
      <trkpt lat="43.49782" lon="6.94357">
        <ele>204.31199645996</ele>
        <time>2017-10-22T08:53:06Z</time>
      </trkpt>
      <trkpt lat="43.49784" lon="6.94371">
        <ele>208.31199645996</ele>
        <time>2017-10-22T08:53:12Z</time>
      </trkpt>
      <trkpt lat="43.49786" lon="6.94383">
        <ele>207.31199645996</ele>
        <time>2017-10-22T08:53:17Z</time>
      </trkpt>
      <trkpt lat="43.49787" lon="6.94405">
        <ele>206.31199645996</ele>
        <time>2017-10-22T08:53:25Z</time>
      </trkpt>
      <trkpt lat="43.49788" lon="6.94415">
        <ele>209.31199645996</ele>
        <time>2017-10-22T08:53:28Z</time>
      </trkpt>
      <trkpt lat="43.49789" lon="6.94438">
        <ele>208.31199645996</ele>
        <time>2017-10-22T08:53:35Z</time>
      </trkpt>
      <trkpt lat="43.49792" lon="6.94462">
        <ele>210.31199645996</ele>
        <time>2017-10-22T08:53:40Z</time>
      </trkpt>
      <trkpt lat="43.49796" lon="6.94472">
        <ele>207.31199645996</ele>
        <time>2017-10-22T08:53:42Z</time>
      </trkpt>
      <trkpt lat="43.49802" lon="6.94496">
        <ele>206.31199645996</ele>
        <time>2017-10-22T08:53:48Z</time>
      </trkpt>
      <trkpt lat="43.49812" lon="6.94521">
        <ele>204.31199645996</ele>
        <time>2017-10-22T08:53:54Z</time>
      </trkpt>
      <trkpt lat="43.49821" lon="6.94545">
        <ele>207.31199645996</ele>
        <time>2017-10-22T08:54:00Z</time>
      </trkpt>
      <trkpt lat="43.49826" lon="6.94558">
        <ele>206.31199645996</ele>
        <time>2017-10-22T08:54:03Z</time>
      </trkpt>
      <trkpt lat="43.49836" lon="6.94576">
        <ele>208.31300354004</ele>
        <time>2017-10-22T08:54:08Z</time>
      </trkpt>
      <trkpt lat="43.49849" lon="6.94598">
        <ele>206.31300354004</ele>
        <time>2017-10-22T08:54:14Z</time>
      </trkpt>
      <trkpt lat="43.49861" lon="6.94617">
        <ele>207.31300354004</ele>
        <time>2017-10-22T08:54:20Z</time>
      </trkpt>
      <trkpt lat="43.49875" lon="6.94637">
        <ele>207.31300354004</ele>
        <time>2017-10-22T08:54:26Z</time>
      </trkpt>
      <trkpt lat="43.4989" lon="6.94656">
        <ele>207.31300354004</ele>
        <time>2017-10-22T08:54:32Z</time>
      </trkpt>
      <trkpt lat="43.49904" lon="6.94668">
        <ele>209.31300354004</ele>
        <time>2017-10-22T08:54:38Z</time>
      </trkpt>
      <trkpt lat="43.49916" lon="6.94687">
        <ele>209.31300354004</ele>
        <time>2017-10-22T08:54:44Z</time>
      </trkpt>
      <trkpt lat="43.49922" lon="6.94696">
        <ele>208.31300354004</ele>
        <time>2017-10-22T08:54:47Z</time>
      </trkpt>
      <trkpt lat="43.49937" lon="6.94711">
        <ele>207.31300354004</ele>
        <time>2017-10-22T08:54:53Z</time>
      </trkpt>
      <trkpt lat="43.49944" lon="6.94719">
        <ele>205.31300354004</ele>
        <time>2017-10-22T08:54:56Z</time>
      </trkpt>
      <trkpt lat="43.49957" lon="6.94732">
        <ele>206.31300354004</ele>
        <time>2017-10-22T08:55:02Z</time>
      </trkpt>
      <trkpt lat="43.49965" lon="6.94738">
        <ele>207.31300354004</ele>
        <time>2017-10-22T08:55:05Z</time>
      </trkpt>
      <trkpt lat="43.4998" lon="6.9475">
        <ele>206.31300354004</ele>
        <time>2017-10-22T08:55:10Z</time>
      </trkpt>
      <trkpt lat="43.49997" lon="6.94762">
        <ele>206.31300354004</ele>
        <time>2017-10-22T08:55:16Z</time>
      </trkpt>
      <trkpt lat="43.50005" lon="6.94767">
        <ele>205.31300354004</ele>
        <time>2017-10-22T08:55:19Z</time>
      </trkpt>
      <trkpt lat="43.50021" lon="6.94776">
        <ele>205.31300354004</ele>
        <time>2017-10-22T08:55:25Z</time>
      </trkpt>
      <trkpt lat="43.50036" lon="6.94784">
        <ele>208.31300354004</ele>
        <time>2017-10-22T08:55:31Z</time>
      </trkpt>
      <trkpt lat="43.50042" lon="6.94792">
        <ele>210.31300354004</ele>
        <time>2017-10-22T08:55:36Z</time>
      </trkpt>
      <trkpt lat="43.5005" lon="6.94795">
        <ele>207.31300354004</ele>
        <time>2017-10-22T08:55:41Z</time>
      </trkpt>
      <trkpt lat="43.50054" lon="6.94787">
        <ele>207.31300354004</ele>
        <time>2017-10-22T08:55:55Z</time>
      </trkpt>
      <trkpt lat="43.50052" lon="6.94777">
        <ele>212.31300354004</ele>
        <time>2017-10-22T08:56:10Z</time>
      </trkpt>
      <trkpt lat="43.50048" lon="6.94768">
        <ele>213.31300354004</ele>
        <time>2017-10-22T08:56:20Z</time>
      </trkpt>
      <trkpt lat="43.50044" lon="6.94759">
        <ele>215.31300354004</ele>
        <time>2017-10-22T08:56:33Z</time>
      </trkpt>
      <trkpt lat="43.50044" lon="6.94749">
        <ele>221.31300354004</ele>
        <time>2017-10-22T08:56:51Z</time>
      </trkpt>
      <trkpt lat="43.50041" lon="6.9474">
        <ele>221.31300354004</ele>
        <time>2017-10-22T08:57:11Z</time>
      </trkpt>
      <trkpt lat="43.50035" lon="6.94733">
        <ele>222.31300354004</ele>
        <time>2017-10-22T08:57:33Z</time>
      </trkpt>
      <trkpt lat="43.5003" lon="6.94726">
        <ele>223.31300354004</ele>
        <time>2017-10-22T08:57:52Z</time>
      </trkpt>
      <trkpt lat="43.50025" lon="6.94717">
        <ele>226.31300354004</ele>
        <time>2017-10-22T08:58:04Z</time>
      </trkpt>
      <trkpt lat="43.50025" lon="6.94707">
        <ele>226.31300354004</ele>
        <time>2017-10-22T08:58:17Z</time>
      </trkpt>
      <trkpt lat="43.50021" lon="6.94697">
        <ele>231.31300354004</ele>
        <time>2017-10-22T08:58:52Z</time>
      </trkpt>
      <trkpt lat="43.50017" lon="6.94688">
        <ele>231.31300354004</ele>
        <time>2017-10-22T08:59:07Z</time>
      </trkpt>
      <trkpt lat="43.50013" lon="6.9468">
        <ele>238.31300354004</ele>
        <time>2017-10-22T08:59:34Z</time>
      </trkpt>
      <trkpt lat="43.50009" lon="6.94671">
        <ele>241.31300354004</ele>
        <time>2017-10-22T08:59:47Z</time>
      </trkpt>
      <trkpt lat="43.50006" lon="6.94662">
        <ele>242.31300354004</ele>
        <time>2017-10-22T08:59:53Z</time>
      </trkpt>
      <trkpt lat="43.50001" lon="6.94654">
        <ele>243.31300354004</ele>
        <time>2017-10-22T09:00:10Z</time>
      </trkpt>
      <trkpt lat="43.49994" lon="6.94648">
        <ele>246.31300354004</ele>
        <time>2017-10-22T09:00:16Z</time>
      </trkpt>
      <trkpt lat="43.49994" lon="6.94636">
        <ele>250.31300354004</ele>
        <time>2017-10-22T09:00:30Z</time>
      </trkpt>
      <trkpt lat="43.49993" lon="6.94626">
        <ele>249.31300354004</ele>
        <time>2017-10-22T09:00:37Z</time>
      </trkpt>
      <trkpt lat="43.49991" lon="6.94616">
        <ele>249.31300354004</ele>
        <time>2017-10-22T09:00:48Z</time>
      </trkpt>
      <trkpt lat="43.49988" lon="6.94607">
        <ele>250.31300354004</ele>
        <time>2017-10-22T09:00:58Z</time>
      </trkpt>
      <trkpt lat="43.49985" lon="6.94595">
        <ele>250.31300354004</ele>
        <time>2017-10-22T09:01:04Z</time>
      </trkpt>
      <trkpt lat="43.49976" lon="6.94592">
        <ele>254.31300354004</ele>
        <time>2017-10-22T09:01:17Z</time>
      </trkpt>
      <trkpt lat="43.49971" lon="6.94599">
        <ele>259.31298828125</ele>
        <time>2017-10-22T09:01:27Z</time>
      </trkpt>
      <trkpt lat="43.49965" lon="6.94591">
        <ele>259.31298828125</ele>
        <time>2017-10-22T09:01:56Z</time>
      </trkpt>
      <trkpt lat="43.49958" lon="6.94588">
        <ele>259.31298828125</ele>
        <time>2017-10-22T09:02:04Z</time>
      </trkpt>
      <trkpt lat="43.49953" lon="6.94579">
        <ele>256.31298828125</ele>
        <time>2017-10-22T09:02:14Z</time>
      </trkpt>
      <trkpt lat="43.49951" lon="6.94567">
        <ele>256.31298828125</ele>
        <time>2017-10-22T09:03:04Z</time>
      </trkpt>
      <trkpt lat="43.49938" lon="6.94555">
        <ele>259.31298828125</ele>
        <time>2017-10-22T09:03:16Z</time>
      </trkpt>
      <trkpt lat="43.49937" lon="6.94542">
        <ele>256.31298828125</ele>
        <time>2017-10-22T09:03:20Z</time>
      </trkpt>
      <trkpt lat="43.49921" lon="6.94531">
        <ele>251.31300354004</ele>
        <time>2017-10-22T09:03:27Z</time>
      </trkpt>
      <trkpt lat="43.49915" lon="6.94523">
        <ele>250.31300354004</ele>
        <time>2017-10-22T09:03:30Z</time>
      </trkpt>
      <trkpt lat="43.49908" lon="6.94503">
        <ele>250.31199645996</ele>
        <time>2017-10-22T09:03:36Z</time>
      </trkpt>
      <trkpt lat="43.49896" lon="6.94486">
        <ele>248.31199645996</ele>
        <time>2017-10-22T09:03:42Z</time>
      </trkpt>
      <trkpt lat="43.49887" lon="6.94467">
        <ele>246.31199645996</ele>
        <time>2017-10-22T09:03:47Z</time>
      </trkpt>
      <trkpt lat="43.49878" lon="6.94449">
        <ele>240.31199645996</ele>
        <time>2017-10-22T09:03:52Z</time>
      </trkpt>
      <trkpt lat="43.49877" lon="6.94432">
        <ele>242.31199645996</ele>
        <time>2017-10-22T09:03:59Z</time>
      </trkpt>
      <trkpt lat="43.4988" lon="6.94411">
        <ele>236.31199645996</ele>
        <time>2017-10-22T09:04:06Z</time>
      </trkpt>
      <trkpt lat="43.49882" lon="6.94391">
        <ele>236.31199645996</ele>
        <time>2017-10-22T09:04:11Z</time>
      </trkpt>
      <trkpt lat="43.49884" lon="6.9438">
        <ele>234.31199645996</ele>
        <time>2017-10-22T09:04:13Z</time>
      </trkpt>
      <trkpt lat="43.4988" lon="6.94361">
        <ele>234.31199645996</ele>
        <time>2017-10-22T09:04:18Z</time>
      </trkpt>
      <trkpt lat="43.49879" lon="6.94336">
        <ele>232.31199645996</ele>
        <time>2017-10-22T09:04:24Z</time>
      </trkpt>
      <trkpt lat="43.49878" lon="6.94325">
        <ele>230.31199645996</ele>
        <time>2017-10-22T09:04:29Z</time>
      </trkpt>
      <trkpt lat="43.49864" lon="6.94316">
        <ele>230.31199645996</ele>
        <time>2017-10-22T09:04:37Z</time>
      </trkpt>
      <trkpt lat="43.49854" lon="6.94316">
        <ele>228.31199645996</ele>
        <time>2017-10-22T09:04:39Z</time>
      </trkpt>
      <trkpt lat="43.49837" lon="6.94306">
        <ele>224.31199645996</ele>
        <time>2017-10-22T09:04:46Z</time>
      </trkpt>
      <trkpt lat="43.49836" lon="6.94294">
        <ele>218.31199645996</ele>
        <time>2017-10-22T09:04:52Z</time>
      </trkpt>
      <trkpt lat="43.49827" lon="6.94283">
        <ele>215.31199645996</ele>
        <time>2017-10-22T09:05:00Z</time>
      </trkpt>
      <trkpt lat="43.49821" lon="6.9429">
        <ele>212.31199645996</ele>
        <time>2017-10-22T09:05:09Z</time>
      </trkpt>
      <trkpt lat="43.49813" lon="6.9429">
        <ele>205.31199645996</ele>
        <time>2017-10-22T09:05:37Z</time>
      </trkpt>
      <trkpt lat="43.49804" lon="6.94286">
        <ele>203.31199645996</ele>
        <time>2017-10-22T09:05:41Z</time>
      </trkpt>
      <trkpt lat="43.49784" lon="6.94286">
        <ele>199.31199645996</ele>
        <time>2017-10-22T09:05:48Z</time>
      </trkpt>
      <trkpt lat="43.49775" lon="6.94283">
        <ele>198.31199645996</ele>
        <time>2017-10-22T09:05:50Z</time>
      </trkpt>
      <trkpt lat="43.49758" lon="6.94284">
        <ele>196.31199645996</ele>
        <time>2017-10-22T09:05:59Z</time>
      </trkpt>
      <trkpt lat="43.49751" lon="6.94308">
        <ele>196.31199645996</ele>
        <time>2017-10-22T09:06:06Z</time>
      </trkpt>
      <trkpt lat="43.49736" lon="6.94295">
        <ele>193.31199645996</ele>
        <time>2017-10-22T09:06:11Z</time>
      </trkpt>
      <trkpt lat="43.49721" lon="6.94281">
        <ele>190.31199645996</ele>
        <time>2017-10-22T09:06:17Z</time>
      </trkpt>
      <trkpt lat="43.49704" lon="6.94272">
        <ele>187.31199645996</ele>
        <time>2017-10-22T09:06:22Z</time>
      </trkpt>
      <trkpt lat="43.49688" lon="6.94258">
        <ele>186.31199645996</ele>
        <time>2017-10-22T09:06:28Z</time>
      </trkpt>
      <trkpt lat="43.49669" lon="6.9424">
        <ele>181.31199645996</ele>
        <time>2017-10-22T09:06:34Z</time>
      </trkpt>
      <trkpt lat="43.49652" lon="6.94238">
        <ele>177.31199645996</ele>
        <time>2017-10-22T09:06:40Z</time>
      </trkpt>
      <trkpt lat="43.49633" lon="6.9424">
        <ele>172.31100463867</ele>
        <time>2017-10-22T09:06:45Z</time>
      </trkpt>
      <trkpt lat="43.49615" lon="6.94252">
        <ele>170.31100463867</ele>
        <time>2017-10-22T09:06:50Z</time>
      </trkpt>
      <trkpt lat="43.49602" lon="6.94273">
        <ele>170.31199645996</ele>
        <time>2017-10-22T09:06:55Z</time>
      </trkpt>
      <trkpt lat="43.49595" lon="6.94277">
        <ele>170.31199645996</ele>
        <time>2017-10-22T09:06:57Z</time>
      </trkpt>
      <trkpt lat="43.49586" lon="6.9428">
        <ele>168.31100463867</ele>
        <time>2017-10-22T09:07:00Z</time>
      </trkpt>
      <trkpt lat="43.49569" lon="6.94285">
        <ele>165.31100463867</ele>
        <time>2017-10-22T09:07:08Z</time>
      </trkpt>
      <trkpt lat="43.4956" lon="6.94286">
        <ele>162.31100463867</ele>
        <time>2017-10-22T09:07:11Z</time>
      </trkpt>
      <trkpt lat="43.49554" lon="6.94279">
        <ele>161.31100463867</ele>
        <time>2017-10-22T09:07:13Z</time>
      </trkpt>
      <trkpt lat="43.49545" lon="6.94259">
        <ele>159.31100463867</ele>
        <time>2017-10-22T09:07:18Z</time>
      </trkpt>
      <trkpt lat="43.49541" lon="6.94249">
        <ele>160.31100463867</ele>
        <time>2017-10-22T09:07:21Z</time>
      </trkpt>
      <trkpt lat="43.49523" lon="6.94245">
        <ele>157.31100463867</ele>
        <time>2017-10-22T09:07:29Z</time>
      </trkpt>
      <trkpt lat="43.49509" lon="6.9425">
        <ele>159.31100463867</ele>
        <time>2017-10-22T09:07:35Z</time>
      </trkpt>
      <trkpt lat="43.49491" lon="6.94252">
        <ele>159.31100463867</ele>
        <time>2017-10-22T09:07:42Z</time>
      </trkpt>
      <trkpt lat="43.49474" lon="6.94248">
        <ele>160.31100463867</ele>
        <time>2017-10-22T09:07:48Z</time>
      </trkpt>
      <trkpt lat="43.49459" lon="6.94248">
        <ele>159.31100463867</ele>
        <time>2017-10-22T09:07:54Z</time>
      </trkpt>
      <trkpt lat="43.49441" lon="6.9425">
        <ele>153.31100463867</ele>
        <time>2017-10-22T09:07:59Z</time>
      </trkpt>
      <trkpt lat="43.49421" lon="6.94251">
        <ele>152.31100463867</ele>
        <time>2017-10-22T09:08:05Z</time>
      </trkpt>
      <trkpt lat="43.49398" lon="6.94258">
        <ele>153.31100463867</ele>
        <time>2017-10-22T09:08:11Z</time>
      </trkpt>
      <trkpt lat="43.49385" lon="6.94275">
        <ele>154.31100463867</ele>
        <time>2017-10-22T09:08:17Z</time>
      </trkpt>
      <trkpt lat="43.49369" lon="6.94287">
        <ele>154.31100463867</ele>
        <time>2017-10-22T09:08:22Z</time>
      </trkpt>
      <trkpt lat="43.49361" lon="6.94306">
        <ele>151.31100463867</ele>
        <time>2017-10-22T09:08:29Z</time>
      </trkpt>
      <trkpt lat="43.49362" lon="6.94316">
        <ele>150.31100463867</ele>
        <time>2017-10-22T09:08:33Z</time>
      </trkpt>
      <trkpt lat="43.49359" lon="6.94337">
        <ele>143.31100463867</ele>
        <time>2017-10-22T09:08:42Z</time>
      </trkpt>
      <trkpt lat="43.4935" lon="6.94357">
        <ele>138.31100463867</ele>
        <time>2017-10-22T09:08:49Z</time>
      </trkpt>
      <trkpt lat="43.49347" lon="6.94368">
        <ele>135.31100463867</ele>
        <time>2017-10-22T09:08:53Z</time>
      </trkpt>
      <trkpt lat="43.49335" lon="6.94383">
        <ele>132.31100463867</ele>
        <time>2017-10-22T09:09:07Z</time>
      </trkpt>
      <trkpt lat="43.49334" lon="6.94394">
        <ele>132.31100463867</ele>
        <time>2017-10-22T09:09:12Z</time>
      </trkpt>
      <trkpt lat="43.49318" lon="6.944">
        <ele>127.31099700928</ele>
        <time>2017-10-22T09:09:18Z</time>
      </trkpt>
      <trkpt lat="43.49301" lon="6.94402">
        <ele>128.31100463867</ele>
        <time>2017-10-22T09:09:23Z</time>
      </trkpt>
      <trkpt lat="43.49284" lon="6.94394">
        <ele>153.31100463867</ele>
        <time>2017-10-22T09:09:30Z</time>
      </trkpt>
      <trkpt lat="43.49268" lon="6.94388">
        <ele>117.31099700928</ele>
        <time>2017-10-22T09:09:36Z</time>
      </trkpt>
      <trkpt lat="43.49253" lon="6.94377">
        <ele>110.31099700928</ele>
        <time>2017-10-22T09:09:42Z</time>
      </trkpt>
      <trkpt lat="43.49236" lon="6.94376">
        <ele>104.31099700928</ele>
        <time>2017-10-22T09:09:50Z</time>
      </trkpt>
      <trkpt lat="43.49229" lon="6.94358">
        <ele>102.31099700928</ele>
        <time>2017-10-22T09:09:56Z</time>
      </trkpt>
      <trkpt lat="43.49228" lon="6.94332">
        <ele>101.31099700928</ele>
        <time>2017-10-22T09:10:02Z</time>
      </trkpt>
      <trkpt lat="43.49213" lon="6.94319">
        <ele>100.31099700928</ele>
        <time>2017-10-22T09:10:07Z</time>
      </trkpt>
      <trkpt lat="43.49191" lon="6.94304">
        <ele>99.310997009277</ele>
        <time>2017-10-22T09:10:13Z</time>
      </trkpt>
      <trkpt lat="43.49176" lon="6.94284">
        <ele>101.31099700928</ele>
        <time>2017-10-22T09:10:19Z</time>
      </trkpt>
      <trkpt lat="43.49158" lon="6.94259">
        <ele>97.310997009277</ele>
        <time>2017-10-22T09:10:25Z</time>
      </trkpt>
      <trkpt lat="43.49135" lon="6.9425">
        <ele>94.310997009277</ele>
        <time>2017-10-22T09:10:31Z</time>
      </trkpt>
      <trkpt lat="43.4911" lon="6.94247">
        <ele>95.310997009277</ele>
        <time>2017-10-22T09:10:38Z</time>
      </trkpt>
      <trkpt lat="43.49094" lon="6.94233">
        <ele>96.310997009277</ele>
        <time>2017-10-22T09:10:44Z</time>
      </trkpt>
      <trkpt lat="43.49088" lon="6.94224">
        <ele>95.310997009277</ele>
        <time>2017-10-22T09:10:46Z</time>
      </trkpt>
      <trkpt lat="43.49068" lon="6.94196">
        <ele>102.31099700928</ele>
        <time>2017-10-22T09:10:52Z</time>
      </trkpt>
      <trkpt lat="43.49055" lon="6.94179">
        <ele>105.30999755859</ele>
        <time>2017-10-22T09:10:56Z</time>
      </trkpt>
      <trkpt lat="43.49052" lon="6.94164">
        <ele>106.30999755859</ele>
        <time>2017-10-22T09:11:11Z</time>
      </trkpt>
      <trkpt lat="43.49057" lon="6.94157">
        <ele>108.30999755859</ele>
        <time>2017-10-22T09:11:18Z</time>
      </trkpt>
      <trkpt lat="43.49064" lon="6.94152">
        <ele>109.30999755859</ele>
        <time>2017-10-22T09:11:28Z</time>
      </trkpt>
      <trkpt lat="43.4907" lon="6.94158">
        <ele>109.30999755859</ele>
        <time>2017-10-22T09:11:37Z</time>
      </trkpt>
      <trkpt lat="43.49078" lon="6.94161">
        <ele>112.30999755859</ele>
        <time>2017-10-22T09:11:58Z</time>
      </trkpt>
      <trkpt lat="43.49085" lon="6.94166">
        <ele>113.30999755859</ele>
        <time>2017-10-22T09:12:09Z</time>
      </trkpt>
      <trkpt lat="43.49092" lon="6.94171">
        <ele>115.30999755859</ele>
        <time>2017-10-22T09:12:27Z</time>
      </trkpt>
      <trkpt lat="43.49099" lon="6.94174">
        <ele>115.31099700928</ele>
        <time>2017-10-22T09:12:43Z</time>
      </trkpt>
      <trkpt lat="43.49106" lon="6.94178">
        <ele>119.31099700928</ele>
        <time>2017-10-22T09:12:55Z</time>
      </trkpt>
      <trkpt lat="43.49112" lon="6.94183">
        <ele>120.31099700928</ele>
        <time>2017-10-22T09:13:13Z</time>
      </trkpt>
      <trkpt lat="43.4912" lon="6.94184">
        <ele>122.31099700928</ele>
        <time>2017-10-22T09:13:25Z</time>
      </trkpt>
      <trkpt lat="43.49127" lon="6.94186">
        <ele>123.31099700928</ele>
        <time>2017-10-22T09:13:35Z</time>
      </trkpt>
      <trkpt lat="43.49135" lon="6.94187">
        <ele>127.31099700928</ele>
        <time>2017-10-22T09:13:48Z</time>
      </trkpt>
      <trkpt lat="43.49143" lon="6.94186">
        <ele>130.31100463867</ele>
        <time>2017-10-22T09:13:58Z</time>
      </trkpt>
      <trkpt lat="43.4915" lon="6.94184">
        <ele>130.31100463867</ele>
        <time>2017-10-22T09:14:07Z</time>
      </trkpt>
      <trkpt lat="43.49157" lon="6.94181">
        <ele>132.31100463867</ele>
        <time>2017-10-22T09:14:39Z</time>
      </trkpt>
      <trkpt lat="43.49164" lon="6.94178">
        <ele>135.31100463867</ele>
        <time>2017-10-22T09:15:00Z</time>
      </trkpt>
      <trkpt lat="43.49172" lon="6.94179">
        <ele>133.31100463867</ele>
        <time>2017-10-22T09:15:08Z</time>
      </trkpt>
      <trkpt lat="43.49179" lon="6.94177">
        <ele>135.31100463867</ele>
        <time>2017-10-22T09:15:22Z</time>
      </trkpt>
      <trkpt lat="43.49187" lon="6.94176">
        <ele>134.31100463867</ele>
        <time>2017-10-22T09:15:32Z</time>
      </trkpt>
      <trkpt lat="43.49194" lon="6.94178">
        <ele>141.31100463867</ele>
        <time>2017-10-22T09:15:47Z</time>
      </trkpt>
      <trkpt lat="43.49201" lon="6.94178">
        <ele>144.31100463867</ele>
        <time>2017-10-22T09:15:59Z</time>
      </trkpt>
      <trkpt lat="43.49209" lon="6.94179">
        <ele>142.31100463867</ele>
        <time>2017-10-22T09:16:08Z</time>
      </trkpt>
      <trkpt lat="43.49216" lon="6.94182">
        <ele>147.31100463867</ele>
        <time>2017-10-22T09:16:30Z</time>
      </trkpt>
      <trkpt lat="43.49223" lon="6.94182">
        <ele>145.31100463867</ele>
        <time>2017-10-22T09:16:40Z</time>
      </trkpt>
      <trkpt lat="43.49231" lon="6.94185">
        <ele>149.31100463867</ele>
        <time>2017-10-22T09:16:54Z</time>
      </trkpt>
      <trkpt lat="43.49238" lon="6.94186">
        <ele>150.31100463867</ele>
        <time>2017-10-22T09:17:05Z</time>
      </trkpt>
      <trkpt lat="43.49245" lon="6.94192">
        <ele>154.31100463867</ele>
        <time>2017-10-22T09:17:22Z</time>
      </trkpt>
      <trkpt lat="43.49252" lon="6.94194">
        <ele>155.31100463867</ele>
        <time>2017-10-22T09:17:32Z</time>
      </trkpt>
      <trkpt lat="43.49259" lon="6.94199">
        <ele>158.31100463867</ele>
        <time>2017-10-22T09:17:44Z</time>
      </trkpt>
      <trkpt lat="43.49266" lon="6.94203">
        <ele>159.31100463867</ele>
        <time>2017-10-22T09:17:57Z</time>
      </trkpt>
      <trkpt lat="43.49273" lon="6.94207">
        <ele>158.31100463867</ele>
        <time>2017-10-22T09:18:06Z</time>
      </trkpt>
      <trkpt lat="43.49281" lon="6.9421">
        <ele>157.31100463867</ele>
        <time>2017-10-22T09:18:15Z</time>
      </trkpt>
      <trkpt lat="43.49288" lon="6.94212">
        <ele>159.31100463867</ele>
        <time>2017-10-22T09:18:24Z</time>
      </trkpt>
      <trkpt lat="43.49295" lon="6.94217">
        <ele>161.31100463867</ele>
        <time>2017-10-22T09:18:41Z</time>
      </trkpt>
      <trkpt lat="43.49302" lon="6.94221">
        <ele>166.31100463867</ele>
        <time>2017-10-22T09:18:47Z</time>
      </trkpt>
      <trkpt lat="43.49309" lon="6.94225">
        <ele>165.31100463867</ele>
        <time>2017-10-22T09:18:53Z</time>
      </trkpt>
      <trkpt lat="43.49323" lon="6.94234">
        <ele>164.31100463867</ele>
        <time>2017-10-22T09:19:02Z</time>
      </trkpt>
      <trkpt lat="43.49331" lon="6.94236">
        <ele>167.31100463867</ele>
        <time>2017-10-22T09:19:07Z</time>
      </trkpt>
      <trkpt lat="43.4934" lon="6.94237">
        <ele>168.31100463867</ele>
        <time>2017-10-22T09:19:12Z</time>
      </trkpt>
      <trkpt lat="43.49345" lon="6.94229">
        <ele>166.31100463867</ele>
        <time>2017-10-22T09:19:18Z</time>
      </trkpt>
      <trkpt lat="43.49345" lon="6.94219">
        <ele>166.31100463867</ele>
        <time>2017-10-22T09:19:23Z</time>
      </trkpt>
      <trkpt lat="43.49344" lon="6.94209">
        <ele>169.31100463867</ele>
        <time>2017-10-22T09:19:29Z</time>
      </trkpt>
      <trkpt lat="43.49344" lon="6.94198">
        <ele>168.31100463867</ele>
        <time>2017-10-22T09:19:35Z</time>
      </trkpt>
      <trkpt lat="43.49343" lon="6.94187">
        <ele>168.31100463867</ele>
        <time>2017-10-22T09:19:41Z</time>
      </trkpt>
      <trkpt lat="43.49342" lon="6.94176">
        <ele>169.31100463867</ele>
        <time>2017-10-22T09:19:48Z</time>
      </trkpt>
      <trkpt lat="43.49341" lon="6.94164">
        <ele>168.31100463867</ele>
        <time>2017-10-22T09:19:55Z</time>
      </trkpt>
      <trkpt lat="43.49339" lon="6.94155">
        <ele>169.31100463867</ele>
        <time>2017-10-22T09:20:01Z</time>
      </trkpt>
      <trkpt lat="43.49339" lon="6.94143">
        <ele>171.31100463867</ele>
        <time>2017-10-22T09:20:07Z</time>
      </trkpt>
      <trkpt lat="43.49337" lon="6.94134">
        <ele>174.31100463867</ele>
        <time>2017-10-22T09:20:13Z</time>
      </trkpt>
      <trkpt lat="43.49336" lon="6.94111">
        <ele>174.31100463867</ele>
        <time>2017-10-22T09:20:23Z</time>
      </trkpt>
      <trkpt lat="43.49335" lon="6.94101">
        <ele>175.31100463867</ele>
        <time>2017-10-22T09:20:28Z</time>
      </trkpt>
      <trkpt lat="43.49334" lon="6.9409">
        <ele>175.31100463867</ele>
        <time>2017-10-22T09:20:34Z</time>
      </trkpt>
      <trkpt lat="43.49334" lon="6.94079">
        <ele>176.31100463867</ele>
        <time>2017-10-22T09:20:42Z</time>
      </trkpt>
      <trkpt lat="43.49333" lon="6.94068">
        <ele>175.31100463867</ele>
        <time>2017-10-22T09:20:47Z</time>
      </trkpt>
      <trkpt lat="43.49331" lon="6.94058">
        <ele>179.31100463867</ele>
        <time>2017-10-22T09:20:53Z</time>
      </trkpt>
      <trkpt lat="43.4933" lon="6.94047">
        <ele>181.31100463867</ele>
        <time>2017-10-22T09:20:58Z</time>
      </trkpt>
      <trkpt lat="43.49331" lon="6.94035">
        <ele>182.31100463867</ele>
        <time>2017-10-22T09:21:02Z</time>
      </trkpt>
      <trkpt lat="43.49331" lon="6.94014">
        <ele>179.31100463867</ele>
        <time>2017-10-22T09:21:11Z</time>
      </trkpt>
      <trkpt lat="43.4933" lon="6.94002">
        <ele>181.30999755859</ele>
        <time>2017-10-22T09:21:16Z</time>
      </trkpt>
      <trkpt lat="43.49327" lon="6.9399">
        <ele>181.30999755859</ele>
        <time>2017-10-22T09:21:21Z</time>
      </trkpt>
      <trkpt lat="43.49325" lon="6.93977">
        <ele>182.30999755859</ele>
        <time>2017-10-22T09:21:25Z</time>
      </trkpt>
      <trkpt lat="43.49323" lon="6.93966">
        <ele>183.30999755859</ele>
        <time>2017-10-22T09:21:30Z</time>
      </trkpt>
      <trkpt lat="43.49319" lon="6.93956">
        <ele>186.30999755859</ele>
        <time>2017-10-22T09:21:36Z</time>
      </trkpt>
      <trkpt lat="43.49317" lon="6.93945">
        <ele>185.30999755859</ele>
        <time>2017-10-22T09:21:41Z</time>
      </trkpt>
      <trkpt lat="43.49314" lon="6.93935">
        <ele>184.30999755859</ele>
        <time>2017-10-22T09:21:48Z</time>
      </trkpt>
      <trkpt lat="43.49311" lon="6.93925">
        <ele>186.30999755859</ele>
        <time>2017-10-22T09:21:53Z</time>
      </trkpt>
      <trkpt lat="43.49309" lon="6.93914">
        <ele>185.30999755859</ele>
        <time>2017-10-22T09:21:58Z</time>
      </trkpt>
      <trkpt lat="43.49306" lon="6.93903">
        <ele>188.30999755859</ele>
        <time>2017-10-22T09:22:04Z</time>
      </trkpt>
      <trkpt lat="43.49304" lon="6.93892">
        <ele>189.30999755859</ele>
        <time>2017-10-22T09:22:10Z</time>
      </trkpt>
      <trkpt lat="43.49303" lon="6.93878">
        <ele>187.30999755859</ele>
        <time>2017-10-22T09:22:15Z</time>
      </trkpt>
      <trkpt lat="43.49301" lon="6.93868">
        <ele>188.30999755859</ele>
        <time>2017-10-22T09:22:20Z</time>
      </trkpt>
      <trkpt lat="43.49299" lon="6.93846">
        <ele>189.30999755859</ele>
        <time>2017-10-22T09:22:47Z</time>
      </trkpt>
      <trkpt lat="43.49303" lon="6.93823">
        <ele>188.30999755859</ele>
        <time>2017-10-22T09:22:54Z</time>
      </trkpt>
      <trkpt lat="43.49308" lon="6.93798">
        <ele>186.30999755859</ele>
        <time>2017-10-22T09:22:59Z</time>
      </trkpt>
      <trkpt lat="43.49312" lon="6.93774">
        <ele>186.30999755859</ele>
        <time>2017-10-22T09:23:04Z</time>
      </trkpt>
      <trkpt lat="43.49308" lon="6.93752">
        <ele>187.30999755859</ele>
        <time>2017-10-22T09:24:26Z</time>
      </trkpt>
      <trkpt lat="43.49301" lon="6.9373">
        <ele>189.30999755859</ele>
        <time>2017-10-22T09:24:32Z</time>
      </trkpt>
      <trkpt lat="43.49299" lon="6.9372">
        <ele>191.30999755859</ele>
        <time>2017-10-22T09:24:34Z</time>
      </trkpt>
      <trkpt lat="43.493" lon="6.93695">
        <ele>188.30999755859</ele>
        <time>2017-10-22T09:24:39Z</time>
      </trkpt>
      <trkpt lat="43.49312" lon="6.93682">
        <ele>188.30999755859</ele>
        <time>2017-10-22T09:24:59Z</time>
      </trkpt>
      <trkpt lat="43.49332" lon="6.93647">
        <ele>182.30999755859</ele>
        <time>2017-10-22T09:25:05Z</time>
      </trkpt>
      <trkpt lat="43.49341" lon="6.93599">
        <ele>181.30999755859</ele>
        <time>2017-10-22T09:25:11Z</time>
      </trkpt>
      <trkpt lat="43.49362" lon="6.93562">
        <ele>186.30999755859</ele>
        <time>2017-10-22T09:25:17Z</time>
      </trkpt>
      <trkpt lat="43.49367" lon="6.93553">
        <ele>183.30999755859</ele>
        <time>2017-10-22T09:25:19Z</time>
      </trkpt>
      <trkpt lat="43.49383" lon="6.93528">
        <ele>181.30900573731</ele>
        <time>2017-10-22T09:25:25Z</time>
      </trkpt>
      <trkpt lat="43.49399" lon="6.93498">
        <ele>178.30900573731</ele>
        <time>2017-10-22T09:25:32Z</time>
      </trkpt>
      <trkpt lat="43.49407" lon="6.93474">
        <ele>180.30900573731</ele>
        <time>2017-10-22T09:25:41Z</time>
      </trkpt>
      <trkpt lat="43.49408" lon="6.93462">
        <ele>176.30900573731</ele>
        <time>2017-10-22T09:25:43Z</time>
      </trkpt>
      <trkpt lat="43.49417" lon="6.93445">
        <ele>174.30900573731</ele>
        <time>2017-10-22T09:25:49Z</time>
      </trkpt>
      <trkpt lat="43.49433" lon="6.93447">
        <ele>169.30900573731</ele>
        <time>2017-10-22T09:25:58Z</time>
      </trkpt>
      <trkpt lat="43.49431" lon="6.93469">
        <ele>167.30900573731</ele>
        <time>2017-10-22T09:26:05Z</time>
      </trkpt>
      <trkpt lat="43.49436" lon="6.93491">
        <ele>162.30900573731</ele>
        <time>2017-10-22T09:26:12Z</time>
      </trkpt>
      <trkpt lat="43.49436" lon="6.93502">
        <ele>161.30999755859</ele>
        <time>2017-10-22T09:26:17Z</time>
      </trkpt>
      <trkpt lat="43.49439" lon="6.93525">
        <ele>162.30999755859</ele>
        <time>2017-10-22T09:26:24Z</time>
      </trkpt>
      <trkpt lat="43.4944" lon="6.93538">
        <ele>159.30999755859</ele>
        <time>2017-10-22T09:26:27Z</time>
      </trkpt>
      <trkpt lat="43.4945" lon="6.93558">
        <ele>151.30999755859</ele>
        <time>2017-10-22T09:26:35Z</time>
      </trkpt>
      <trkpt lat="43.49458" lon="6.9358">
        <ele>148.30999755859</ele>
        <time>2017-10-22T09:26:41Z</time>
      </trkpt>
      <trkpt lat="43.49463" lon="6.93589">
        <ele>141.30999755859</ele>
        <time>2017-10-22T09:26:46Z</time>
      </trkpt>
      <trkpt lat="43.49471" lon="6.93588">
        <ele>141.30999755859</ele>
        <time>2017-10-22T09:26:53Z</time>
      </trkpt>
      <trkpt lat="43.49481" lon="6.93609">
        <ele>135.30999755859</ele>
        <time>2017-10-22T09:26:59Z</time>
      </trkpt>
      <trkpt lat="43.49488" lon="6.93612">
        <ele>128.30999755859</ele>
        <time>2017-10-22T09:27:03Z</time>
      </trkpt>
      <trkpt lat="43.49503" lon="6.93607">
        <ele>121.30999755859</ele>
        <time>2017-10-22T09:27:11Z</time>
      </trkpt>
      <trkpt lat="43.49513" lon="6.93628">
        <ele>116.30999755859</ele>
        <time>2017-10-22T09:27:18Z</time>
      </trkpt>
      <trkpt lat="43.4952" lon="6.93631">
        <ele>111.30999755859</ele>
        <time>2017-10-22T09:27:24Z</time>
      </trkpt>
      <trkpt lat="43.49528" lon="6.93633">
        <ele>109.30999755859</ele>
        <time>2017-10-22T09:27:28Z</time>
      </trkpt>
      <trkpt lat="43.49538" lon="6.9365">
        <ele>100.30999755859</ele>
        <time>2017-10-22T09:27:39Z</time>
      </trkpt>
      <trkpt lat="43.49551" lon="6.9363">
        <ele>100.30999755859</ele>
        <time>2017-10-22T09:27:47Z</time>
      </trkpt>
      <trkpt lat="43.49551" lon="6.93617">
        <ele>98.309997558594</ele>
        <time>2017-10-22T09:27:51Z</time>
      </trkpt>
      <trkpt lat="43.49563" lon="6.93609">
        <ele>94.309997558594</ele>
        <time>2017-10-22T09:27:58Z</time>
      </trkpt>
      <trkpt lat="43.49577" lon="6.93626">
        <ele>86.309997558594</ele>
        <time>2017-10-22T09:28:05Z</time>
      </trkpt>
      <trkpt lat="43.49586" lon="6.93643">
        <ele>87.309997558594</ele>
        <time>2017-10-22T09:28:11Z</time>
      </trkpt>
      <trkpt lat="43.49593" lon="6.93648">
        <ele>76.309997558594</ele>
        <time>2017-10-22T09:28:18Z</time>
      </trkpt>
      <trkpt lat="43.496" lon="6.93662">
        <ele>72.309997558594</ele>
        <time>2017-10-22T09:28:24Z</time>
      </trkpt>
      <trkpt lat="43.49591" lon="6.9368">
        <ele>71.309997558594</ele>
        <time>2017-10-22T09:28:33Z</time>
      </trkpt>
      <trkpt lat="43.49599" lon="6.93679">
        <ele>64.309997558594</ele>
        <time>2017-10-22T09:28:37Z</time>
      </trkpt>
      <trkpt lat="43.49612" lon="6.93664">
        <ele>60.310001373291</ele>
        <time>2017-10-22T09:28:45Z</time>
      </trkpt>
      <trkpt lat="43.49616" lon="6.93653">
        <ele>60.310001373291</ele>
        <time>2017-10-22T09:28:52Z</time>
      </trkpt>
      <trkpt lat="43.49623" lon="6.93635">
        <ele>71.309997558594</ele>
        <time>2017-10-22T09:29:02Z</time>
      </trkpt>
      <trkpt lat="43.49623" lon="6.93624">
        <ele>68.309997558594</ele>
        <time>2017-10-22T09:29:07Z</time>
      </trkpt>
      <trkpt lat="43.49628" lon="6.93614">
        <ele>64.309997558594</ele>
        <time>2017-10-22T09:29:12Z</time>
      </trkpt>
      <trkpt lat="43.4963" lon="6.93604">
        <ele>65.309997558594</ele>
        <time>2017-10-22T09:29:17Z</time>
      </trkpt>
      <trkpt lat="43.49633" lon="6.93595">
        <ele>65.309997558594</ele>
        <time>2017-10-22T09:29:22Z</time>
      </trkpt>
      <trkpt lat="43.49635" lon="6.93585">
        <ele>64.309997558594</ele>
        <time>2017-10-22T09:29:26Z</time>
      </trkpt>
      <trkpt lat="43.49637" lon="6.93575">
        <ele>66.309997558594</ele>
        <time>2017-10-22T09:29:31Z</time>
      </trkpt>
      <trkpt lat="43.4964" lon="6.93565">
        <ele>68.309997558594</ele>
        <time>2017-10-22T09:29:36Z</time>
      </trkpt>
      <trkpt lat="43.49643" lon="6.93555">
        <ele>67.309997558594</ele>
        <time>2017-10-22T09:29:41Z</time>
      </trkpt>
      <trkpt lat="43.49647" lon="6.93546">
        <ele>68.309997558594</ele>
        <time>2017-10-22T09:29:46Z</time>
      </trkpt>
      <trkpt lat="43.4965" lon="6.93537">
        <ele>67.309997558594</ele>
        <time>2017-10-22T09:29:52Z</time>
      </trkpt>
      <trkpt lat="43.49652" lon="6.93526">
        <ele>66.309997558594</ele>
        <time>2017-10-22T09:29:57Z</time>
      </trkpt>
      <trkpt lat="43.49657" lon="6.93518">
        <ele>67.309997558594</ele>
        <time>2017-10-22T09:30:02Z</time>
      </trkpt>
      <trkpt lat="43.49663" lon="6.93511">
        <ele>70.309997558594</ele>
        <time>2017-10-22T09:30:08Z</time>
      </trkpt>
      <trkpt lat="43.49667" lon="6.935">
        <ele>70.309997558594</ele>
        <time>2017-10-22T09:30:13Z</time>
      </trkpt>
      <trkpt lat="43.49667" lon="6.9349">
        <ele>71.309997558594</ele>
        <time>2017-10-22T09:30:18Z</time>
      </trkpt>
      <trkpt lat="43.49666" lon="6.9348">
        <ele>72.309997558594</ele>
        <time>2017-10-22T09:30:24Z</time>
      </trkpt>
      <trkpt lat="43.49665" lon="6.93469">
        <ele>74.309997558594</ele>
        <time>2017-10-22T09:30:31Z</time>
      </trkpt>
      <trkpt lat="43.49662" lon="6.93459">
        <ele>78.309997558594</ele>
        <time>2017-10-22T09:30:38Z</time>
      </trkpt>
      <trkpt lat="43.4966" lon="6.93447">
        <ele>76.309997558594</ele>
        <time>2017-10-22T09:30:43Z</time>
      </trkpt>
      <trkpt lat="43.49656" lon="6.93438">
        <ele>78.309997558594</ele>
        <time>2017-10-22T09:30:48Z</time>
      </trkpt>
      <trkpt lat="43.49651" lon="6.9343">
        <ele>79.309997558594</ele>
        <time>2017-10-22T09:30:54Z</time>
      </trkpt>
      <trkpt lat="43.49645" lon="6.93423">
        <ele>81.309997558594</ele>
        <time>2017-10-22T09:31:00Z</time>
      </trkpt>
      <trkpt lat="43.49639" lon="6.93416">
        <ele>83.309997558594</ele>
        <time>2017-10-22T09:31:06Z</time>
      </trkpt>
      <trkpt lat="43.49634" lon="6.93408">
        <ele>86.309997558594</ele>
        <time>2017-10-22T09:31:12Z</time>
      </trkpt>
      <trkpt lat="43.4963" lon="6.93398">
        <ele>85.309997558594</ele>
        <time>2017-10-22T09:31:17Z</time>
      </trkpt>
      <trkpt lat="43.49623" lon="6.93393">
        <ele>87.309997558594</ele>
        <time>2017-10-22T09:31:22Z</time>
      </trkpt>
      <trkpt lat="43.49615" lon="6.9339">
        <ele>88.309997558594</ele>
        <time>2017-10-22T09:31:28Z</time>
      </trkpt>
      <trkpt lat="43.49608" lon="6.93384">
        <ele>88.309997558594</ele>
        <time>2017-10-22T09:31:33Z</time>
      </trkpt>
      <trkpt lat="43.49601" lon="6.93379">
        <ele>91.30899810791</ele>
        <time>2017-10-22T09:31:40Z</time>
      </trkpt>
      <trkpt lat="43.49594" lon="6.93376">
        <ele>90.30899810791</ele>
        <time>2017-10-22T09:31:46Z</time>
      </trkpt>
      <trkpt lat="43.49586" lon="6.93373">
        <ele>89.30899810791</ele>
        <time>2017-10-22T09:31:51Z</time>
      </trkpt>
      <trkpt lat="43.49577" lon="6.93369">
        <ele>90.30899810791</ele>
        <time>2017-10-22T09:31:56Z</time>
      </trkpt>
      <trkpt lat="43.49571" lon="6.9336">
        <ele>90.30899810791</ele>
        <time>2017-10-22T09:32:01Z</time>
      </trkpt>
      <trkpt lat="43.49577" lon="6.93341">
        <ele>90.30899810791</ele>
        <time>2017-10-22T09:32:10Z</time>
      </trkpt>
      <trkpt lat="43.49582" lon="6.93333">
        <ele>90.30899810791</ele>
        <time>2017-10-22T09:32:15Z</time>
      </trkpt>
      <trkpt lat="43.49597" lon="6.93322">
        <ele>89.30899810791</ele>
        <time>2017-10-22T09:32:23Z</time>
      </trkpt>
      <trkpt lat="43.49605" lon="6.93317">
        <ele>91.30899810791</ele>
        <time>2017-10-22T09:32:28Z</time>
      </trkpt>
      <trkpt lat="43.49611" lon="6.93312">
        <ele>90.30899810791</ele>
        <time>2017-10-22T09:32:33Z</time>
      </trkpt>
      <trkpt lat="43.49616" lon="6.93302">
        <ele>89.30899810791</ele>
        <time>2017-10-22T09:32:37Z</time>
      </trkpt>
      <trkpt lat="43.4962" lon="6.93293">
        <ele>88.30899810791</ele>
        <time>2017-10-22T09:32:41Z</time>
      </trkpt>
      <trkpt lat="43.49622" lon="6.93282">
        <ele>92.30899810791</ele>
        <time>2017-10-22T09:32:46Z</time>
      </trkpt>
      <trkpt lat="43.49621" lon="6.9327">
        <ele>90.30899810791</ele>
        <time>2017-10-22T09:32:52Z</time>
      </trkpt>
      <trkpt lat="43.49618" lon="6.93259">
        <ele>89.30899810791</ele>
        <time>2017-10-22T09:32:57Z</time>
      </trkpt>
      <trkpt lat="43.49614" lon="6.93249">
        <ele>89.30899810791</ele>
        <time>2017-10-22T09:33:02Z</time>
      </trkpt>
      <trkpt lat="43.49607" lon="6.93242">
        <ele>90.30899810791</ele>
        <time>2017-10-22T09:33:07Z</time>
      </trkpt>
      <trkpt lat="43.49592" lon="6.93231">
        <ele>93.30899810791</ele>
        <time>2017-10-22T09:33:16Z</time>
      </trkpt>
      <trkpt lat="43.49586" lon="6.93224">
        <ele>93.30899810791</ele>
        <time>2017-10-22T09:33:19Z</time>
      </trkpt>
      <trkpt lat="43.49573" lon="6.93208">
        <ele>91.30899810791</ele>
        <time>2017-10-22T09:33:25Z</time>
      </trkpt>
      <trkpt lat="43.49579" lon="6.93186">
        <ele>93.30899810791</ele>
        <time>2017-10-22T09:33:32Z</time>
      </trkpt>
      <trkpt lat="43.49592" lon="6.9317">
        <ele>92.30899810791</ele>
        <time>2017-10-22T09:33:39Z</time>
      </trkpt>
      <trkpt lat="43.49603" lon="6.93154">
        <ele>93.30899810791</ele>
        <time>2017-10-22T09:33:46Z</time>
      </trkpt>
      <trkpt lat="43.49615" lon="6.93138">
        <ele>94.30899810791</ele>
        <time>2017-10-22T09:33:52Z</time>
      </trkpt>
      <trkpt lat="43.4962" lon="6.93128">
        <ele>93.30899810791</ele>
        <time>2017-10-22T09:33:55Z</time>
      </trkpt>
      <trkpt lat="43.49628" lon="6.93108">
        <ele>94.30899810791</ele>
        <time>2017-10-22T09:34:03Z</time>
      </trkpt>
      <trkpt lat="43.4963" lon="6.93096">
        <ele>96.30899810791</ele>
        <time>2017-10-22T09:34:07Z</time>
      </trkpt>
      <trkpt lat="43.49633" lon="6.93074">
        <ele>98.30899810791</ele>
        <time>2017-10-22T09:34:17Z</time>
      </trkpt>
      <trkpt lat="43.49634" lon="6.93064">
        <ele>100.30899810791</ele>
        <time>2017-10-22T09:34:23Z</time>
      </trkpt>
      <trkpt lat="43.4963" lon="6.93053">
        <ele>103.30899810791</ele>
        <time>2017-10-22T09:34:30Z</time>
      </trkpt>
      <trkpt lat="43.49622" lon="6.9305">
        <ele>104.30899810791</ele>
        <time>2017-10-22T09:34:35Z</time>
      </trkpt>
      <trkpt lat="43.49616" lon="6.93044">
        <ele>105.30899810791</ele>
        <time>2017-10-22T09:34:41Z</time>
      </trkpt>
      <trkpt lat="43.49609" lon="6.93039">
        <ele>105.30899810791</ele>
        <time>2017-10-22T09:34:46Z</time>
      </trkpt>
      <trkpt lat="43.49602" lon="6.93033">
        <ele>106.30899810791</ele>
        <time>2017-10-22T09:34:52Z</time>
      </trkpt>
      <trkpt lat="43.49593" lon="6.9303">
        <ele>107.30899810791</ele>
        <time>2017-10-22T09:34:57Z</time>
      </trkpt>
      <trkpt lat="43.49589" lon="6.93021">
        <ele>108.30899810791</ele>
        <time>2017-10-22T09:35:01Z</time>
      </trkpt>
      <trkpt lat="43.4959" lon="6.93009">
        <ele>110.30899810791</ele>
        <time>2017-10-22T09:35:06Z</time>
      </trkpt>
      <trkpt lat="43.49592" lon="6.92987">
        <ele>110.30899810791</ele>
        <time>2017-10-22T09:35:14Z</time>
      </trkpt>
      <trkpt lat="43.49589" lon="6.92978">
        <ele>109.30899810791</ele>
        <time>2017-10-22T09:35:19Z</time>
      </trkpt>
      <trkpt lat="43.49584" lon="6.92969">
        <ele>109.30899810791</ele>
        <time>2017-10-22T09:35:24Z</time>
      </trkpt>
      <trkpt lat="43.4958" lon="6.92959">
        <ele>112.30899810791</ele>
        <time>2017-10-22T09:35:29Z</time>
      </trkpt>
      <trkpt lat="43.49572" lon="6.92939">
        <ele>110.30799865723</ele>
        <time>2017-10-22T09:35:38Z</time>
      </trkpt>
      <trkpt lat="43.49567" lon="6.92919">
        <ele>110.30799865723</ele>
        <time>2017-10-22T09:35:47Z</time>
      </trkpt>
      <trkpt lat="43.49562" lon="6.9291">
        <ele>112.30799865723</ele>
        <time>2017-10-22T09:35:53Z</time>
      </trkpt>
      <trkpt lat="43.49557" lon="6.92902">
        <ele>111.30799865723</ele>
        <time>2017-10-22T09:35:59Z</time>
      </trkpt>
      <trkpt lat="43.49552" lon="6.92894">
        <ele>113.30799865723</ele>
        <time>2017-10-22T09:36:04Z</time>
      </trkpt>
      <trkpt lat="43.49546" lon="6.92888">
        <ele>115.30799865723</ele>
        <time>2017-10-22T09:36:09Z</time>
      </trkpt>
      <trkpt lat="43.49539" lon="6.92882">
        <ele>117.30799865723</ele>
        <time>2017-10-22T09:36:16Z</time>
      </trkpt>
      <trkpt lat="43.49535" lon="6.92873">
        <ele>116.30799865723</ele>
        <time>2017-10-22T09:36:21Z</time>
      </trkpt>
      <trkpt lat="43.49529" lon="6.92864">
        <ele>118.30799865723</ele>
        <time>2017-10-22T09:36:28Z</time>
      </trkpt>
      <trkpt lat="43.49523" lon="6.92856">
        <ele>119.30799865723</ele>
        <time>2017-10-22T09:36:34Z</time>
      </trkpt>
      <trkpt lat="43.49516" lon="6.92851">
        <ele>121.30799865723</ele>
        <time>2017-10-22T09:36:40Z</time>
      </trkpt>
      <trkpt lat="43.49509" lon="6.92846">
        <ele>121.30799865723</ele>
        <time>2017-10-22T09:36:45Z</time>
      </trkpt>
      <trkpt lat="43.49503" lon="6.92825">
        <ele>122.30799865723</ele>
        <time>2017-10-22T09:36:53Z</time>
      </trkpt>
      <trkpt lat="43.49501" lon="6.92815">
        <ele>120.30799865723</ele>
        <time>2017-10-22T09:36:57Z</time>
      </trkpt>
      <trkpt lat="43.495" lon="6.92803">
        <ele>121.30799865723</ele>
        <time>2017-10-22T09:37:02Z</time>
      </trkpt>
      <trkpt lat="43.49496" lon="6.92794">
        <ele>123.30799865723</ele>
        <time>2017-10-22T09:37:07Z</time>
      </trkpt>
      <trkpt lat="43.49491" lon="6.92786">
        <ele>126.30799865723</ele>
        <time>2017-10-22T09:37:12Z</time>
      </trkpt>
      <trkpt lat="43.49484" lon="6.92765">
        <ele>129.30799865723</ele>
        <time>2017-10-22T09:37:21Z</time>
      </trkpt>
      <trkpt lat="43.49481" lon="6.92755">
        <ele>130.30799865723</ele>
        <time>2017-10-22T09:37:26Z</time>
      </trkpt>
      <trkpt lat="43.49474" lon="6.92732">
        <ele>130.30799865723</ele>
        <time>2017-10-22T09:37:35Z</time>
      </trkpt>
      <trkpt lat="43.49471" lon="6.92722">
        <ele>131.30799865723</ele>
        <time>2017-10-22T09:37:40Z</time>
      </trkpt>
      <trkpt lat="43.4947" lon="6.92711">
        <ele>131.30799865723</ele>
        <time>2017-10-22T09:37:45Z</time>
      </trkpt>
      <trkpt lat="43.4947" lon="6.92691">
        <ele>133.30799865723</ele>
        <time>2017-10-22T09:37:52Z</time>
      </trkpt>
      <trkpt lat="43.49471" lon="6.9268">
        <ele>133.30799865723</ele>
        <time>2017-10-22T09:37:57Z</time>
      </trkpt>
      <trkpt lat="43.49474" lon="6.92669">
        <ele>135.30799865723</ele>
        <time>2017-10-22T09:38:02Z</time>
      </trkpt>
      <trkpt lat="43.49477" lon="6.92648">
        <ele>137.30799865723</ele>
        <time>2017-10-22T09:38:11Z</time>
      </trkpt>
      <trkpt lat="43.49476" lon="6.92626">
        <ele>134.30799865723</ele>
        <time>2017-10-22T09:38:20Z</time>
      </trkpt>
      <trkpt lat="43.4947" lon="6.92606">
        <ele>135.30799865723</ele>
        <time>2017-10-22T09:38:28Z</time>
      </trkpt>
      <trkpt lat="43.49463" lon="6.92589">
        <ele>138.30799865723</ele>
        <time>2017-10-22T09:38:36Z</time>
      </trkpt>
      <trkpt lat="43.49458" lon="6.92581">
        <ele>139.30700683594</ele>
        <time>2017-10-22T09:38:41Z</time>
      </trkpt>
      <trkpt lat="43.49453" lon="6.92572">
        <ele>138.30700683594</ele>
        <time>2017-10-22T09:38:45Z</time>
      </trkpt>
      <trkpt lat="43.49441" lon="6.92557">
        <ele>146.30700683594</ele>
        <time>2017-10-22T09:38:53Z</time>
      </trkpt>
      <trkpt lat="43.49434" lon="6.92537">
        <ele>143.30700683594</ele>
        <time>2017-10-22T09:39:02Z</time>
      </trkpt>
      <trkpt lat="43.49431" lon="6.92526">
        <ele>143.30700683594</ele>
        <time>2017-10-22T09:39:07Z</time>
      </trkpt>
      <trkpt lat="43.49431" lon="6.92516">
        <ele>142.30700683594</ele>
        <time>2017-10-22T09:39:11Z</time>
      </trkpt>
      <trkpt lat="43.4943" lon="6.92505">
        <ele>142.30700683594</ele>
        <time>2017-10-22T09:39:16Z</time>
      </trkpt>
      <trkpt lat="43.49427" lon="6.92482">
        <ele>142.30700683594</ele>
        <time>2017-10-22T09:39:25Z</time>
      </trkpt>
      <trkpt lat="43.49426" lon="6.92471">
        <ele>145.30700683594</ele>
        <time>2017-10-22T09:39:30Z</time>
      </trkpt>
      <trkpt lat="43.49423" lon="6.9245">
        <ele>146.30700683594</ele>
        <time>2017-10-22T09:39:39Z</time>
      </trkpt>
      <trkpt lat="43.49423" lon="6.92439">
        <ele>146.30700683594</ele>
        <time>2017-10-22T09:39:45Z</time>
      </trkpt>
      <trkpt lat="43.49427" lon="6.92448">
        <ele>148.30700683594</ele>
        <time>2017-10-22T09:39:50Z</time>
      </trkpt>
      <trkpt lat="43.4943" lon="6.92459">
        <ele>149.30700683594</ele>
        <time>2017-10-22T09:39:55Z</time>
      </trkpt>
      <trkpt lat="43.49433" lon="6.9247">
        <ele>149.30700683594</ele>
        <time>2017-10-22T09:40:00Z</time>
      </trkpt>
      <trkpt lat="43.49438" lon="6.92489">
        <ele>151.30700683594</ele>
        <time>2017-10-22T09:40:07Z</time>
      </trkpt>
      <trkpt lat="43.49445" lon="6.92512">
        <ele>151.30700683594</ele>
        <time>2017-10-22T09:40:15Z</time>
      </trkpt>
      <trkpt lat="43.49455" lon="6.92529">
        <ele>151.30700683594</ele>
        <time>2017-10-22T09:40:22Z</time>
      </trkpt>
      <trkpt lat="43.4946" lon="6.92538">
        <ele>151.30700683594</ele>
        <time>2017-10-22T09:40:26Z</time>
      </trkpt>
      <trkpt lat="43.49473" lon="6.92553">
        <ele>153.30700683594</ele>
        <time>2017-10-22T09:40:34Z</time>
      </trkpt>
      <trkpt lat="43.49487" lon="6.92564">
        <ele>155.30700683594</ele>
        <time>2017-10-22T09:40:42Z</time>
      </trkpt>
      <trkpt lat="43.49505" lon="6.92575">
        <ele>157.30799865723</ele>
        <time>2017-10-22T09:40:50Z</time>
      </trkpt>
      <trkpt lat="43.49522" lon="6.92568">
        <ele>156.30799865723</ele>
        <time>2017-10-22T09:40:57Z</time>
      </trkpt>
      <trkpt lat="43.49526" lon="6.92546">
        <ele>156.30799865723</ele>
        <time>2017-10-22T09:41:06Z</time>
      </trkpt>
      <trkpt lat="43.49529" lon="6.92524">
        <ele>153.30700683594</ele>
        <time>2017-10-22T09:41:15Z</time>
      </trkpt>
      <trkpt lat="43.49527" lon="6.92513">
        <ele>155.30700683594</ele>
        <time>2017-10-22T09:41:20Z</time>
      </trkpt>
      <trkpt lat="43.49525" lon="6.92502">
        <ele>157.30700683594</ele>
        <time>2017-10-22T09:41:28Z</time>
      </trkpt>
      <trkpt lat="43.49525" lon="6.9249">
        <ele>159.30700683594</ele>
        <time>2017-10-22T09:41:33Z</time>
      </trkpt>
      <trkpt lat="43.49522" lon="6.92468">
        <ele>159.30700683594</ele>
        <time>2017-10-22T09:41:41Z</time>
      </trkpt>
      <trkpt lat="43.49522" lon="6.92455">
        <ele>161.30700683594</ele>
        <time>2017-10-22T09:41:46Z</time>
      </trkpt>
      <trkpt lat="43.49519" lon="6.92444">
        <ele>161.30700683594</ele>
        <time>2017-10-22T09:41:51Z</time>
      </trkpt>
      <trkpt lat="43.49517" lon="6.92435">
        <ele>162.30700683594</ele>
        <time>2017-10-22T09:41:56Z</time>
      </trkpt>
      <trkpt lat="43.49515" lon="6.92424">
        <ele>162.30700683594</ele>
        <time>2017-10-22T09:42:01Z</time>
      </trkpt>
      <trkpt lat="43.49517" lon="6.92413">
        <ele>163.30700683594</ele>
        <time>2017-10-22T09:42:06Z</time>
      </trkpt>
      <trkpt lat="43.4952" lon="6.92403">
        <ele>161.30700683594</ele>
        <time>2017-10-22T09:42:11Z</time>
      </trkpt>
      <trkpt lat="43.49531" lon="6.92386">
        <ele>162.30700683594</ele>
        <time>2017-10-22T09:42:19Z</time>
      </trkpt>
      <trkpt lat="43.4954" lon="6.92369">
        <ele>165.30700683594</ele>
        <time>2017-10-22T09:42:27Z</time>
      </trkpt>
      <trkpt lat="43.49547" lon="6.92349">
        <ele>164.30700683594</ele>
        <time>2017-10-22T09:42:35Z</time>
      </trkpt>
      <trkpt lat="43.49548" lon="6.92337">
        <ele>162.30700683594</ele>
        <time>2017-10-22T09:42:40Z</time>
      </trkpt>
      <trkpt lat="43.49547" lon="6.92325">
        <ele>162.30700683594</ele>
        <time>2017-10-22T09:42:46Z</time>
      </trkpt>
      <trkpt lat="43.49548" lon="6.92314">
        <ele>166.30700683594</ele>
        <time>2017-10-22T09:42:52Z</time>
      </trkpt>
      <trkpt lat="43.4955" lon="6.92303">
        <ele>166.30700683594</ele>
        <time>2017-10-22T09:42:57Z</time>
      </trkpt>
      <trkpt lat="43.49551" lon="6.92293">
        <ele>169.30700683594</ele>
        <time>2017-10-22T09:43:03Z</time>
      </trkpt>
      <trkpt lat="43.49552" lon="6.92283">
        <ele>170.30700683594</ele>
        <time>2017-10-22T09:43:08Z</time>
      </trkpt>
      <trkpt lat="43.49553" lon="6.92271">
        <ele>171.30700683594</ele>
        <time>2017-10-22T09:43:13Z</time>
      </trkpt>
      <trkpt lat="43.49553" lon="6.9226">
        <ele>174.30700683594</ele>
        <time>2017-10-22T09:43:17Z</time>
      </trkpt>
      <trkpt lat="43.49553" lon="6.92239">
        <ele>177.30700683594</ele>
        <time>2017-10-22T09:43:26Z</time>
      </trkpt>
      <trkpt lat="43.49549" lon="6.92217">
        <ele>175.30700683594</ele>
        <time>2017-10-22T09:43:35Z</time>
      </trkpt>
      <trkpt lat="43.49544" lon="6.92209">
        <ele>174.30700683594</ele>
        <time>2017-10-22T09:43:40Z</time>
      </trkpt>
      <trkpt lat="43.4954" lon="6.92198">
        <ele>176.30700683594</ele>
        <time>2017-10-22T09:43:46Z</time>
      </trkpt>
      <trkpt lat="43.4953" lon="6.9218">
        <ele>171.30700683594</ele>
        <time>2017-10-22T09:43:53Z</time>
      </trkpt>
      <trkpt lat="43.49525" lon="6.92173">
        <ele>178.30700683594</ele>
        <time>2017-10-22T09:43:58Z</time>
      </trkpt>
      <trkpt lat="43.49517" lon="6.92172">
        <ele>181.30700683594</ele>
        <time>2017-10-22T09:44:05Z</time>
      </trkpt>
      <trkpt lat="43.4951" lon="6.92177">
        <ele>181.30700683594</ele>
        <time>2017-10-22T09:44:11Z</time>
      </trkpt>
      <trkpt lat="43.49506" lon="6.92187">
        <ele>181.30700683594</ele>
        <time>2017-10-22T09:44:17Z</time>
      </trkpt>
      <trkpt lat="43.49498" lon="6.92195">
        <ele>181.30700683594</ele>
        <time>2017-10-22T09:44:23Z</time>
      </trkpt>
      <trkpt lat="43.49489" lon="6.92179">
        <ele>183.30700683594</ele>
        <time>2017-10-22T09:44:32Z</time>
      </trkpt>
      <trkpt lat="43.49488" lon="6.92167">
        <ele>182.30700683594</ele>
        <time>2017-10-22T09:44:37Z</time>
      </trkpt>
      <trkpt lat="43.49484" lon="6.92156">
        <ele>183.30700683594</ele>
        <time>2017-10-22T09:44:42Z</time>
      </trkpt>
      <trkpt lat="43.49482" lon="6.92145">
        <ele>183.30700683594</ele>
        <time>2017-10-22T09:44:47Z</time>
      </trkpt>
      <trkpt lat="43.49478" lon="6.92137">
        <ele>183.30700683594</ele>
        <time>2017-10-22T09:44:52Z</time>
      </trkpt>
      <trkpt lat="43.49474" lon="6.92128">
        <ele>184.30599975586</ele>
        <time>2017-10-22T09:44:57Z</time>
      </trkpt>
      <trkpt lat="43.49463" lon="6.92114">
        <ele>186.30599975586</ele>
        <time>2017-10-22T09:45:05Z</time>
      </trkpt>
      <trkpt lat="43.49455" lon="6.92112">
        <ele>185.30599975586</ele>
        <time>2017-10-22T09:45:11Z</time>
      </trkpt>
      <trkpt lat="43.49448" lon="6.92108">
        <ele>186.30599975586</ele>
        <time>2017-10-22T09:45:16Z</time>
      </trkpt>
      <trkpt lat="43.49436" lon="6.92095">
        <ele>189.30599975586</ele>
        <time>2017-10-22T09:45:25Z</time>
      </trkpt>
      <trkpt lat="43.4943" lon="6.92086">
        <ele>190.30599975586</ele>
        <time>2017-10-22T09:45:31Z</time>
      </trkpt>
      <trkpt lat="43.49421" lon="6.92069">
        <ele>191.30599975586</ele>
        <time>2017-10-22T09:45:39Z</time>
      </trkpt>
      <trkpt lat="43.49419" lon="6.92046">
        <ele>194.30599975586</ele>
        <time>2017-10-22T09:45:47Z</time>
      </trkpt>
      <trkpt lat="43.49426" lon="6.92027">
        <ele>194.30599975586</ele>
        <time>2017-10-22T09:45:55Z</time>
      </trkpt>
      <trkpt lat="43.49438" lon="6.92012">
        <ele>195.30599975586</ele>
        <time>2017-10-22T09:46:03Z</time>
      </trkpt>
      <trkpt lat="43.49452" lon="6.92002">
        <ele>196.30599975586</ele>
        <time>2017-10-22T09:46:11Z</time>
      </trkpt>
      <trkpt lat="43.49467" lon="6.91991">
        <ele>197.30599975586</ele>
        <time>2017-10-22T09:46:19Z</time>
      </trkpt>
      <trkpt lat="43.49477" lon="6.91975">
        <ele>199.30599975586</ele>
        <time>2017-10-22T09:46:28Z</time>
      </trkpt>
      <trkpt lat="43.49486" lon="6.91955">
        <ele>201.30599975586</ele>
        <time>2017-10-22T09:46:37Z</time>
      </trkpt>
      <trkpt lat="43.49502" lon="6.91949">
        <ele>201.30599975586</ele>
        <time>2017-10-22T09:46:45Z</time>
      </trkpt>
      <trkpt lat="43.4951" lon="6.91953">
        <ele>201.30599975586</ele>
        <time>2017-10-22T09:46:50Z</time>
      </trkpt>
      <trkpt lat="43.49526" lon="6.91952">
        <ele>202.30599975586</ele>
        <time>2017-10-22T09:46:58Z</time>
      </trkpt>
      <trkpt lat="43.49537" lon="6.91937">
        <ele>204.30599975586</ele>
        <time>2017-10-22T09:47:06Z</time>
      </trkpt>
      <trkpt lat="43.49541" lon="6.91927">
        <ele>205.30599975586</ele>
        <time>2017-10-22T09:47:11Z</time>
      </trkpt>
      <trkpt lat="43.49546" lon="6.91908">
        <ele>206.30599975586</ele>
        <time>2017-10-22T09:47:20Z</time>
      </trkpt>
      <trkpt lat="43.49552" lon="6.919">
        <ele>206.30599975586</ele>
        <time>2017-10-22T09:47:24Z</time>
      </trkpt>
      <trkpt lat="43.49556" lon="6.91891">
        <ele>209.30599975586</ele>
        <time>2017-10-22T09:47:30Z</time>
      </trkpt>
      <trkpt lat="43.49562" lon="6.91881">
        <ele>208.30599975586</ele>
        <time>2017-10-22T09:47:35Z</time>
      </trkpt>
      <trkpt lat="43.49568" lon="6.91874">
        <ele>205.30599975586</ele>
        <time>2017-10-22T09:47:40Z</time>
      </trkpt>
      <trkpt lat="43.49575" lon="6.91876">
        <ele>206.30599975586</ele>
        <time>2017-10-22T09:47:46Z</time>
      </trkpt>
      <trkpt lat="43.49582" lon="6.91881">
        <ele>209.30599975586</ele>
        <time>2017-10-22T09:47:50Z</time>
      </trkpt>
      <trkpt lat="43.49588" lon="6.91886">
        <ele>208.30599975586</ele>
        <time>2017-10-22T09:47:55Z</time>
      </trkpt>
      <trkpt lat="43.49596" lon="6.91892">
        <ele>210.30599975586</ele>
        <time>2017-10-22T09:48:00Z</time>
      </trkpt>
      <trkpt lat="43.49604" lon="6.91894">
        <ele>210.30599975586</ele>
        <time>2017-10-22T09:48:06Z</time>
      </trkpt>
      <trkpt lat="43.49612" lon="6.919">
        <ele>210.30599975586</ele>
        <time>2017-10-22T09:48:11Z</time>
      </trkpt>
      <trkpt lat="43.49622" lon="6.91919">
        <ele>214.30599975586</ele>
        <time>2017-10-22T09:48:20Z</time>
      </trkpt>
      <trkpt lat="43.49625" lon="6.9193">
        <ele>217.30599975586</ele>
        <time>2017-10-22T09:48:24Z</time>
      </trkpt>
      <trkpt lat="43.49629" lon="6.9194">
        <ele>219.30599975586</ele>
        <time>2017-10-22T09:48:29Z</time>
      </trkpt>
      <trkpt lat="43.49634" lon="6.91949">
        <ele>219.30599975586</ele>
        <time>2017-10-22T09:48:34Z</time>
      </trkpt>
      <trkpt lat="43.49638" lon="6.91957">
        <ele>222.30599975586</ele>
        <time>2017-10-22T09:48:39Z</time>
      </trkpt>
      <trkpt lat="43.49647" lon="6.91979">
        <ele>227.30599975586</ele>
        <time>2017-10-22T09:48:46Z</time>
      </trkpt>
      <trkpt lat="43.49656" lon="6.91994">
        <ele>230.30599975586</ele>
        <time>2017-10-22T09:48:54Z</time>
      </trkpt>
      <trkpt lat="43.49662" lon="6.92002">
        <ele>231.30599975586</ele>
        <time>2017-10-22T09:48:59Z</time>
      </trkpt>
      <trkpt lat="43.49669" lon="6.92007">
        <ele>230.30700683594</ele>
        <time>2017-10-22T09:49:05Z</time>
      </trkpt>
      <trkpt lat="43.49675" lon="6.92015">
        <ele>229.30700683594</ele>
        <time>2017-10-22T09:49:10Z</time>
      </trkpt>
      <trkpt lat="43.4968" lon="6.92021">
        <ele>233.30700683594</ele>
        <time>2017-10-22T09:49:15Z</time>
      </trkpt>
      <trkpt lat="43.49688" lon="6.92027">
        <ele>234.30700683594</ele>
        <time>2017-10-22T09:49:21Z</time>
      </trkpt>
      <trkpt lat="43.49694" lon="6.92036">
        <ele>234.30700683594</ele>
        <time>2017-10-22T09:49:27Z</time>
      </trkpt>
      <trkpt lat="43.49698" lon="6.92047">
        <ele>233.30700683594</ele>
        <time>2017-10-22T09:49:32Z</time>
      </trkpt>
      <trkpt lat="43.49702" lon="6.9207">
        <ele>234.30700683594</ele>
        <time>2017-10-22T09:49:41Z</time>
      </trkpt>
      <trkpt lat="43.49705" lon="6.92091">
        <ele>231.30700683594</ele>
        <time>2017-10-22T09:49:50Z</time>
      </trkpt>
      <trkpt lat="43.49709" lon="6.92101">
        <ele>230.30700683594</ele>
        <time>2017-10-22T09:49:57Z</time>
      </trkpt>
      <trkpt lat="43.49715" lon="6.92109">
        <ele>229.30700683594</ele>
        <time>2017-10-22T09:50:05Z</time>
      </trkpt>
      <trkpt lat="43.49718" lon="6.9212">
        <ele>227.30700683594</ele>
        <time>2017-10-22T09:50:12Z</time>
      </trkpt>
      <trkpt lat="43.4972" lon="6.92131">
        <ele>224.30700683594</ele>
        <time>2017-10-22T09:50:17Z</time>
      </trkpt>
      <trkpt lat="43.49722" lon="6.92142">
        <ele>225.30700683594</ele>
        <time>2017-10-22T09:50:22Z</time>
      </trkpt>
      <trkpt lat="43.49726" lon="6.92151">
        <ele>224.30700683594</ele>
        <time>2017-10-22T09:50:27Z</time>
      </trkpt>
      <trkpt lat="43.49729" lon="6.92161">
        <ele>223.30700683594</ele>
        <time>2017-10-22T09:50:32Z</time>
      </trkpt>
      <trkpt lat="43.49735" lon="6.92182">
        <ele>223.30700683594</ele>
        <time>2017-10-22T09:50:42Z</time>
      </trkpt>
      <trkpt lat="43.49745" lon="6.92197">
        <ele>225.30700683594</ele>
        <time>2017-10-22T09:50:50Z</time>
      </trkpt>
      <trkpt lat="43.49752" lon="6.92206">
        <ele>226.30700683594</ele>
        <time>2017-10-22T09:50:55Z</time>
      </trkpt>
      <trkpt lat="43.49758" lon="6.92213">
        <ele>223.30700683594</ele>
        <time>2017-10-22T09:50:59Z</time>
      </trkpt>
      <trkpt lat="43.49766" lon="6.92216">
        <ele>224.30700683594</ele>
        <time>2017-10-22T09:51:03Z</time>
      </trkpt>
      <trkpt lat="43.49772" lon="6.92221">
        <ele>223.30700683594</ele>
        <time>2017-10-22T09:51:08Z</time>
      </trkpt>
      <trkpt lat="43.4978" lon="6.92225">
        <ele>222.30700683594</ele>
        <time>2017-10-22T09:51:13Z</time>
      </trkpt>
      <trkpt lat="43.49787" lon="6.92226">
        <ele>224.30700683594</ele>
        <time>2017-10-22T09:51:18Z</time>
      </trkpt>
      <trkpt lat="43.49796" lon="6.92225">
        <ele>226.30700683594</ele>
        <time>2017-10-22T09:51:23Z</time>
      </trkpt>
      <trkpt lat="43.49804" lon="6.92224">
        <ele>228.30700683594</ele>
        <time>2017-10-22T09:51:28Z</time>
      </trkpt>
      <trkpt lat="43.49811" lon="6.92223">
        <ele>229.30700683594</ele>
        <time>2017-10-22T09:51:34Z</time>
      </trkpt>
      <trkpt lat="43.4982" lon="6.92218">
        <ele>230.1</ele>
      </trkpt>
      <trkpt lat="43.49836" lon="6.92225">
        <ele>233.4</ele>
      </trkpt>
      <trkpt lat="43.49851" lon="6.92246">
        <ele>238</ele>
      </trkpt>
      <trkpt lat="43.4986" lon="6.92254">
        <ele>240.3</ele>
      </trkpt>
      <trkpt lat="43.49904" lon="6.92218">
        <ele>245.5</ele>
      </trkpt>
      <trkpt lat="43.49927" lon="6.922">
        <ele>244.4</ele>
      </trkpt>
      <trkpt lat="43.49947" lon="6.92185">
        <ele>241.7</ele>
      </trkpt>
      <trkpt lat="43.49961" lon="6.92173">
        <ele>240</ele>
      </trkpt>
      <trkpt lat="43.49967" lon="6.92185">
        <ele>242</ele>
      </trkpt>
      <trkpt lat="43.49974" lon="6.92211">
        <ele>245.7</ele>
      </trkpt>
      <trkpt lat="43.50015" lon="6.92275">
        <ele>249.2</ele>
      </trkpt>
      <trkpt lat="43.50036" lon="6.92304">
        <ele>246.9</ele>
      </trkpt>
      <trkpt lat="43.50041" lon="6.92321">
        <ele>248.6</ele>
      </trkpt>
      <trkpt lat="43.50042" lon="6.92335">
        <ele>250.4</ele>
      </trkpt>
      <trkpt lat="43.50102" lon="6.92363">
        <ele>236.3</ele>
      </trkpt>
      <trkpt lat="43.50135" lon="6.92383">
        <ele>230.5</ele>
      </trkpt>
      <trkpt lat="43.5015" lon="6.9238">
        <ele>226.3</ele>
      </trkpt>
      <trkpt lat="43.50198" lon="6.92372">
        <ele>216.8</ele>
      </trkpt>
      <trkpt lat="43.50219" lon="6.92353">
        <ele>215</ele>
      </trkpt>
      <trkpt lat="43.50261" lon="6.92338">
        <ele>211.8</ele>
      </trkpt>
      <trkpt lat="43.50281" lon="6.92336">
        <ele>209.2</ele>
      </trkpt>
      <trkpt lat="43.50301" lon="6.92353">
        <ele>205.1</ele>
      </trkpt>
      <trkpt lat="43.50326" lon="6.92372">
        <ele>201.3</ele>
      </trkpt>
      <trkpt lat="43.50347" lon="6.92393">
        <ele>196.9</ele>
      </trkpt>
      <trkpt lat="43.50357" lon="6.92408">
        <ele>195.3</ele>
      </trkpt>
      <trkpt lat="43.504" lon="6.9243">
        <ele>188</ele>
      </trkpt>
      <trkpt lat="43.50426" lon="6.92461">
        <ele>185.6</ele>
      </trkpt>
      <trkpt lat="43.50454" lon="6.92491">
        <ele>189</ele>
      </trkpt>
      <trkpt lat="43.50469" lon="6.92501">
        <ele>191.6</ele>
      </trkpt>
      <trkpt lat="43.50477" lon="6.92517">
        <ele>190.3</ele>
      </trkpt>
      <trkpt lat="43.5052" lon="6.92524">
        <ele>198.4</ele>
      </trkpt>
      <trkpt lat="43.50575" lon="6.92517">
        <ele>211</ele>
      </trkpt>
      <trkpt lat="43.50596" lon="6.92497">
        <ele>211.5</ele>
      </trkpt>
      <trkpt lat="43.5062" lon="6.92368">
        <ele>209.5</ele>
      </trkpt>
      <trkpt lat="43.50644" lon="6.92301">
        <ele>207.7</ele>
      </trkpt>
      <trkpt lat="43.507" lon="6.92259">
        <ele>200.4</ele>
      </trkpt>
      <trkpt lat="43.50796" lon="6.92204">
        <ele>190.9</ele>
      </trkpt>
      <trkpt lat="43.50855" lon="6.92221">
        <ele>197.9</ele>
      </trkpt>
      <trkpt lat="43.50871" lon="6.92284">
        <ele>200.7</ele>
      </trkpt>
      <trkpt lat="43.50877" lon="6.9242">
        <ele>198.6</ele>
      </trkpt>
      <trkpt lat="43.50926" lon="6.92628">
        <ele>200.8</ele>
      </trkpt>
      <trkpt lat="43.50944" lon="6.92666">
        <ele>204.6</ele>
      </trkpt>
      <trkpt lat="43.50975" lon="6.92723">
        <ele>214</ele>
      </trkpt>
      <trkpt lat="43.50986" lon="6.92837">
        <ele>217.9</ele>
      </trkpt>
      <trkpt lat="43.51005" lon="6.92989">
        <ele>220.1</ele>
      </trkpt>
      <trkpt lat="43.51014" lon="6.92999">
        <ele>221.2</ele>
      </trkpt>
      <trkpt lat="43.51032" lon="6.92973">
        <ele>228.2</ele>
      </trkpt>
      <trkpt lat="43.51135" lon="6.92986">
        <ele>242</ele>
      </trkpt>
      <trkpt lat="43.51126" lon="6.92953">
        <ele>245.7</ele>
      </trkpt>
      <trkpt lat="43.51087" lon="6.9288">
        <ele>254.3</ele>
      </trkpt>
      <trkpt lat="43.5109" lon="6.92782">
        <ele>255.5</ele>
      </trkpt>
      <trkpt lat="43.51087" lon="6.92727">
        <ele>254.6</ele>
      </trkpt>
      <trkpt lat="43.51042" lon="6.92584">
        <ele>246</ele>
      </trkpt>
      <trkpt lat="43.51002" lon="6.92452">
        <ele>246.8</ele>
      </trkpt>
      <trkpt lat="43.50985" lon="6.92359">
        <ele>238.7</ele>
      </trkpt>
      <trkpt lat="43.50997" lon="6.92226">
        <ele>234.9</ele>
      </trkpt>
      <trkpt lat="43.50993" lon="6.92197">
        <ele>233.7</ele>
      </trkpt>
      <trkpt lat="43.51015" lon="6.92175">
        <ele>230.2</ele>
      </trkpt>
      <trkpt lat="43.5101" lon="6.92146">
        <ele>228.5</ele>
      </trkpt>
      <trkpt lat="43.50997" lon="6.92093">
        <ele>222.6</ele>
      </trkpt>
      <trkpt lat="43.50983" lon="6.92045">
        <ele>209.6</ele>
      </trkpt>
      <trkpt lat="43.50989" lon="6.91901">
        <ele>190.4</ele>
      </trkpt>
      <trkpt lat="43.51006" lon="6.91838">
        <ele>188.7</ele>
      </trkpt>
      <trkpt lat="43.51043" lon="6.918">
        <ele>176</ele>
      </trkpt>
      <trkpt lat="43.51118" lon="6.91752">
        <ele>166.5</ele>
      </trkpt>
      <trkpt lat="43.51155" lon="6.91736">
        <ele>160.5</ele>
      </trkpt>
      <trkpt lat="43.5118" lon="6.91723">
        <ele>155.4</ele>
      </trkpt>
      <trkpt lat="43.51179" lon="6.91702">
        <ele>152.2</ele>
      </trkpt>
      <trkpt lat="43.5116" lon="6.91692">
        <ele>152.8</ele>
      </trkpt>
      <trkpt lat="43.51114" lon="6.91693">
        <ele>152.6</ele>
      </trkpt>
      <trkpt lat="43.51116" lon="6.91676">
        <ele>148.4</ele>
      </trkpt>
      <trkpt lat="43.51123" lon="6.91651">
        <ele>140.2</ele>
      </trkpt>
      <trkpt lat="43.51104" lon="6.91645">
        <ele>136.8</ele>
      </trkpt>
      <trkpt lat="43.51144" lon="6.91587">
        <ele>117.5</ele>
      </trkpt>
      <trkpt lat="43.51136" lon="6.91586">
        <ele>116.3</ele>
      </trkpt>
      <trkpt lat="43.51177" lon="6.91545">
        <ele>102.6</ele>
      </trkpt>
      <trkpt lat="43.51227" lon="6.91526">
        <ele>89.4</ele>
      </trkpt>
      <trkpt lat="43.51227" lon="6.91504">
        <ele>81.9</ele>
      </trkpt>
      <trkpt lat="43.51215" lon="6.91484">
        <ele>79.6</ele>
      </trkpt>
      <trkpt lat="43.51252" lon="6.91492">
        <ele>76.8</ele>
      </trkpt>
      <trkpt lat="43.5129" lon="6.91513">
        <ele>77.1</ele>
      </trkpt>
      <trkpt lat="43.51227" lon="6.91448">
        <ele>73.1</ele>
      </trkpt>
      <trkpt lat="43.51144" lon="6.91432">
        <ele>75.6</ele>
      </trkpt>
      <trkpt lat="43.50965" lon="6.91483">
        <ele>82.1</ele>
      </trkpt>
      <trkpt lat="43.50852" lon="6.91566">
        <ele>88.4</ele>
      </trkpt>
      <trkpt lat="43.5078" lon="6.91697">
        <ele>94.7</ele>
      </trkpt>
      <trkpt lat="43.50755" lon="6.91782">
        <ele>93.9</ele>
      </trkpt>
      <trkpt lat="43.50682" lon="6.91943">
        <ele>104</ele>
      </trkpt>
      <trkpt lat="43.50612" lon="6.92017">
        <ele>113</ele>
      </trkpt>
      <trkpt lat="43.50552" lon="6.91973">
        <ele>109.3</ele>
      </trkpt>
      <trkpt lat="43.50522" lon="6.91934">
        <ele>108.8</ele>
      </trkpt>
      <trkpt lat="43.5051" lon="6.919">
        <ele>110</ele>
      </trkpt>
      <trkpt lat="43.50484" lon="6.91902">
        <ele>110.1</ele>
      </trkpt>
      <trkpt lat="43.50442" lon="6.91881">
        <ele>113.4</ele>
      </trkpt>
      <trkpt lat="43.50407" lon="6.91854">
        <ele>114.3</ele>
      </trkpt>
      <trkpt lat="43.50317" lon="6.91849">
        <ele>119.9</ele>
      </trkpt>
      <trkpt lat="43.50255" lon="6.91911">
        <ele>126.2</ele>
      </trkpt>
      <trkpt lat="43.50268" lon="6.9196">
        <ele>134</ele>
      </trkpt>
      <trkpt lat="43.50199" lon="6.92041">
        <ele>152.6</ele>
      </trkpt>
      <trkpt lat="43.50109" lon="6.92041">
        <ele>177.8</ele>
      </trkpt>
      <trkpt lat="43.50034" lon="6.92">
        <ele>192.5</ele>
      </trkpt>
      <trkpt lat="43.49962" lon="6.92007">
        <ele>202.6</ele>
      </trkpt>
      <trkpt lat="43.49897" lon="6.92101">
        <ele>222.4</ele>
      </trkpt>
      <trkpt lat="43.49832" lon="6.92191">
        <ele>231</ele>
      </trkpt>
      <trkpt lat="43.49828" lon="6.92205">
        <ele>231</ele>
      </trkpt>
      <trkpt lat="43.49836" lon="6.92221">
        <ele>233.2</ele>
      </trkpt>
      <trkpt lat="43.49822" lon="6.92223">
        <ele>230.5</ele>
      </trkpt>
      <trkpt lat="43.49843" lon="6.92249">
        <ele>236.3</ele>
      </trkpt>
      <trkpt lat="43.49838" lon="6.92241">
        <ele>233.30700683594</ele>
        <time>2017-10-22T09:52:28Z</time>
      </trkpt>
      <trkpt lat="43.49846" lon="6.92258">
        <ele>232.30700683594</ele>
        <time>2017-10-22T09:52:34Z</time>
      </trkpt>
      <trkpt lat="43.49852" lon="6.92284">
        <ele>232.30700683594</ele>
        <time>2017-10-22T09:52:40Z</time>
      </trkpt>
      <trkpt lat="43.4986" lon="6.9232">
        <ele>232.30799865723</ele>
        <time>2017-10-22T09:52:46Z</time>
      </trkpt>
      <trkpt lat="43.49862" lon="6.9233">
        <ele>232.30799865723</ele>
        <time>2017-10-22T09:52:48Z</time>
      </trkpt>
      <trkpt lat="43.49865" lon="6.92355">
        <ele>232.30799865723</ele>
        <time>2017-10-22T09:52:53Z</time>
      </trkpt>
      <trkpt lat="43.4987" lon="6.92376">
        <ele>232.30799865723</ele>
        <time>2017-10-22T09:52:58Z</time>
      </trkpt>
      <trkpt lat="43.49879" lon="6.92398">
        <ele>230.30799865723</ele>
        <time>2017-10-22T09:53:02Z</time>
      </trkpt>
      <trkpt lat="43.49886" lon="6.92432">
        <ele>228.30799865723</ele>
        <time>2017-10-22T09:53:08Z</time>
      </trkpt>
      <trkpt lat="43.49891" lon="6.92472">
        <ele>230.30799865723</ele>
        <time>2017-10-22T09:53:14Z</time>
      </trkpt>
      <trkpt lat="43.49892" lon="6.92484">
        <ele>228.30799865723</ele>
        <time>2017-10-22T09:53:16Z</time>
      </trkpt>
      <trkpt lat="43.49896" lon="6.92497">
        <ele>224.30799865723</ele>
        <time>2017-10-22T09:53:18Z</time>
      </trkpt>
      <trkpt lat="43.49905" lon="6.92539">
        <ele>222.30799865723</ele>
        <time>2017-10-22T09:53:24Z</time>
      </trkpt>
      <trkpt lat="43.49916" lon="6.92586">
        <ele>221.30799865723</ele>
        <time>2017-10-22T09:53:30Z</time>
      </trkpt>
      <trkpt lat="43.49923" lon="6.92623">
        <ele>220.30799865723</ele>
        <time>2017-10-22T09:53:36Z</time>
      </trkpt>
      <trkpt lat="43.49926" lon="6.92635">
        <ele>220.30799865723</ele>
        <time>2017-10-22T09:53:39Z</time>
      </trkpt>
      <trkpt lat="43.49934" lon="6.92653">
        <ele>221.30799865723</ele>
        <time>2017-10-22T09:53:46Z</time>
      </trkpt>
      <trkpt lat="43.49942" lon="6.92676">
        <ele>219.30799865723</ele>
        <time>2017-10-22T09:53:51Z</time>
      </trkpt>
      <trkpt lat="43.49953" lon="6.92699">
        <ele>218.30900573731</ele>
        <time>2017-10-22T09:53:56Z</time>
      </trkpt>
      <trkpt lat="43.49966" lon="6.92713">
        <ele>220.30900573731</ele>
        <time>2017-10-22T09:54:04Z</time>
      </trkpt>
      <trkpt lat="43.4998" lon="6.92726">
        <ele>221.30900573731</ele>
        <time>2017-10-22T09:54:10Z</time>
      </trkpt>
      <trkpt lat="43.4999" lon="6.92743">
        <ele>219.30900573731</ele>
        <time>2017-10-22T09:54:15Z</time>
      </trkpt>
      <trkpt lat="43.49999" lon="6.92777">
        <ele>214.30900573731</ele>
        <time>2017-10-22T09:54:21Z</time>
      </trkpt>
      <trkpt lat="43.50009" lon="6.92811">
        <ele>211.30900573731</ele>
        <time>2017-10-22T09:54:27Z</time>
      </trkpt>
      <trkpt lat="43.50015" lon="6.92838">
        <ele>210.30900573731</ele>
        <time>2017-10-22T09:54:32Z</time>
      </trkpt>
      <trkpt lat="43.50017" lon="6.92873">
        <ele>203.30900573731</ele>
        <time>2017-10-22T09:54:38Z</time>
      </trkpt>
      <trkpt lat="43.50018" lon="6.92899">
        <ele>200.30900573731</ele>
        <time>2017-10-22T09:54:43Z</time>
      </trkpt>
      <trkpt lat="43.50018" lon="6.92934">
        <ele>196.30900573731</ele>
        <time>2017-10-22T09:54:49Z</time>
      </trkpt>
      <trkpt lat="43.50018" lon="6.92979">
        <ele>195.30900573731</ele>
        <time>2017-10-22T09:54:55Z</time>
      </trkpt>
      <trkpt lat="43.50019" lon="6.92991">
        <ele>194.30900573731</ele>
        <time>2017-10-22T09:54:57Z</time>
      </trkpt>
      <trkpt lat="43.50023" lon="6.93034">
        <ele>194.30900573731</ele>
        <time>2017-10-22T09:55:03Z</time>
      </trkpt>
      <trkpt lat="43.50029" lon="6.93067">
        <ele>193.30900573731</ele>
        <time>2017-10-22T09:55:09Z</time>
      </trkpt>
      <trkpt lat="43.5004" lon="6.93104">
        <ele>194.30999755859</ele>
        <time>2017-10-22T09:55:16Z</time>
      </trkpt>
      <trkpt lat="43.50049" lon="6.93129">
        <ele>196.30999755859</ele>
        <time>2017-10-22T09:55:21Z</time>
      </trkpt>
      <trkpt lat="43.50062" lon="6.93156">
        <ele>195.30999755859</ele>
        <time>2017-10-22T09:55:27Z</time>
      </trkpt>
      <trkpt lat="43.50067" lon="6.93165">
        <ele>196.30999755859</ele>
        <time>2017-10-22T09:55:29Z</time>
      </trkpt>
      <trkpt lat="43.50082" lon="6.93163">
        <ele>199.30999755859</ele>
        <time>2017-10-22T09:55:35Z</time>
      </trkpt>
      <trkpt lat="43.50091" lon="6.93164">
        <ele>200.30999755859</ele>
        <time>2017-10-22T09:55:41Z</time>
      </trkpt>
      <trkpt lat="43.50098" lon="6.93165">
        <ele>200.30999755859</ele>
        <time>2017-10-22T09:55:45Z</time>
      </trkpt>
      <trkpt lat="43.50106" lon="6.93169">
        <ele>202.30999755859</ele>
        <time>2017-10-22T09:55:50Z</time>
      </trkpt>
      <trkpt lat="43.50123" lon="6.93171">
        <ele>205.30999755859</ele>
        <time>2017-10-22T09:55:57Z</time>
      </trkpt>
      <trkpt lat="43.50132" lon="6.93171">
        <ele>200.30999755859</ele>
        <time>2017-10-22T09:56:00Z</time>
      </trkpt>
      <trkpt lat="43.50141" lon="6.93189">
        <ele>196.30999755859</ele>
        <time>2017-10-22T09:56:06Z</time>
      </trkpt>
      <trkpt lat="43.50148" lon="6.93208">
        <ele>195.30999755859</ele>
        <time>2017-10-22T09:56:12Z</time>
      </trkpt>
      <trkpt lat="43.50166" lon="6.93241">
        <ele>191.30999755859</ele>
        <time>2017-10-22T09:56:18Z</time>
      </trkpt>
      <trkpt lat="43.50183" lon="6.93267">
        <ele>182.30999755859</ele>
        <time>2017-10-22T09:56:27Z</time>
      </trkpt>
      <trkpt lat="43.50198" lon="6.93281">
        <ele>180.30999755859</ele>
        <time>2017-10-22T09:56:34Z</time>
      </trkpt>
      <trkpt lat="43.50206" lon="6.93296">
        <ele>176.30999755859</ele>
        <time>2017-10-22T09:56:41Z</time>
      </trkpt>
      <trkpt lat="43.50213" lon="6.93302">
        <ele>174.30999755859</ele>
        <time>2017-10-22T09:56:46Z</time>
      </trkpt>
      <trkpt lat="43.50221" lon="6.93306">
        <ele>172.30999755859</ele>
        <time>2017-10-22T09:56:51Z</time>
      </trkpt>
      <trkpt lat="43.50228" lon="6.93309">
        <ele>169.30999755859</ele>
        <time>2017-10-22T09:56:57Z</time>
      </trkpt>
      <trkpt lat="43.50232" lon="6.93319">
        <ele>170.30999755859</ele>
        <time>2017-10-22T09:57:02Z</time>
      </trkpt>
      <trkpt lat="43.50235" lon="6.93337">
        <ele>166.30999755859</ele>
        <time>2017-10-22T09:57:09Z</time>
      </trkpt>
      <trkpt lat="43.50251" lon="6.93333">
        <ele>165.30999755859</ele>
        <time>2017-10-22T09:57:15Z</time>
      </trkpt>
      <trkpt lat="43.50258" lon="6.93347">
        <ele>162.30999755859</ele>
        <time>2017-10-22T09:57:20Z</time>
      </trkpt>
      <trkpt lat="43.50267" lon="6.9335">
        <ele>164.30999755859</ele>
        <time>2017-10-22T09:57:28Z</time>
      </trkpt>
      <trkpt lat="43.50274" lon="6.93345">
        <ele>164.30999755859</ele>
        <time>2017-10-22T09:57:34Z</time>
      </trkpt>
      <trkpt lat="43.50281" lon="6.93349">
        <ele>162.30999755859</ele>
        <time>2017-10-22T09:57:39Z</time>
      </trkpt>
      <trkpt lat="43.50287" lon="6.93341">
        <ele>158.30999755859</ele>
        <time>2017-10-22T09:57:45Z</time>
      </trkpt>
      <trkpt lat="43.50292" lon="6.9335">
        <ele>151.30999755859</ele>
        <time>2017-10-22T09:57:49Z</time>
      </trkpt>
      <trkpt lat="43.50303" lon="6.93364">
        <ele>141.31100463867</ele>
        <time>2017-10-22T09:57:55Z</time>
      </trkpt>
      <trkpt lat="43.50313" lon="6.93383">
        <ele>138.31100463867</ele>
        <time>2017-10-22T09:58:01Z</time>
      </trkpt>
      <trkpt lat="43.50319" lon="6.93392">
        <ele>135.31100463867</ele>
        <time>2017-10-22T09:58:04Z</time>
      </trkpt>
      <trkpt lat="43.5033" lon="6.93408">
        <ele>128.31100463867</ele>
        <time>2017-10-22T09:58:10Z</time>
      </trkpt>
      <trkpt lat="43.50342" lon="6.93425">
        <ele>124.31099700928</ele>
        <time>2017-10-22T09:58:15Z</time>
      </trkpt>
      <trkpt lat="43.50349" lon="6.9344">
        <ele>120.31099700928</ele>
        <time>2017-10-22T09:58:20Z</time>
      </trkpt>
      <trkpt lat="43.50346" lon="6.93451">
        <ele>115.31099700928</ele>
        <time>2017-10-22T09:58:32Z</time>
      </trkpt>
      <trkpt lat="43.5034" lon="6.93444">
        <ele>117.31099700928</ele>
        <time>2017-10-22T09:58:38Z</time>
      </trkpt>
      <trkpt lat="43.50334" lon="6.93439">
        <ele>119.31099700928</ele>
        <time>2017-10-22T09:58:44Z</time>
      </trkpt>
      <trkpt lat="43.50328" lon="6.93433">
        <ele>120.31099700928</ele>
        <time>2017-10-22T09:58:50Z</time>
      </trkpt>
      <trkpt lat="43.50321" lon="6.9343">
        <ele>120.31099700928</ele>
        <time>2017-10-22T09:58:56Z</time>
      </trkpt>
      <trkpt lat="43.50314" lon="6.93426">
        <ele>121.31099700928</ele>
        <time>2017-10-22T09:59:01Z</time>
      </trkpt>
      <trkpt lat="43.50307" lon="6.9342">
        <ele>118.31099700928</ele>
        <time>2017-10-22T09:59:07Z</time>
      </trkpt>
      <trkpt lat="43.503" lon="6.93416">
        <ele>115.31099700928</ele>
        <time>2017-10-22T09:59:15Z</time>
      </trkpt>
      <trkpt lat="43.50292" lon="6.93413">
        <ele>118.31099700928</ele>
        <time>2017-10-22T09:59:25Z</time>
      </trkpt>
      <trkpt lat="43.50283" lon="6.93413">
        <ele>117.31099700928</ele>
        <time>2017-10-22T09:59:32Z</time>
      </trkpt>
      <trkpt lat="43.50274" lon="6.93413">
        <ele>120.31099700928</ele>
        <time>2017-10-22T09:59:39Z</time>
      </trkpt>
      <trkpt lat="43.50267" lon="6.93414">
        <ele>121.31099700928</ele>
        <time>2017-10-22T09:59:46Z</time>
      </trkpt>
      <trkpt lat="43.50258" lon="6.93416">
        <ele>121.31099700928</ele>
        <time>2017-10-22T09:59:55Z</time>
      </trkpt>
      <trkpt lat="43.5025" lon="6.93416">
        <ele>124.31099700928</ele>
        <time>2017-10-22T10:00:01Z</time>
      </trkpt>
      <trkpt lat="43.50244" lon="6.93413">
        <ele>123.31099700928</ele>
        <time>2017-10-22T10:00:07Z</time>
      </trkpt>
      <trkpt lat="43.50236" lon="6.93409">
        <ele>126.31099700928</ele>
        <time>2017-10-22T10:00:14Z</time>
      </trkpt>
      <trkpt lat="43.50229" lon="6.93406">
        <ele>129.31100463867</ele>
        <time>2017-10-22T10:00:20Z</time>
      </trkpt>
      <trkpt lat="43.50222" lon="6.93406">
        <ele>129.31100463867</ele>
        <time>2017-10-22T10:00:28Z</time>
      </trkpt>
      <trkpt lat="43.50215" lon="6.93403">
        <ele>131.30999755859</ele>
        <time>2017-10-22T10:00:35Z</time>
      </trkpt>
      <trkpt lat="43.50208" lon="6.934">
        <ele>132.30999755859</ele>
        <time>2017-10-22T10:00:42Z</time>
      </trkpt>
      <trkpt lat="43.502" lon="6.934">
        <ele>138.30999755859</ele>
        <time>2017-10-22T10:00:49Z</time>
      </trkpt>
      <trkpt lat="43.50192" lon="6.93397">
        <ele>138.30999755859</ele>
        <time>2017-10-22T10:00:56Z</time>
      </trkpt>
      <trkpt lat="43.50185" lon="6.93395">
        <ele>137.30999755859</ele>
        <time>2017-10-22T10:01:03Z</time>
      </trkpt>
      <trkpt lat="43.50177" lon="6.93391">
        <ele>138.30999755859</ele>
        <time>2017-10-22T10:01:09Z</time>
      </trkpt>
      <trkpt lat="43.5017" lon="6.93387">
        <ele>138.30999755859</ele>
        <time>2017-10-22T10:01:15Z</time>
      </trkpt>
      <trkpt lat="43.50163" lon="6.93382">
        <ele>137.30999755859</ele>
        <time>2017-10-22T10:01:21Z</time>
      </trkpt>
      <trkpt lat="43.50151" lon="6.93367">
        <ele>142.30999755859</ele>
        <time>2017-10-22T10:01:29Z</time>
      </trkpt>
      <trkpt lat="43.50139" lon="6.93352">
        <ele>146.30999755859</ele>
        <time>2017-10-22T10:01:36Z</time>
      </trkpt>
      <trkpt lat="43.50127" lon="6.93331">
        <ele>146.30999755859</ele>
        <time>2017-10-22T10:01:41Z</time>
      </trkpt>
      <trkpt lat="43.50106" lon="6.93313">
        <ele>146.30999755859</ele>
        <time>2017-10-22T10:01:47Z</time>
      </trkpt>
      <trkpt lat="43.50088" lon="6.93312">
        <ele>145.30999755859</ele>
        <time>2017-10-22T10:01:53Z</time>
      </trkpt>
      <trkpt lat="43.50071" lon="6.93311">
        <ele>145.30999755859</ele>
        <time>2017-10-22T10:01:59Z</time>
      </trkpt>
      <trkpt lat="43.50054" lon="6.93307">
        <ele>143.30999755859</ele>
        <time>2017-10-22T10:02:05Z</time>
      </trkpt>
      <trkpt lat="43.50046" lon="6.93305">
        <ele>143.30999755859</ele>
        <time>2017-10-22T10:02:08Z</time>
      </trkpt>
      <trkpt lat="43.50029" lon="6.93297">
        <ele>144.30999755859</ele>
        <time>2017-10-22T10:02:13Z</time>
      </trkpt>
      <trkpt lat="43.50015" lon="6.93291">
        <ele>145.30999755859</ele>
        <time>2017-10-22T10:02:18Z</time>
      </trkpt>
      <trkpt lat="43.49997" lon="6.93285">
        <ele>145.30999755859</ele>
        <time>2017-10-22T10:02:24Z</time>
      </trkpt>
      <trkpt lat="43.49992" lon="6.93279">
        <ele>147.30999755859</ele>
        <time>2017-10-22T10:02:29Z</time>
      </trkpt>
      <trkpt lat="43.49985" lon="6.93276">
        <ele>147.30999755859</ele>
        <time>2017-10-22T10:02:33Z</time>
      </trkpt>
      <trkpt lat="43.49977" lon="6.93272">
        <ele>146.30999755859</ele>
        <time>2017-10-22T10:02:38Z</time>
      </trkpt>
      <trkpt lat="43.49977" lon="6.93262">
        <ele>146.30999755859</ele>
        <time>2017-10-22T10:02:43Z</time>
      </trkpt>
      <trkpt lat="43.49973" lon="6.93254">
        <ele>142.30999755859</ele>
        <time>2017-10-22T10:02:49Z</time>
      </trkpt>
      <trkpt lat="43.49972" lon="6.93244">
        <ele>144.30999755859</ele>
        <time>2017-10-22T10:02:56Z</time>
      </trkpt>
      <trkpt lat="43.49977" lon="6.93235">
        <ele>147.30999755859</ele>
        <time>2017-10-22T10:03:03Z</time>
      </trkpt>
      <trkpt lat="43.49977" lon="6.93223">
        <ele>147.30999755859</ele>
        <time>2017-10-22T10:03:09Z</time>
      </trkpt>
      <trkpt lat="43.49975" lon="6.93201">
        <ele>147.30999755859</ele>
        <time>2017-10-22T10:03:14Z</time>
      </trkpt>
      <trkpt lat="43.49967" lon="6.93171">
        <ele>145.30999755859</ele>
        <time>2017-10-22T10:03:21Z</time>
      </trkpt>
      <trkpt lat="43.49957" lon="6.93148">
        <ele>145.30999755859</ele>
        <time>2017-10-22T10:03:26Z</time>
      </trkpt>
      <trkpt lat="43.49939" lon="6.93124">
        <ele>144.30900573731</ele>
        <time>2017-10-22T10:03:32Z</time>
      </trkpt>
      <trkpt lat="43.49935" lon="6.93114">
        <ele>143.30900573731</ele>
        <time>2017-10-22T10:03:34Z</time>
      </trkpt>
      <trkpt lat="43.49923" lon="6.93078">
        <ele>143.30900573731</ele>
        <time>2017-10-22T10:03:39Z</time>
      </trkpt>
      <trkpt lat="43.49913" lon="6.93041">
        <ele>139.30900573731</ele>
        <time>2017-10-22T10:03:45Z</time>
      </trkpt>
      <trkpt lat="43.49905" lon="6.92995">
        <ele>131.30900573731</ele>
        <time>2017-10-22T10:03:51Z</time>
      </trkpt>
      <trkpt lat="43.49901" lon="6.9298">
        <ele>128.30900573731</ele>
        <time>2017-10-22T10:03:53Z</time>
      </trkpt>
      <trkpt lat="43.49894" lon="6.92944">
        <ele>127.30899810791</ele>
        <time>2017-10-22T10:03:59Z</time>
      </trkpt>
      <trkpt lat="43.49888" lon="6.92934">
        <ele>127.30899810791</ele>
        <time>2017-10-22T10:04:02Z</time>
      </trkpt>
      <trkpt lat="43.49873" lon="6.92917">
        <ele>122.30899810791</ele>
        <time>2017-10-22T10:04:07Z</time>
      </trkpt>
      <trkpt lat="43.49866" lon="6.92908">
        <ele>121.30899810791</ele>
        <time>2017-10-22T10:04:10Z</time>
      </trkpt>
      <trkpt lat="43.49853" lon="6.92889">
        <ele>122.30899810791</ele>
        <time>2017-10-22T10:04:17Z</time>
      </trkpt>
      <trkpt lat="43.49844" lon="6.92867">
        <ele>122.30899810791</ele>
        <time>2017-10-22T10:04:23Z</time>
      </trkpt>
      <trkpt lat="43.49837" lon="6.92843">
        <ele>123.30899810791</ele>
        <time>2017-10-22T10:04:28Z</time>
      </trkpt>
      <trkpt lat="43.49833" lon="6.9283">
        <ele>124.30899810791</ele>
        <time>2017-10-22T10:04:31Z</time>
      </trkpt>
      <trkpt lat="43.49823" lon="6.9281">
        <ele>122.30899810791</ele>
        <time>2017-10-22T10:04:36Z</time>
      </trkpt>
      <trkpt lat="43.49819" lon="6.92801">
        <ele>123.30899810791</ele>
        <time>2017-10-22T10:04:38Z</time>
      </trkpt>
      <trkpt lat="43.49806" lon="6.92781">
        <ele>123.30799865723</ele>
        <time>2017-10-22T10:04:44Z</time>
      </trkpt>
      <trkpt lat="43.49799" lon="6.92771">
        <ele>121.30799865723</ele>
        <time>2017-10-22T10:04:46Z</time>
      </trkpt>
      <trkpt lat="43.49785" lon="6.92754">
        <ele>126.30799865723</ele>
        <time>2017-10-22T10:04:52Z</time>
      </trkpt>
      <trkpt lat="43.49779" lon="6.92745">
        <ele>128.30799865723</ele>
        <time>2017-10-22T10:04:56Z</time>
      </trkpt>
      <trkpt lat="43.49773" lon="6.92736">
        <ele>129.30799865723</ele>
        <time>2017-10-22T10:05:01Z</time>
      </trkpt>
      <trkpt lat="43.49769" lon="6.92716">
        <ele>130.30799865723</ele>
        <time>2017-10-22T10:05:09Z</time>
      </trkpt>
      <trkpt lat="43.4977" lon="6.92694">
        <ele>132.30799865723</ele>
        <time>2017-10-22T10:05:18Z</time>
      </trkpt>
      <trkpt lat="43.4977" lon="6.92683">
        <ele>134.30799865723</ele>
        <time>2017-10-22T10:05:24Z</time>
      </trkpt>
      <trkpt lat="43.49764" lon="6.92672">
        <ele>137.30799865723</ele>
        <time>2017-10-22T10:05:29Z</time>
      </trkpt>
      <trkpt lat="43.49756" lon="6.92655">
        <ele>137.30799865723</ele>
        <time>2017-10-22T10:05:35Z</time>
      </trkpt>
      <trkpt lat="43.49751" lon="6.9263">
        <ele>136.30799865723</ele>
        <time>2017-10-22T10:05:41Z</time>
      </trkpt>
      <trkpt lat="43.49742" lon="6.9263">
        <ele>134.30799865723</ele>
        <time>2017-10-22T10:05:44Z</time>
      </trkpt>
      <trkpt lat="43.49717" lon="6.92638">
        <ele>136.30799865723</ele>
        <time>2017-10-22T10:05:51Z</time>
      </trkpt>
      <trkpt lat="43.49702" lon="6.92623">
        <ele>139.30799865723</ele>
        <time>2017-10-22T10:05:56Z</time>
      </trkpt>
      <trkpt lat="43.49698" lon="6.92613">
        <ele>138.30799865723</ele>
        <time>2017-10-22T10:05:58Z</time>
      </trkpt>
      <trkpt lat="43.49682" lon="6.92607">
        <ele>138.30799865723</ele>
        <time>2017-10-22T10:06:03Z</time>
      </trkpt>
      <trkpt lat="43.49663" lon="6.92585">
        <ele>140.30799865723</ele>
        <time>2017-10-22T10:06:10Z</time>
      </trkpt>
      <trkpt lat="43.49659" lon="6.92575">
        <ele>139.30799865723</ele>
        <time>2017-10-22T10:06:12Z</time>
      </trkpt>
      <trkpt lat="43.49645" lon="6.92549">
        <ele>136.30799865723</ele>
        <time>2017-10-22T10:06:18Z</time>
      </trkpt>
      <trkpt lat="43.49631" lon="6.9251">
        <ele>128.30799865723</ele>
        <time>2017-10-22T10:06:24Z</time>
      </trkpt>
      <trkpt lat="43.49618" lon="6.92471">
        <ele>133.30700683594</ele>
        <time>2017-10-22T10:06:31Z</time>
      </trkpt>
      <trkpt lat="43.49619" lon="6.92458">
        <ele>134.30700683594</ele>
        <time>2017-10-22T10:06:35Z</time>
      </trkpt>
      <trkpt lat="43.49617" lon="6.92447">
        <ele>133.30700683594</ele>
        <time>2017-10-22T10:06:41Z</time>
      </trkpt>
      <trkpt lat="43.49609" lon="6.92443">
        <ele>130.30700683594</ele>
        <time>2017-10-22T10:06:45Z</time>
      </trkpt>
      <trkpt lat="43.49594" lon="6.92447">
        <ele>132.30700683594</ele>
        <time>2017-10-22T10:07:06Z</time>
      </trkpt>
      <trkpt lat="43.49588" lon="6.92455">
        <ele>131.30700683594</ele>
        <time>2017-10-22T10:07:12Z</time>
      </trkpt>
      <trkpt lat="43.49586" lon="6.92478">
        <ele>131.30700683594</ele>
        <time>2017-10-22T10:07:19Z</time>
      </trkpt>
      <trkpt lat="43.49581" lon="6.92503">
        <ele>128.30700683594</ele>
        <time>2017-10-22T10:07:25Z</time>
      </trkpt>
      <trkpt lat="43.49574" lon="6.92522">
        <ele>132.30799865723</ele>
        <time>2017-10-22T10:07:31Z</time>
      </trkpt>
      <trkpt lat="43.49571" lon="6.92533">
        <ele>130.30799865723</ele>
        <time>2017-10-22T10:07:35Z</time>
      </trkpt>
      <trkpt lat="43.49565" lon="6.92554">
        <ele>131.30799865723</ele>
        <time>2017-10-22T10:07:44Z</time>
      </trkpt>
      <trkpt lat="43.49562" lon="6.92565">
        <ele>133.30799865723</ele>
        <time>2017-10-22T10:07:49Z</time>
      </trkpt>
      <trkpt lat="43.49559" lon="6.92576">
        <ele>135.30799865723</ele>
        <time>2017-10-22T10:07:55Z</time>
      </trkpt>
      <trkpt lat="43.49555" lon="6.92588">
        <ele>135.30799865723</ele>
        <time>2017-10-22T10:08:00Z</time>
      </trkpt>
      <trkpt lat="43.49545" lon="6.92604">
        <ele>137.30799865723</ele>
        <time>2017-10-22T10:08:06Z</time>
      </trkpt>
      <trkpt lat="43.49531" lon="6.92621">
        <ele>134.30799865723</ele>
        <time>2017-10-22T10:08:12Z</time>
      </trkpt>
      <trkpt lat="43.49516" lon="6.92637">
        <ele>133.30799865723</ele>
        <time>2017-10-22T10:08:17Z</time>
      </trkpt>
      <trkpt lat="43.49502" lon="6.92656">
        <ele>133.30799865723</ele>
        <time>2017-10-22T10:08:23Z</time>
      </trkpt>
      <trkpt lat="43.495" lon="6.92681">
        <ele>132.30799865723</ele>
        <time>2017-10-22T10:08:29Z</time>
      </trkpt>
      <trkpt lat="43.49498" lon="6.92717">
        <ele>127.30799865723</ele>
        <time>2017-10-22T10:08:35Z</time>
      </trkpt>
      <trkpt lat="43.49492" lon="6.92761">
        <ele>123.30799865723</ele>
        <time>2017-10-22T10:08:41Z</time>
      </trkpt>
      <trkpt lat="43.49504" lon="6.92785">
        <ele>119.30799865723</ele>
        <time>2017-10-22T10:08:46Z</time>
      </trkpt>
      <trkpt lat="43.49513" lon="6.92814">
        <ele>117.30799865723</ele>
        <time>2017-10-22T10:08:51Z</time>
      </trkpt>
      <trkpt lat="43.49524" lon="6.92834">
        <ele>114.30799865723</ele>
        <time>2017-10-22T10:08:56Z</time>
      </trkpt>
      <trkpt lat="43.49533" lon="6.9284">
        <ele>111.30799865723</ele>
        <time>2017-10-22T10:08:58Z</time>
      </trkpt>
      <trkpt lat="43.49554" lon="6.92866">
        <ele>108.30799865723</ele>
        <time>2017-10-22T10:09:04Z</time>
      </trkpt>
      <trkpt lat="43.49576" lon="6.92881">
        <ele>107.30799865723</ele>
        <time>2017-10-22T10:09:10Z</time>
      </trkpt>
      <trkpt lat="43.49592" lon="6.92906">
        <ele>101.30799865723</ele>
        <time>2017-10-22T10:09:16Z</time>
      </trkpt>
      <trkpt lat="43.49603" lon="6.92926">
        <ele>99.307998657227</ele>
        <time>2017-10-22T10:09:21Z</time>
      </trkpt>
      <trkpt lat="43.49614" lon="6.92941">
        <ele>97.30899810791</ele>
        <time>2017-10-22T10:09:27Z</time>
      </trkpt>
      <trkpt lat="43.49621" lon="6.92947">
        <ele>98.30899810791</ele>
        <time>2017-10-22T10:09:29Z</time>
      </trkpt>
      <trkpt lat="43.49639" lon="6.92952">
        <ele>93.30899810791</ele>
        <time>2017-10-22T10:10:10Z</time>
      </trkpt>
      <trkpt lat="43.49657" lon="6.92961">
        <ele>91.30899810791</ele>
        <time>2017-10-22T10:10:16Z</time>
      </trkpt>
      <trkpt lat="43.49672" lon="6.92975">
        <ele>88.30899810791</ele>
        <time>2017-10-22T10:10:22Z</time>
      </trkpt>
      <trkpt lat="43.49678" lon="6.92984">
        <ele>88.30899810791</ele>
        <time>2017-10-22T10:10:30Z</time>
      </trkpt>
      <trkpt lat="43.49691" lon="6.93001">
        <ele>88.30899810791</ele>
        <time>2017-10-22T10:10:36Z</time>
      </trkpt>
      <trkpt lat="43.497" lon="6.93003">
        <ele>88.30899810791</ele>
        <time>2017-10-22T10:10:41Z</time>
      </trkpt>
      <trkpt lat="43.49705" lon="6.93013">
        <ele>88.30899810791</ele>
        <time>2017-10-22T10:11:28Z</time>
      </trkpt>
      <trkpt lat="43.49715" lon="6.93032">
        <ele>87.30899810791</ele>
        <time>2017-10-22T10:11:33Z</time>
      </trkpt>
      <trkpt lat="43.49713" lon="6.93076">
        <ele>84.30899810791</ele>
        <time>2017-10-22T10:11:39Z</time>
      </trkpt>
      <trkpt lat="43.49702" lon="6.93118">
        <ele>81.30899810791</ele>
        <time>2017-10-22T10:11:44Z</time>
      </trkpt>
      <trkpt lat="43.49685" lon="6.93165">
        <ele>75.30899810791</ele>
        <time>2017-10-22T10:11:50Z</time>
      </trkpt>
      <trkpt lat="43.49671" lon="6.93196">
        <ele>73.30899810791</ele>
        <time>2017-10-22T10:12:00Z</time>
      </trkpt>
      <trkpt lat="43.49675" lon="6.93218">
        <ele>70.30899810791</ele>
        <time>2017-10-22T10:12:07Z</time>
      </trkpt>
      <trkpt lat="43.4968" lon="6.93244">
        <ele>70.30899810791</ele>
        <time>2017-10-22T10:12:13Z</time>
      </trkpt>
      <trkpt lat="43.49678" lon="6.93278">
        <ele>69.30899810791</ele>
        <time>2017-10-22T10:12:19Z</time>
      </trkpt>
      <trkpt lat="43.49665" lon="6.93311">
        <ele>64.30899810791</ele>
        <time>2017-10-22T10:12:25Z</time>
      </trkpt>
      <trkpt lat="43.49663" lon="6.93351">
        <ele>61.310001373291</ele>
        <time>2017-10-22T10:12:32Z</time>
      </trkpt>
      <trkpt lat="43.49675" lon="6.93369">
        <ele>58.310001373291</ele>
        <time>2017-10-22T10:12:37Z</time>
      </trkpt>
      <trkpt lat="43.4968" lon="6.93393">
        <ele>54.310001373291</ele>
        <time>2017-10-22T10:12:42Z</time>
      </trkpt>
      <trkpt lat="43.49693" lon="6.93421">
        <ele>52.310001373291</ele>
        <time>2017-10-22T10:12:47Z</time>
      </trkpt>
      <trkpt lat="43.497" lon="6.93461">
        <ele>52.310001373291</ele>
        <time>2017-10-22T10:12:53Z</time>
      </trkpt>
      <trkpt lat="43.49708" lon="6.93491">
        <ele>52.310001373291</ele>
        <time>2017-10-22T10:12:58Z</time>
      </trkpt>
      <trkpt lat="43.49699" lon="6.9351">
        <ele>52.310001373291</ele>
        <time>2017-10-22T10:13:03Z</time>
      </trkpt>
      <trkpt lat="43.49687" lon="6.93526">
        <ele>53.310001373291</ele>
        <time>2017-10-22T10:13:48Z</time>
      </trkpt>
      <trkpt lat="43.4968" lon="6.93552">
        <ele>55.310001373291</ele>
        <time>2017-10-22T10:13:54Z</time>
      </trkpt>
      <trkpt lat="43.49691" lon="6.9355">
        <ele>52.310001373291</ele>
        <time>2017-10-22T10:14:05Z</time>
      </trkpt>
      <trkpt lat="43.49699" lon="6.93542">
        <ele>51.310001373291</ele>
        <time>2017-10-22T10:14:09Z</time>
      </trkpt>
      <trkpt lat="43.49717" lon="6.93546">
        <ele>59.310001373291</ele>
        <time>2017-10-22T10:14:14Z</time>
      </trkpt>
      <trkpt lat="43.49735" lon="6.93554">
        <ele>57.310001373291</ele>
        <time>2017-10-22T10:14:20Z</time>
      </trkpt>
      <trkpt lat="43.4976" lon="6.93564">
        <ele>56.310001373291</ele>
        <time>2017-10-22T10:14:26Z</time>
      </trkpt>
      <trkpt lat="43.49782" lon="6.93577">
        <ele>50.310001373291</ele>
        <time>2017-10-22T10:14:32Z</time>
      </trkpt>
      <trkpt lat="43.49799" lon="6.93585">
        <ele>45.310001373291</ele>
        <time>2017-10-22T10:14:36Z</time>
      </trkpt>
      <trkpt lat="43.49821" lon="6.93604">
        <ele>41.310001373291</ele>
        <time>2017-10-22T10:14:42Z</time>
      </trkpt>
      <trkpt lat="43.49841" lon="6.93623">
        <ele>44.310001373291</ele>
        <time>2017-10-22T10:14:48Z</time>
      </trkpt>
      <trkpt lat="43.49857" lon="6.93632">
        <ele>39.310001373291</ele>
        <time>2017-10-22T10:14:52Z</time>
      </trkpt>
      <trkpt lat="43.49885" lon="6.93634">
        <ele>38.311000823975</ele>
        <time>2017-10-22T10:14:58Z</time>
      </trkpt>
      <trkpt lat="43.499" lon="6.9364">
        <ele>34.311000823975</ele>
        <time>2017-10-22T10:15:04Z</time>
      </trkpt>
      <trkpt lat="43.49909" lon="6.93642">
        <ele>32.311000823975</ele>
        <time>2017-10-22T10:15:07Z</time>
      </trkpt>
      <trkpt lat="43.49928" lon="6.93645">
        <ele>31.311000823975</ele>
        <time>2017-10-22T10:15:12Z</time>
      </trkpt>
      <trkpt lat="43.49941" lon="6.93657">
        <ele>29.311000823975</ele>
        <time>2017-10-22T10:15:17Z</time>
      </trkpt>
      <trkpt lat="43.4997" lon="6.9367">
        <ele>28.311000823975</ele>
        <time>2017-10-22T10:15:23Z</time>
      </trkpt>
      <trkpt lat="43.49998" lon="6.93689">
        <ele>28.311000823975</ele>
        <time>2017-10-22T10:15:29Z</time>
      </trkpt>
      <trkpt lat="43.50005" lon="6.93697">
        <ele>26.311000823975</ele>
        <time>2017-10-22T10:15:31Z</time>
      </trkpt>
      <trkpt lat="43.5002" lon="6.93709">
        <ele>26.311000823975</ele>
        <time>2017-10-22T10:15:36Z</time>
      </trkpt>
      <trkpt lat="43.50051" lon="6.93703">
        <ele>21.311000823975</ele>
        <time>2017-10-22T10:15:43Z</time>
      </trkpt>
      <trkpt lat="43.50083" lon="6.93703">
        <ele>16.311000823975</ele>
        <time>2017-10-22T10:15:49Z</time>
      </trkpt>
      <trkpt lat="43.50092" lon="6.93707">
        <ele>17.311000823975</ele>
        <time>2017-10-22T10:15:51Z</time>
      </trkpt>
      <trkpt lat="43.50101" lon="6.93714">
        <ele>19.311000823975</ele>
        <time>2017-10-22T10:15:53Z</time>
      </trkpt>
      <trkpt lat="43.50136" lon="6.93717">
        <ele>15.3109998703</ele>
        <time>2017-10-22T10:15:59Z</time>
      </trkpt>
      <trkpt lat="43.50173" lon="6.93715">
        <ele>14.3109998703</ele>
        <time>2017-10-22T10:16:05Z</time>
      </trkpt>
      <trkpt lat="43.50183" lon="6.93712">
        <ele>14.3109998703</ele>
        <time>2017-10-22T10:16:07Z</time>
      </trkpt>
      <trkpt lat="43.5021" lon="6.93716">
        <ele>14.3109998703</ele>
        <time>2017-10-22T10:16:11Z</time>
      </trkpt>
      <trkpt lat="43.50252" lon="6.93708">
        <ele>11.3109998703</ele>
        <time>2017-10-22T10:16:17Z</time>
      </trkpt>
      <trkpt lat="43.50281" lon="6.93693">
        <ele>14.3109998703</ele>
        <time>2017-10-22T10:16:22Z</time>
      </trkpt>
      <trkpt lat="43.50305" lon="6.93703">
        <ele>16.311000823975</ele>
        <time>2017-10-22T10:16:28Z</time>
      </trkpt>
      <trkpt lat="43.50314" lon="6.93709">
        <ele>14.3109998703</ele>
        <time>2017-10-22T10:16:30Z</time>
      </trkpt>
      <trkpt lat="43.50328" lon="6.93724">
        <ele>17.311000823975</ele>
        <time>2017-10-22T10:16:37Z</time>
      </trkpt>
      <trkpt lat="43.50335" lon="6.93727">
        <ele>22.311000823975</ele>
        <time>2017-10-22T10:16:40Z</time>
      </trkpt>
      <trkpt lat="43.50345" lon="6.93749">
        <ele>23.311000823975</ele>
        <time>2017-10-22T10:16:46Z</time>
      </trkpt>
      <trkpt lat="43.50364" lon="6.93754">
        <ele>22.312000274658</ele>
        <time>2017-10-22T10:16:52Z</time>
      </trkpt>
      <trkpt lat="43.50381" lon="6.93768">
        <ele>19.312000274658</ele>
        <time>2017-10-22T10:16:58Z</time>
      </trkpt>
      <trkpt lat="43.50389" lon="6.93775">
        <ele>21.312000274658</ele>
        <time>2017-10-22T10:17:01Z</time>
      </trkpt>
      <trkpt lat="43.504" lon="6.93804">
        <ele>16.312000274658</ele>
        <time>2017-10-22T10:17:07Z</time>
      </trkpt>
      <trkpt lat="43.50405" lon="6.93832">
        <ele>15.312000274658</ele>
        <time>2017-10-22T10:17:13Z</time>
      </trkpt>
      <trkpt lat="43.50414" lon="6.93847">
        <ele>15.312000274658</ele>
        <time>2017-10-22T10:17:19Z</time>
      </trkpt>
      <trkpt lat="43.50431" lon="6.9386">
        <ele>14.312000274658</ele>
        <time>2017-10-22T10:17:24Z</time>
      </trkpt>
      <trkpt lat="43.50447" lon="6.93893">
        <ele>14.312000274658</ele>
        <time>2017-10-22T10:17:30Z</time>
      </trkpt>
      <trkpt lat="43.50471" lon="6.93923">
        <ele>14.312000274658</ele>
        <time>2017-10-22T10:17:36Z</time>
      </trkpt>
      <trkpt lat="43.505" lon="6.93958">
        <ele>16.312000274658</ele>
        <time>2017-10-22T10:17:42Z</time>
      </trkpt>
      <trkpt lat="43.50526" lon="6.93984">
        <ele>15.312000274658</ele>
        <time>2017-10-22T10:17:47Z</time>
      </trkpt>
      <trkpt lat="43.5055" lon="6.94007">
        <ele>13.312000274658</ele>
        <time>2017-10-22T10:17:52Z</time>
      </trkpt>
      <trkpt lat="43.50581" lon="6.94035">
        <ele>11.312000274658</ele>
        <time>2017-10-22T10:17:58Z</time>
      </trkpt>
      <trkpt lat="43.50606" lon="6.9406">
        <ele>10.312999725342</ele>
        <time>2017-10-22T10:18:03Z</time>
      </trkpt>
      <trkpt lat="43.50612" lon="6.94071">
        <ele>7.313000202179</ele>
        <time>2017-10-22T10:18:04Z</time>
      </trkpt>
      <trkpt lat="43.50625" lon="6.94098">
        <ele>8.3129997253418</ele>
        <time>2017-10-22T10:18:08Z</time>
      </trkpt>
      <trkpt lat="43.50638" lon="6.94134">
        <ele>4.313000202179</ele>
        <time>2017-10-22T10:18:13Z</time>
      </trkpt>
      <trkpt lat="43.50657" lon="6.94179">
        <ele>3.3129999637604</ele>
        <time>2017-10-22T10:18:19Z</time>
      </trkpt>
      <trkpt lat="43.50674" lon="6.94218">
        <ele>-0.68699997663498</ele>
        <time>2017-10-22T10:18:24Z</time>
      </trkpt>
      <trkpt lat="43.50692" lon="6.94221">
        <ele>0.3129999935627</ele>
        <time>2017-10-22T10:18:30Z</time>
      </trkpt>
      <trkpt lat="43.50719" lon="6.94203">
        <ele>0.3129999935627</ele>
        <time>2017-10-22T10:18:36Z</time>
      </trkpt>
      <trkpt lat="43.50747" lon="6.94183">
        <ele>-1.6870000362396</ele>
        <time>2017-10-22T10:18:42Z</time>
      </trkpt>
      <trkpt lat="43.50777" lon="6.94175">
        <ele>-2.6870000362396</ele>
        <time>2017-10-22T10:18:48Z</time>
      </trkpt>
      <trkpt lat="43.50808" lon="6.94169">
        <ele>-5.686999797821</ele>
        <time>2017-10-22T10:18:54Z</time>
      </trkpt>
      <trkpt lat="43.50818" lon="6.94162">
        <ele>-4.686999797821</ele>
        <time>2017-10-22T10:18:56Z</time>
      </trkpt>
      <trkpt lat="43.50831" lon="6.94146">
        <ele>-4.686999797821</ele>
        <time>2017-10-22T10:19:01Z</time>
      </trkpt>
      <trkpt lat="43.5084" lon="6.94141">
        <ele>-5.686999797821</ele>
        <time>2017-10-22T10:19:04Z</time>
      </trkpt>
      <trkpt lat="43.50854" lon="6.94129">
        <ele>-2.6870000362396</ele>
        <time>2017-10-22T10:19:12Z</time>
      </trkpt>
      <trkpt lat="43.50849" lon="6.94137">
        <ele>-0.68699997663498</ele>
        <time>2017-10-22T10:24:59Z</time>
      </trkpt>
      <trkpt lat="43.50841" lon="6.94142">
        <ele>-1.6870000362396</ele>
        <time>2017-10-22T10:25:09Z</time>
      </trkpt>
      <trkpt lat="43.50847" lon="6.94123">
        <ele>7.313000202179</ele>
        <time>2017-10-22T07:16:24Z</time>
      </trkpt>
      <trkpt lat="43.50847" lon="6.94123">
        <ele>7.313000202179</ele>
        <time>2017-10-22T07:16:24Z</time>
      </trkpt>
      <trkpt lat="43.50836" lon="6.94139">
        <ele>8.3129997253418</ele>
        <time>2017-10-22T07:16:33Z</time>
      </trkpt>
      <trkpt lat="43.50822" lon="6.94155">
        <ele>8.3129997253418</ele>
        <time>2017-10-22T07:16:40Z</time>
      </trkpt>
      <trkpt lat="43.50806" lon="6.94167">
        <ele>8.3129997253418</ele>
        <time>2017-10-22T07:16:46Z</time>
      </trkpt>
      <trkpt lat="43.50786" lon="6.94173">
        <ele>10.312999725342</ele>
        <time>2017-10-22T07:16:52Z</time>
      </trkpt>
      <trkpt lat="43.50777" lon="6.94174">
        <ele>10.312999725342</ele>
        <time>2017-10-22T07:16:55Z</time>
      </trkpt>
      <trkpt lat="43.50759" lon="6.94177">
        <ele>8.3129997253418</ele>
        <time>2017-10-22T07:17:01Z</time>
      </trkpt>
      <trkpt lat="43.5074" lon="6.94177">
        <ele>7.313000202179</ele>
        <time>2017-10-22T07:17:07Z</time>
      </trkpt>
      <trkpt lat="43.50723" lon="6.94187">
        <ele>7.313000202179</ele>
        <time>2017-10-22T07:17:12Z</time>
      </trkpt>
      <trkpt lat="43.50703" lon="6.94206">
        <ele>8.3129997253418</ele>
        <time>2017-10-22T07:17:18Z</time>
      </trkpt>
      <trkpt lat="43.50685" lon="6.94205">
        <ele>8.3129997253418</ele>
        <time>2017-10-22T07:17:23Z</time>
      </trkpt>
      <trkpt lat="43.50672" lon="6.9419">
        <ele>10.312999725342</ele>
        <time>2017-10-22T07:17:29Z</time>
      </trkpt>
      <trkpt lat="43.50663" lon="6.94169">
        <ele>12.312999725342</ele>
        <time>2017-10-22T07:17:35Z</time>
      </trkpt>
      <trkpt lat="43.50654" lon="6.94148">
        <ele>12.312999725342</ele>
        <time>2017-10-22T07:17:41Z</time>
      </trkpt>
      <trkpt lat="43.50646" lon="6.94127">
        <ele>12.312999725342</ele>
        <time>2017-10-22T07:17:47Z</time>
      </trkpt>
      <trkpt lat="43.50637" lon="6.94106">
        <ele>12.312999725342</ele>
        <time>2017-10-22T07:17:53Z</time>
      </trkpt>
      <trkpt lat="43.50628" lon="6.94088">
        <ele>13.312999725342</ele>
        <time>2017-10-22T07:17:59Z</time>
      </trkpt>
      <trkpt lat="43.50618" lon="6.94068">
        <ele>13.312999725342</ele>
        <time>2017-10-22T07:18:05Z</time>
      </trkpt>
      <trkpt lat="43.50606" lon="6.94052">
        <ele>15.312999725342</ele>
        <time>2017-10-22T07:18:11Z</time>
      </trkpt>
      <trkpt lat="43.506" lon="6.94045">
        <ele>15.312999725342</ele>
        <time>2017-10-22T07:18:14Z</time>
      </trkpt>
      <trkpt lat="43.50586" lon="6.94032">
        <ele>16.312000274658</ele>
        <time>2017-10-22T07:18:21Z</time>
      </trkpt>
      <trkpt lat="43.50571" lon="6.94022">
        <ele>15.312000274658</ele>
        <time>2017-10-22T07:18:26Z</time>
      </trkpt>
      <trkpt lat="43.50564" lon="6.94016">
        <ele>17.312000274658</ele>
        <time>2017-10-22T07:18:29Z</time>
      </trkpt>
      <trkpt lat="43.5055" lon="6.94005">
        <ele>16.312000274658</ele>
        <time>2017-10-22T07:18:34Z</time>
      </trkpt>
      <trkpt lat="43.50537" lon="6.93995">
        <ele>17.312000274658</ele>
        <time>2017-10-22T07:18:39Z</time>
      </trkpt>
      <trkpt lat="43.50523" lon="6.93983">
        <ele>17.312000274658</ele>
        <time>2017-10-22T07:18:44Z</time>
      </trkpt>
      <trkpt lat="43.50513" lon="6.93966">
        <ele>16.312000274658</ele>
        <time>2017-10-22T07:18:50Z</time>
      </trkpt>
      <trkpt lat="43.505" lon="6.93953">
        <ele>17.312000274658</ele>
        <time>2017-10-22T07:18:56Z</time>
      </trkpt>
      <trkpt lat="43.50492" lon="6.93945">
        <ele>15.312000274658</ele>
        <time>2017-10-22T07:18:59Z</time>
      </trkpt>
      <trkpt lat="43.5048" lon="6.93929">
        <ele>17.312000274658</ele>
        <time>2017-10-22T07:19:05Z</time>
      </trkpt>
      <trkpt lat="43.50474" lon="6.9392">
        <ele>18.312000274658</ele>
        <time>2017-10-22T07:19:08Z</time>
      </trkpt>
      <trkpt lat="43.50462" lon="6.93904">
        <ele>22.312000274658</ele>
        <time>2017-10-22T07:19:14Z</time>
      </trkpt>
      <trkpt lat="43.5045" lon="6.93891">
        <ele>22.312000274658</ele>
        <time>2017-10-22T07:19:20Z</time>
      </trkpt>
      <trkpt lat="43.50444" lon="6.93869">
        <ele>24.312000274658</ele>
        <time>2017-10-22T07:19:27Z</time>
      </trkpt>
      <trkpt lat="43.50438" lon="6.9385">
        <ele>28.312000274658</ele>
        <time>2017-10-22T07:19:33Z</time>
      </trkpt>
      <trkpt lat="43.50424" lon="6.93844">
        <ele>25.312000274658</ele>
        <time>2017-10-22T07:19:39Z</time>
      </trkpt>
      <trkpt lat="43.50411" lon="6.93856">
        <ele>25.312000274658</ele>
        <time>2017-10-22T07:19:45Z</time>
      </trkpt>
    </trkseg>
  </trk>
</gpx>